<?xml version="1.0" encoding="UTF-8" standalone="no" ?>
<gpx xmlns="http://www.topografix.com/GPX/1/1" xmlns:xsi="http://www.w3.org/2001/XMLSchema-instance" xsi:schemaLocation="http://www.topografix.com/GPX/1/1 http://www.topografix.com/GPX/1/1/gpx.xsd" version="1.1" creator="VisuGPX - https://www.visugpx.com">
  <metadata>
    <name>Montée au Soum de Coste Ouellière (secteur de Payolle 65)</name>
    <desc><![CDATA[



]]></desc>
  </metadata>
  <trk>
    <name><![CDATA[Montée au Soum de Coste Ouellière (secteur de Payolle 65)_1]]></name>
    <trkseg>
      <trkpt lat="42.90756" lon="0.27757">
        <ele>1460.9</ele>
        <time>2014-04-12T08:07:25Z</time>
      </trkpt>
      <trkpt lat="42.90755" lon="0.27758">
        <ele>1460.9</ele>
        <time>2014-04-12T08:07:30Z</time>
      </trkpt>
      <trkpt lat="42.90753" lon="0.27764">
        <ele>1460.9</ele>
        <time>2014-04-12T08:07:35Z</time>
      </trkpt>
      <trkpt lat="42.9075" lon="0.27768">
        <ele>1447.3354840701</ele>
        <time>2014-04-12T08:07:40Z</time>
      </trkpt>
      <trkpt lat="42.90746" lon="0.27773">
        <ele>1447.3354840701</ele>
        <time>2014-04-12T08:07:46Z</time>
      </trkpt>
      <trkpt lat="42.90743" lon="0.27774">
        <ele>1447.3354840701</ele>
        <time>2014-04-12T08:07:51Z</time>
      </trkpt>
      <trkpt lat="42.9074" lon="0.27771">
        <ele>1455.9353933582</ele>
        <time>2014-04-12T08:07:56Z</time>
      </trkpt>
      <trkpt lat="42.9074" lon="0.27764">
        <ele>1455.9353933582</ele>
        <time>2014-04-12T08:08:01Z</time>
      </trkpt>
      <trkpt lat="42.90736" lon="0.27763">
        <ele>1464.1440195033</ele>
        <time>2014-04-12T08:08:06Z</time>
      </trkpt>
      <trkpt lat="42.90732" lon="0.27761">
        <ele>1464.1440195033</ele>
        <time>2014-04-12T08:08:11Z</time>
      </trkpt>
      <trkpt lat="42.90726" lon="0.27761">
        <ele>1472.6673973352</ele>
        <time>2014-04-12T08:08:16Z</time>
      </trkpt>
      <trkpt lat="42.90723" lon="0.27761">
        <ele>1472.6673973352</ele>
        <time>2014-04-12T08:08:21Z</time>
      </trkpt>
      <trkpt lat="42.9072" lon="0.2776">
        <ele>1472.6673973352</ele>
        <time>2014-04-12T08:08:26Z</time>
      </trkpt>
      <trkpt lat="42.90719" lon="0.27759">
        <ele>1472.6673973352</ele>
        <time>2014-04-12T08:08:31Z</time>
      </trkpt>
      <trkpt lat="42.90717" lon="0.2776">
        <ele>1480.8859388186</ele>
        <time>2014-04-12T08:08:37Z</time>
      </trkpt>
      <trkpt lat="42.90714" lon="0.27762">
        <ele>1480.8859388186</ele>
        <time>2014-04-12T08:08:41Z</time>
      </trkpt>
      <trkpt lat="42.90711" lon="0.27763">
        <ele>1480.8859388186</ele>
        <time>2014-04-12T08:08:46Z</time>
      </trkpt>
      <trkpt lat="42.90705" lon="0.27761">
        <ele>1488.8176668671</ele>
        <time>2014-04-12T08:08:51Z</time>
      </trkpt>
      <trkpt lat="42.90699" lon="0.27758">
        <ele>1488.8176668671</ele>
        <time>2014-04-12T08:08:56Z</time>
      </trkpt>
      <trkpt lat="42.90697" lon="0.27754">
        <ele>1496.0519038033</ele>
        <time>2014-04-12T08:09:01Z</time>
      </trkpt>
      <trkpt lat="42.90698" lon="0.27754">
        <ele>1496.0519038033</ele>
        <time>2014-04-12T08:09:06Z</time>
      </trkpt>
      <trkpt lat="42.90694" lon="0.27758">
        <ele>1496.0519038033</ele>
        <time>2014-04-12T08:09:11Z</time>
      </trkpt>
      <trkpt lat="42.90693" lon="0.27754">
        <ele>1496.0519038033</ele>
        <time>2014-04-12T08:09:15Z</time>
      </trkpt>
      <trkpt lat="42.90691" lon="0.27752">
        <ele>1502.4201650286</ele>
        <time>2014-04-12T08:09:21Z</time>
      </trkpt>
      <trkpt lat="42.90688" lon="0.27751">
        <ele>1502.4201650286</ele>
        <time>2014-04-12T08:09:26Z</time>
      </trkpt>
      <trkpt lat="42.90687" lon="0.2775">
        <ele>1502.4201650286</ele>
        <time>2014-04-12T08:09:31Z</time>
      </trkpt>
      <trkpt lat="42.90685" lon="0.27754">
        <ele>1502.4201650286</ele>
        <time>2014-04-12T08:09:36Z</time>
      </trkpt>
      <trkpt lat="42.90681" lon="0.27761">
        <ele>1507.7393414171</ele>
        <time>2014-04-12T08:09:41Z</time>
      </trkpt>
      <trkpt lat="42.90679" lon="0.27764">
        <ele>1507.7393414171</ele>
        <time>2014-04-12T08:09:46Z</time>
      </trkpt>
      <trkpt lat="42.90674" lon="0.27767">
        <ele>1507.7393414171</ele>
        <time>2014-04-12T08:09:51Z</time>
      </trkpt>
      <trkpt lat="42.9067" lon="0.27769">
        <ele>1512.0164703756</ele>
        <time>2014-04-12T08:09:56Z</time>
      </trkpt>
      <trkpt lat="42.90666" lon="0.2777">
        <ele>1512.0164703756</ele>
        <time>2014-04-12T08:10:01Z</time>
      </trkpt>
      <trkpt lat="42.90665" lon="0.27769">
        <ele>1512.0164703756</ele>
        <time>2014-04-12T08:10:06Z</time>
      </trkpt>
      <trkpt lat="42.90663" lon="0.2777">
        <ele>1512.0164703756</ele>
        <time>2014-04-12T08:10:11Z</time>
      </trkpt>
      <trkpt lat="42.90661" lon="0.27767">
        <ele>1515.3179800094</ele>
        <time>2014-04-12T08:10:16Z</time>
      </trkpt>
      <trkpt lat="42.90654" lon="0.27766">
        <ele>1515.3179800094</ele>
        <time>2014-04-12T08:10:21Z</time>
      </trkpt>
      <trkpt lat="42.90648" lon="0.27769">
        <ele>1517.6611347077</ele>
        <time>2014-04-12T08:10:26Z</time>
      </trkpt>
      <trkpt lat="42.90643" lon="0.2777">
        <ele>1517.6611347077</ele>
        <time>2014-04-12T08:10:31Z</time>
      </trkpt>
      <trkpt lat="42.90641" lon="0.2777">
        <ele>1517.6611347077</ele>
        <time>2014-04-12T08:10:36Z</time>
      </trkpt>
      <trkpt lat="42.90639" lon="0.27767">
        <ele>1519.3712220157</ele>
        <time>2014-04-12T08:10:41Z</time>
      </trkpt>
      <trkpt lat="42.90636" lon="0.27768">
        <ele>1519.3712220157</ele>
        <time>2014-04-12T08:10:46Z</time>
      </trkpt>
      <trkpt lat="42.90631" lon="0.27769">
        <ele>1519.3712220157</ele>
        <time>2014-04-12T08:10:51Z</time>
      </trkpt>
      <trkpt lat="42.90628" lon="0.27771">
        <ele>1520.5033369248</ele>
        <time>2014-04-12T08:10:56Z</time>
      </trkpt>
      <trkpt lat="42.90623" lon="0.27772">
        <ele>1520.5033369248</ele>
        <time>2014-04-12T08:11:01Z</time>
      </trkpt>
      <trkpt lat="42.9062" lon="0.27775">
        <ele>1520.5033369248</ele>
        <time>2014-04-12T08:11:05Z</time>
      </trkpt>
      <trkpt lat="42.90618" lon="0.27777">
        <ele>1521.1000347405</ele>
        <time>2014-04-12T08:11:11Z</time>
      </trkpt>
      <trkpt lat="42.90617" lon="0.27775">
        <ele>1521.1000347405</ele>
        <time>2014-04-12T08:11:16Z</time>
      </trkpt>
      <trkpt lat="42.90614" lon="0.2778">
        <ele>1521.1000347405</ele>
        <time>2014-04-12T08:11:21Z</time>
      </trkpt>
      <trkpt lat="42.90612" lon="0.2778">
        <ele>1521.1000347405</ele>
        <time>2014-04-12T08:11:26Z</time>
      </trkpt>
      <trkpt lat="42.9061" lon="0.27785">
        <ele>1521.4637773017</ele>
        <time>2014-04-12T08:11:31Z</time>
      </trkpt>
      <trkpt lat="42.90608" lon="0.27787">
        <ele>1521.4637773017</ele>
        <time>2014-04-12T08:11:36Z</time>
      </trkpt>
      <trkpt lat="42.90607" lon="0.27791">
        <ele>1521.4637773017</ele>
        <time>2014-04-12T08:11:40Z</time>
      </trkpt>
      <trkpt lat="42.90603" lon="0.27796">
        <ele>1521.5136688268</ele>
        <time>2014-04-12T08:11:46Z</time>
      </trkpt>
      <trkpt lat="42.90602" lon="0.27798">
        <ele>1521.5136688268</ele>
        <time>2014-04-12T08:11:50Z</time>
      </trkpt>
      <trkpt lat="42.90596" lon="0.27798">
        <ele>1521.5136688268</ele>
        <time>2014-04-12T08:11:56Z</time>
      </trkpt>
      <trkpt lat="42.90594" lon="0.278">
        <ele>1521.4434376046</ele>
        <time>2014-04-12T08:12:00Z</time>
      </trkpt>
      <trkpt lat="42.90594" lon="0.27798">
        <ele>1521.4434376046</ele>
        <time>2014-04-12T08:12:07Z</time>
      </trkpt>
      <trkpt lat="42.90598" lon="0.27791">
        <ele>1521.4434376046</ele>
        <time>2014-04-12T08:12:11Z</time>
      </trkpt>
      <trkpt lat="42.90599" lon="0.27787">
        <ele>1521.3490176379</ele>
        <time>2014-04-12T08:12:16Z</time>
      </trkpt>
      <trkpt lat="42.90596" lon="0.27786">
        <ele>1521.3490176379</ele>
        <time>2014-04-12T08:12:21Z</time>
      </trkpt>
      <trkpt lat="42.90595" lon="0.27786">
        <ele>1521.3490176379</ele>
        <time>2014-04-12T08:12:27Z</time>
      </trkpt>
      <trkpt lat="42.90589" lon="0.27783">
        <ele>1521.3193632113</ele>
        <time>2014-04-12T08:12:31Z</time>
      </trkpt>
      <trkpt lat="42.90584" lon="0.27785">
        <ele>1521.3193632113</ele>
        <time>2014-04-12T08:12:36Z</time>
      </trkpt>
      <trkpt lat="42.90582" lon="0.27788">
        <ele>1521.3193632113</ele>
        <time>2014-04-12T08:12:41Z</time>
      </trkpt>
      <trkpt lat="42.90579" lon="0.27792">
        <ele>1521.2678501693</ele>
        <time>2014-04-12T08:12:46Z</time>
      </trkpt>
      <trkpt lat="42.90578" lon="0.27791">
        <ele>1521.2678501693</ele>
        <time>2014-04-12T08:12:51Z</time>
      </trkpt>
      <trkpt lat="42.90577" lon="0.27792">
        <ele>1521.2678501693</ele>
        <time>2014-04-12T08:12:57Z</time>
      </trkpt>
      <trkpt lat="42.90576" lon="0.27795">
        <ele>1521.2678501693</ele>
        <time>2014-04-12T08:13:01Z</time>
      </trkpt>
      <trkpt lat="42.90576" lon="0.27792">
        <ele>1521.2678501693</ele>
        <time>2014-04-12T08:13:06Z</time>
      </trkpt>
      <trkpt lat="42.90578" lon="0.27787">
        <ele>1521.2635913148</ele>
        <time>2014-04-12T08:13:11Z</time>
      </trkpt>
      <trkpt lat="42.90579" lon="0.27781">
        <ele>1521.2635913148</ele>
        <time>2014-04-12T08:13:16Z</time>
      </trkpt>
      <trkpt lat="42.90579" lon="0.27777">
        <ele>1521.2635913148</ele>
        <time>2014-04-12T08:13:21Z</time>
      </trkpt>
      <trkpt lat="42.90576" lon="0.27776">
        <ele>1521.2405584739</ele>
        <time>2014-04-12T08:13:26Z</time>
      </trkpt>
      <trkpt lat="42.90571" lon="0.27777">
        <ele>1521.2405584739</ele>
        <time>2014-04-12T08:13:31Z</time>
      </trkpt>
      <trkpt lat="42.90567" lon="0.27775">
        <ele>1521.3280706212</ele>
        <time>2014-04-12T08:13:36Z</time>
      </trkpt>
      <trkpt lat="42.90566" lon="0.27774">
        <ele>1521.3280706212</ele>
        <time>2014-04-12T08:13:41Z</time>
      </trkpt>
      <trkpt lat="42.90565" lon="0.27778">
        <ele>1521.3280706212</ele>
        <time>2014-04-12T08:13:46Z</time>
      </trkpt>
      <trkpt lat="42.90562" lon="0.2778">
        <ele>1521.3280706212</ele>
        <time>2014-04-12T08:13:51Z</time>
      </trkpt>
      <trkpt lat="42.9056" lon="0.2778">
        <ele>1521.6354640028</ele>
        <time>2014-04-12T08:13:56Z</time>
      </trkpt>
      <trkpt lat="42.90563" lon="0.27778">
        <ele>1521.6354640028</ele>
        <time>2014-04-12T08:14:01Z</time>
      </trkpt>
      <trkpt lat="42.90567" lon="0.27773">
        <ele>1521.6354640028</ele>
        <time>2014-04-12T08:14:06Z</time>
      </trkpt>
      <trkpt lat="42.90566" lon="0.27766">
        <ele>1521.8387831574</ele>
        <time>2014-04-12T08:14:11Z</time>
      </trkpt>
      <trkpt lat="42.90564" lon="0.27762">
        <ele>1521.8387831574</ele>
        <time>2014-04-12T08:14:16Z</time>
      </trkpt>
      <trkpt lat="42.90562" lon="0.27761">
        <ele>1521.8387831574</ele>
        <time>2014-04-12T08:14:20Z</time>
      </trkpt>
      <trkpt lat="42.90563" lon="0.27755">
        <ele>1521.9337017421</ele>
        <time>2014-04-12T08:14:26Z</time>
      </trkpt>
      <trkpt lat="42.90562" lon="0.27746">
        <ele>1521.9337017421</ele>
        <time>2014-04-12T08:14:31Z</time>
      </trkpt>
      <trkpt lat="42.90564" lon="0.27744">
        <ele>1521.9337017421</ele>
        <time>2014-04-12T08:14:36Z</time>
      </trkpt>
      <trkpt lat="42.90561" lon="0.27742">
        <ele>1522.0698246652</ele>
        <time>2014-04-12T08:14:41Z</time>
      </trkpt>
      <trkpt lat="42.9056" lon="0.27738">
        <ele>1522.0698246652</ele>
        <time>2014-04-12T08:14:46Z</time>
      </trkpt>
      <trkpt lat="42.90558" lon="0.27738">
        <ele>1522.0698246652</ele>
        <time>2014-04-12T08:14:51Z</time>
      </trkpt>
      <trkpt lat="42.90554" lon="0.27741">
        <ele>1522.0698246652</ele>
        <time>2014-04-12T08:14:56Z</time>
      </trkpt>
      <trkpt lat="42.90556" lon="0.27742">
        <ele>1522.5629213227</ele>
        <time>2014-04-12T08:15:01Z</time>
      </trkpt>
      <trkpt lat="42.90557" lon="0.27739">
        <ele>1522.5629213227</ele>
        <time>2014-04-12T08:15:06Z</time>
      </trkpt>
      <trkpt lat="42.90555" lon="0.27737">
        <ele>1522.5629213227</ele>
        <time>2014-04-12T08:15:11Z</time>
      </trkpt>
      <trkpt lat="42.90553" lon="0.27732">
        <ele>1522.5629213227</ele>
        <time>2014-04-12T08:15:16Z</time>
      </trkpt>
      <trkpt lat="42.90551" lon="0.27731">
        <ele>1523.1698577329</ele>
        <time>2014-04-12T08:15:21Z</time>
      </trkpt>
      <trkpt lat="42.90549" lon="0.27729">
        <ele>1523.1698577329</ele>
        <time>2014-04-12T08:15:26Z</time>
      </trkpt>
      <trkpt lat="42.90549" lon="0.27723">
        <ele>1523.1698577329</ele>
        <time>2014-04-12T08:15:31Z</time>
      </trkpt>
      <trkpt lat="42.90549" lon="0.2772">
        <ele>1523.1698577329</ele>
        <time>2014-04-12T08:15:36Z</time>
      </trkpt>
      <trkpt lat="42.90549" lon="0.27714">
        <ele>1523.7258854715</ele>
        <time>2014-04-12T08:15:40Z</time>
      </trkpt>
      <trkpt lat="42.90546" lon="0.27706">
        <ele>1523.7258854715</ele>
        <time>2014-04-12T08:15:45Z</time>
      </trkpt>
      <trkpt lat="42.90546" lon="0.277">
        <ele>1524.0943780384</ele>
        <time>2014-04-12T08:15:51Z</time>
      </trkpt>
      <trkpt lat="42.9054" lon="0.27696">
        <ele>1524.0943780384</ele>
        <time>2014-04-12T08:15:55Z</time>
      </trkpt>
      <trkpt lat="42.90537" lon="0.27691">
        <ele>1524.4132078948</ele>
        <time>2014-04-12T08:16:01Z</time>
      </trkpt>
      <trkpt lat="42.90534" lon="0.27688">
        <ele>1524.4132078948</ele>
        <time>2014-04-12T08:16:06Z</time>
      </trkpt>
      <trkpt lat="42.90534" lon="0.27685">
        <ele>1524.4132078948</ele>
        <time>2014-04-12T08:16:11Z</time>
      </trkpt>
      <trkpt lat="42.9053" lon="0.2768">
        <ele>1524.8115843219</ele>
        <time>2014-04-12T08:16:16Z</time>
      </trkpt>
      <trkpt lat="42.9053" lon="0.27678">
        <ele>1524.8115843219</ele>
        <time>2014-04-12T08:16:21Z</time>
      </trkpt>
      <trkpt lat="42.90531" lon="0.27669">
        <ele>1524.8115843219</ele>
        <time>2014-04-12T08:16:26Z</time>
      </trkpt>
      <trkpt lat="42.90532" lon="0.27665">
        <ele>1525.2584660801</ele>
        <time>2014-04-12T08:16:31Z</time>
      </trkpt>
      <trkpt lat="42.90533" lon="0.27661">
        <ele>1525.2584660801</ele>
        <time>2014-04-12T08:16:35Z</time>
      </trkpt>
      <trkpt lat="42.90531" lon="0.27652">
        <ele>1525.7262475586</ele>
        <time>2014-04-12T08:16:41Z</time>
      </trkpt>
      <trkpt lat="42.90535" lon="0.27652">
        <ele>1525.7262475586</ele>
        <time>2014-04-12T08:16:47Z</time>
      </trkpt>
      <trkpt lat="42.90539" lon="0.27646">
        <ele>1526.2325192122</ele>
        <time>2014-04-12T08:16:50Z</time>
      </trkpt>
      <trkpt lat="42.90536" lon="0.2764">
        <ele>1526.2325192122</ele>
        <time>2014-04-12T08:16:56Z</time>
      </trkpt>
      <trkpt lat="42.90535" lon="0.27637">
        <ele>1526.2325192122</ele>
        <time>2014-04-12T08:17:02Z</time>
      </trkpt>
      <trkpt lat="42.90533" lon="0.27635">
        <ele>1526.7667128066</ele>
        <time>2014-04-12T08:17:06Z</time>
      </trkpt>
      <trkpt lat="42.90529" lon="0.27629">
        <ele>1526.7667128066</ele>
        <time>2014-04-12T08:17:11Z</time>
      </trkpt>
      <trkpt lat="42.90529" lon="0.27625">
        <ele>1526.7667128066</ele>
        <time>2014-04-12T08:17:16Z</time>
      </trkpt>
      <trkpt lat="42.9053" lon="0.27624">
        <ele>1527.6480024364</ele>
        <time>2014-04-12T08:17:21Z</time>
      </trkpt>
      <trkpt lat="42.90529" lon="0.2762">
        <ele>1527.6480024364</ele>
        <time>2014-04-12T08:17:26Z</time>
      </trkpt>
      <trkpt lat="42.90529" lon="0.27615">
        <ele>1527.6480024364</ele>
        <time>2014-04-12T08:17:31Z</time>
      </trkpt>
      <trkpt lat="42.90533" lon="0.27614">
        <ele>1529.0212972842</ele>
        <time>2014-04-12T08:17:36Z</time>
      </trkpt>
      <trkpt lat="42.90533" lon="0.27606">
        <ele>1529.0212972842</ele>
        <time>2014-04-12T08:17:41Z</time>
      </trkpt>
      <trkpt lat="42.90528" lon="0.276">
        <ele>1530.5164231315</ele>
        <time>2014-04-12T08:17:46Z</time>
      </trkpt>
      <trkpt lat="42.90523" lon="0.27597">
        <ele>1530.5164231315</ele>
        <time>2014-04-12T08:17:51Z</time>
      </trkpt>
      <trkpt lat="42.9052" lon="0.27596">
        <ele>1530.5164231315</ele>
        <time>2014-04-12T08:17:56Z</time>
      </trkpt>
      <trkpt lat="42.90519" lon="0.27596">
        <ele>1530.5164231315</ele>
        <time>2014-04-12T08:18:01Z</time>
      </trkpt>
      <trkpt lat="42.9052" lon="0.27592">
        <ele>1532.4659633866</ele>
        <time>2014-04-12T08:18:06Z</time>
      </trkpt>
      <trkpt lat="42.9052" lon="0.27589">
        <ele>1532.4659633866</ele>
        <time>2014-04-12T08:18:11Z</time>
      </trkpt>
      <trkpt lat="42.90519" lon="0.27584">
        <ele>1532.4659633866</ele>
        <time>2014-04-12T08:18:16Z</time>
      </trkpt>
      <trkpt lat="42.90517" lon="0.27579">
        <ele>1534.6846614913</ele>
        <time>2014-04-12T08:18:21Z</time>
      </trkpt>
      <trkpt lat="42.90514" lon="0.27578">
        <ele>1534.6846614913</ele>
        <time>2014-04-12T08:18:26Z</time>
      </trkpt>
      <trkpt lat="42.90511" lon="0.27574">
        <ele>1534.6846614913</ele>
        <time>2014-04-12T08:18:31Z</time>
      </trkpt>
      <trkpt lat="42.9051" lon="0.27573">
        <ele>1534.6846614913</ele>
        <time>2014-04-12T08:18:36Z</time>
      </trkpt>
      <trkpt lat="42.90514" lon="0.2757">
        <ele>1537.6147593744</ele>
        <time>2014-04-12T08:18:52Z</time>
      </trkpt>
      <trkpt lat="42.90516" lon="0.27568">
        <ele>1537.6147593744</ele>
        <time>2014-04-12T08:18:55Z</time>
      </trkpt>
      <trkpt lat="42.90507" lon="0.27565">
        <ele>1541.195452948</ele>
        <time>2014-04-12T08:19:21Z</time>
      </trkpt>
      <trkpt lat="42.90508" lon="0.27565">
        <ele>1541.195452948</ele>
        <time>2014-04-12T08:19:26Z</time>
      </trkpt>
      <trkpt lat="42.90517" lon="0.27567">
        <ele>1544.6053265806</ele>
        <time>2014-04-12T08:21:15Z</time>
      </trkpt>
      <trkpt lat="42.90517" lon="0.27567">
        <ele>1544.6053265806</ele>
        <time>2014-04-12T08:21:21Z</time>
      </trkpt>
      <trkpt lat="42.9051" lon="0.27567">
        <ele>1544.6053265806</ele>
        <time>2014-04-12T08:21:36Z</time>
      </trkpt>
      <trkpt lat="42.90509" lon="0.27565">
        <ele>1547.5663370818</ele>
        <time>2014-04-12T08:21:41Z</time>
      </trkpt>
      <trkpt lat="42.90505" lon="0.27562">
        <ele>1547.5663370818</ele>
        <time>2014-04-12T08:21:46Z</time>
      </trkpt>
      <trkpt lat="42.90502" lon="0.27559">
        <ele>1547.5663370818</ele>
        <time>2014-04-12T08:21:50Z</time>
      </trkpt>
      <trkpt lat="42.90499" lon="0.27556">
        <ele>1550.1358061925</ele>
        <time>2014-04-12T08:21:56Z</time>
      </trkpt>
      <trkpt lat="42.90498" lon="0.27556">
        <ele>1550.1358061925</ele>
        <time>2014-04-12T08:22:01Z</time>
      </trkpt>
      <trkpt lat="42.90495" lon="0.27552">
        <ele>1550.1358061925</ele>
        <time>2014-04-12T08:22:06Z</time>
      </trkpt>
      <trkpt lat="42.90495" lon="0.27549">
        <ele>1550.1358061925</ele>
        <time>2014-04-12T08:22:11Z</time>
      </trkpt>
      <trkpt lat="42.90494" lon="0.27548">
        <ele>1550.1358061925</ele>
        <time>2014-04-12T08:22:17Z</time>
      </trkpt>
      <trkpt lat="42.9049" lon="0.27548">
        <ele>1552.3248209224</ele>
        <time>2014-04-12T08:22:20Z</time>
      </trkpt>
      <trkpt lat="42.90487" lon="0.2755">
        <ele>1552.3248209224</ele>
        <time>2014-04-12T08:22:26Z</time>
      </trkpt>
      <trkpt lat="42.90486" lon="0.27551">
        <ele>1552.3248209224</ele>
        <time>2014-04-12T08:22:31Z</time>
      </trkpt>
      <trkpt lat="42.90485" lon="0.27552">
        <ele>1552.3248209224</ele>
        <time>2014-04-12T08:22:36Z</time>
      </trkpt>
      <trkpt lat="42.90479" lon="0.27553">
        <ele>1554.3722128356</ele>
        <time>2014-04-12T08:22:46Z</time>
      </trkpt>
      <trkpt lat="42.90477" lon="0.2755">
        <ele>1554.3722128356</ele>
        <time>2014-04-12T08:22:51Z</time>
      </trkpt>
      <trkpt lat="42.90476" lon="0.27546">
        <ele>1554.3722128356</ele>
        <time>2014-04-12T08:22:56Z</time>
      </trkpt>
      <trkpt lat="42.90475" lon="0.27547">
        <ele>1554.3722128356</ele>
        <time>2014-04-12T08:23:01Z</time>
      </trkpt>
      <trkpt lat="42.90471" lon="0.27544">
        <ele>1556.2745891425</ele>
        <time>2014-04-12T08:23:11Z</time>
      </trkpt>
      <trkpt lat="42.90467" lon="0.2755">
        <ele>1556.2745891425</ele>
        <time>2014-04-12T08:23:17Z</time>
      </trkpt>
      <trkpt lat="42.90463" lon="0.27554">
        <ele>1558.0295592041</ele>
        <time>2014-04-12T08:23:21Z</time>
      </trkpt>
      <trkpt lat="42.90463" lon="0.27554">
        <ele>1558.0295592041</ele>
        <time>2014-04-12T08:23:26Z</time>
      </trkpt>
      <trkpt lat="42.90458" lon="0.2755">
        <ele>1558.0295592041</ele>
        <time>2014-04-12T08:23:37Z</time>
      </trkpt>
      <trkpt lat="42.90457" lon="0.27546">
        <ele>1558.0295592041</ele>
        <time>2014-04-12T08:23:41Z</time>
      </trkpt>
      <trkpt lat="42.90457" lon="0.27541">
        <ele>1559.5299363613</ele>
        <time>2014-04-12T08:23:46Z</time>
      </trkpt>
      <trkpt lat="42.90456" lon="0.27539">
        <ele>1559.5299363613</ele>
        <time>2014-04-12T08:23:51Z</time>
      </trkpt>
      <trkpt lat="42.90455" lon="0.27535">
        <ele>1559.5299363613</ele>
        <time>2014-04-12T08:23:56Z</time>
      </trkpt>
      <trkpt lat="42.90453" lon="0.27531">
        <ele>1559.5299363613</ele>
        <time>2014-04-12T08:24:01Z</time>
      </trkpt>
      <trkpt lat="42.90453" lon="0.27528">
        <ele>1560.798643048</ele>
        <time>2014-04-12T08:24:07Z</time>
      </trkpt>
      <trkpt lat="42.90452" lon="0.27525">
        <ele>1560.798643048</ele>
        <time>2014-04-12T08:24:11Z</time>
      </trkpt>
      <trkpt lat="42.90453" lon="0.27522">
        <ele>1560.798643048</ele>
        <time>2014-04-12T08:24:16Z</time>
      </trkpt>
      <trkpt lat="42.90454" lon="0.27517">
        <ele>1560.798643048</ele>
        <time>2014-04-12T08:24:21Z</time>
      </trkpt>
      <trkpt lat="42.90453" lon="0.27516">
        <ele>1561.9180604895</ele>
        <time>2014-04-12T08:24:26Z</time>
      </trkpt>
      <trkpt lat="42.9045" lon="0.2751">
        <ele>1561.9180604895</ele>
        <time>2014-04-12T08:24:31Z</time>
      </trkpt>
      <trkpt lat="42.90451" lon="0.27505">
        <ele>1561.9180604895</ele>
        <time>2014-04-12T08:24:36Z</time>
      </trkpt>
      <trkpt lat="42.9045" lon="0.27504">
        <ele>1562.8891987024</ele>
        <time>2014-04-12T08:24:41Z</time>
      </trkpt>
      <trkpt lat="42.90452" lon="0.27499">
        <ele>1562.8891987024</ele>
        <time>2014-04-12T08:24:46Z</time>
      </trkpt>
      <trkpt lat="42.90451" lon="0.27499">
        <ele>1562.8891987024</ele>
        <time>2014-04-12T08:24:51Z</time>
      </trkpt>
      <trkpt lat="42.90446" lon="0.27492">
        <ele>1563.8486358115</ele>
        <time>2014-04-12T08:25:01Z</time>
      </trkpt>
      <trkpt lat="42.90445" lon="0.27491">
        <ele>1563.8486358115</ele>
        <time>2014-04-12T08:25:06Z</time>
      </trkpt>
      <trkpt lat="42.90444" lon="0.27492">
        <ele>1563.8486358115</ele>
        <time>2014-04-12T08:25:11Z</time>
      </trkpt>
      <trkpt lat="42.90444" lon="0.27492">
        <ele>1563.8486358115</ele>
        <time>2014-04-12T08:25:16Z</time>
      </trkpt>
      <trkpt lat="42.90445" lon="0.27493">
        <ele>1563.8486358115</ele>
        <time>2014-04-12T08:25:21Z</time>
      </trkpt>
      <trkpt lat="42.90443" lon="0.27491">
        <ele>1563.8486358115</ele>
        <time>2014-04-12T08:25:27Z</time>
      </trkpt>
      <trkpt lat="42.90442" lon="0.27493">
        <ele>1563.8486358115</ele>
        <time>2014-04-12T08:25:31Z</time>
      </trkpt>
      <trkpt lat="42.9044" lon="0.27493">
        <ele>1564.9215328871</ele>
        <time>2014-04-12T08:25:36Z</time>
      </trkpt>
      <trkpt lat="42.90438" lon="0.27498">
        <ele>1564.9215328871</ele>
        <time>2014-04-12T08:25:41Z</time>
      </trkpt>
      <trkpt lat="42.90435" lon="0.27502">
        <ele>1564.9215328871</ele>
        <time>2014-04-12T08:25:46Z</time>
      </trkpt>
      <trkpt lat="42.90433" lon="0.27503">
        <ele>1566.0274671853</ele>
        <time>2014-04-12T08:25:52Z</time>
      </trkpt>
      <trkpt lat="42.9043" lon="0.27499">
        <ele>1566.0274671853</ele>
        <time>2014-04-12T08:26:01Z</time>
      </trkpt>
      <trkpt lat="42.90428" lon="0.27497">
        <ele>1566.0274671853</ele>
        <time>2014-04-12T08:26:06Z</time>
      </trkpt>
      <trkpt lat="42.90427" lon="0.27495">
        <ele>1566.0274671853</ele>
        <time>2014-04-12T08:26:11Z</time>
      </trkpt>
      <trkpt lat="42.90425" lon="0.27493">
        <ele>1567.0327111314</ele>
        <time>2014-04-12T08:26:16Z</time>
      </trkpt>
      <trkpt lat="42.90423" lon="0.27487">
        <ele>1567.0327111314</ele>
        <time>2014-04-12T08:26:21Z</time>
      </trkpt>
      <trkpt lat="42.90421" lon="0.27482">
        <ele>1567.0327111314</ele>
        <time>2014-04-12T08:26:26Z</time>
      </trkpt>
      <trkpt lat="42.90419" lon="0.27479">
        <ele>1567.9043004964</ele>
        <time>2014-04-12T08:26:31Z</time>
      </trkpt>
      <trkpt lat="42.9042" lon="0.27475">
        <ele>1567.9043004964</ele>
        <time>2014-04-12T08:26:36Z</time>
      </trkpt>
      <trkpt lat="42.90418" lon="0.27472">
        <ele>1567.9043004964</ele>
        <time>2014-04-12T08:26:42Z</time>
      </trkpt>
      <trkpt lat="42.90417" lon="0.2747">
        <ele>1567.9043004964</ele>
        <time>2014-04-12T08:26:46Z</time>
      </trkpt>
      <trkpt lat="42.90417" lon="0.27465">
        <ele>1568.6865930243</ele>
        <time>2014-04-12T08:26:51Z</time>
      </trkpt>
      <trkpt lat="42.90417" lon="0.27461">
        <ele>1568.6865930243</ele>
        <time>2014-04-12T08:26:56Z</time>
      </trkpt>
      <trkpt lat="42.90418" lon="0.27455">
        <ele>1568.6865930243</ele>
        <time>2014-04-12T08:27:00Z</time>
      </trkpt>
      <trkpt lat="42.90417" lon="0.27449">
        <ele>1569.3462264648</ele>
        <time>2014-04-12T08:27:06Z</time>
      </trkpt>
      <trkpt lat="42.90418" lon="0.27445">
        <ele>1569.3462264648</ele>
        <time>2014-04-12T08:27:11Z</time>
      </trkpt>
      <trkpt lat="42.90418" lon="0.27443">
        <ele>1569.3462264648</ele>
        <time>2014-04-12T08:27:15Z</time>
      </trkpt>
      <trkpt lat="42.90419" lon="0.27438">
        <ele>1569.3462264648</ele>
        <time>2014-04-12T08:27:21Z</time>
      </trkpt>
      <trkpt lat="42.90417" lon="0.27434">
        <ele>1570.0745812986</ele>
        <time>2014-04-12T08:27:26Z</time>
      </trkpt>
      <trkpt lat="42.90415" lon="0.27431">
        <ele>1570.0745812986</ele>
        <time>2014-04-12T08:27:31Z</time>
      </trkpt>
      <trkpt lat="42.90414" lon="0.27429">
        <ele>1570.0745812986</ele>
        <time>2014-04-12T08:27:36Z</time>
      </trkpt>
      <trkpt lat="42.90413" lon="0.27428">
        <ele>1570.0745812986</ele>
        <time>2014-04-12T08:27:41Z</time>
      </trkpt>
      <trkpt lat="42.90407" lon="0.27423">
        <ele>1570.9434454317</ele>
        <time>2014-04-12T08:28:01Z</time>
      </trkpt>
      <trkpt lat="42.90406" lon="0.2742">
        <ele>1570.9434454317</ele>
        <time>2014-04-12T08:28:05Z</time>
      </trkpt>
      <trkpt lat="42.90404" lon="0.27416">
        <ele>1570.9434454317</ele>
        <time>2014-04-12T08:28:11Z</time>
      </trkpt>
      <trkpt lat="42.90401" lon="0.27412">
        <ele>1571.7386207628</ele>
        <time>2014-04-12T08:28:16Z</time>
      </trkpt>
      <trkpt lat="42.90403" lon="0.27407">
        <ele>1571.7386207628</ele>
        <time>2014-04-12T08:28:21Z</time>
      </trkpt>
      <trkpt lat="42.90404" lon="0.27405">
        <ele>1571.7386207628</ele>
        <time>2014-04-12T08:28:26Z</time>
      </trkpt>
      <trkpt lat="42.90404" lon="0.27402">
        <ele>1571.7386207628</ele>
        <time>2014-04-12T08:28:31Z</time>
      </trkpt>
      <trkpt lat="42.90402" lon="0.274">
        <ele>1572.4839710789</ele>
        <time>2014-04-12T08:28:36Z</time>
      </trkpt>
      <trkpt lat="42.904" lon="0.27399">
        <ele>1572.4839710789</ele>
        <time>2014-04-12T08:28:41Z</time>
      </trkpt>
      <trkpt lat="42.90397" lon="0.27398">
        <ele>1572.4839710789</ele>
        <time>2014-04-12T08:28:46Z</time>
      </trkpt>
      <trkpt lat="42.90395" lon="0.27397">
        <ele>1572.4839710789</ele>
        <time>2014-04-12T08:28:51Z</time>
      </trkpt>
      <trkpt lat="42.90395" lon="0.27392">
        <ele>1573.3332284941</ele>
        <time>2014-04-12T08:28:56Z</time>
      </trkpt>
      <trkpt lat="42.90395" lon="0.27391">
        <ele>1573.3332284941</ele>
        <time>2014-04-12T08:29:01Z</time>
      </trkpt>
      <trkpt lat="42.90394" lon="0.27393">
        <ele>1573.3332284941</ele>
        <time>2014-04-12T08:29:12Z</time>
      </trkpt>
      <trkpt lat="42.90394" lon="0.27393">
        <ele>1573.3332284941</ele>
        <time>2014-04-12T08:29:16Z</time>
      </trkpt>
      <trkpt lat="42.90386" lon="0.27391">
        <ele>1574.3540927121</ele>
        <time>2014-04-12T08:29:21Z</time>
      </trkpt>
      <trkpt lat="42.90382" lon="0.27389">
        <ele>1574.3540927121</ele>
        <time>2014-04-12T08:29:26Z</time>
      </trkpt>
      <trkpt lat="42.90381" lon="0.27389">
        <ele>1574.3540927121</ele>
        <time>2014-04-12T08:29:30Z</time>
      </trkpt>
      <trkpt lat="42.9038" lon="0.27386">
        <ele>1574.3540927121</ele>
        <time>2014-04-12T08:29:36Z</time>
      </trkpt>
      <trkpt lat="42.9038" lon="0.27385">
        <ele>1574.3540927121</ele>
        <time>2014-04-12T08:29:41Z</time>
      </trkpt>
      <trkpt lat="42.9038" lon="0.27381">
        <ele>1575.3748427338</ele>
        <time>2014-04-12T08:29:46Z</time>
      </trkpt>
      <trkpt lat="42.9038" lon="0.27379">
        <ele>1575.3748427338</ele>
        <time>2014-04-12T08:29:51Z</time>
      </trkpt>
      <trkpt lat="42.90379" lon="0.27372">
        <ele>1575.3748427338</ele>
        <time>2014-04-12T08:29:56Z</time>
      </trkpt>
      <trkpt lat="42.90377" lon="0.2737">
        <ele>1576.3540888472</ele>
        <time>2014-04-12T08:30:01Z</time>
      </trkpt>
      <trkpt lat="42.90377" lon="0.27369">
        <ele>1576.3540888472</ele>
        <time>2014-04-12T08:30:06Z</time>
      </trkpt>
      <trkpt lat="42.90365" lon="0.27368">
        <ele>1578.0099735389</ele>
        <time>2014-04-12T08:30:51Z</time>
      </trkpt>
      <trkpt lat="42.90362" lon="0.27367">
        <ele>1578.0099735389</ele>
        <time>2014-04-12T08:30:56Z</time>
      </trkpt>
      <trkpt lat="42.90351" lon="0.27367">
        <ele>1579.5642744977</ele>
        <time>2014-04-12T08:31:01Z</time>
      </trkpt>
      <trkpt lat="42.90349" lon="0.27366">
        <ele>1579.5642744977</ele>
        <time>2014-04-12T08:31:06Z</time>
      </trkpt>
      <trkpt lat="42.90347" lon="0.27363">
        <ele>1579.5642744977</ele>
        <time>2014-04-12T08:31:11Z</time>
      </trkpt>
      <trkpt lat="42.90344" lon="0.27355">
        <ele>1581.1270839894</ele>
        <time>2014-04-12T08:31:16Z</time>
      </trkpt>
      <trkpt lat="42.90342" lon="0.27352">
        <ele>1581.1270839894</ele>
        <time>2014-04-12T08:31:21Z</time>
      </trkpt>
      <trkpt lat="42.90341" lon="0.27348">
        <ele>1581.1270839894</ele>
        <time>2014-04-12T08:31:26Z</time>
      </trkpt>
      <trkpt lat="42.9034" lon="0.27346">
        <ele>1581.1270839894</ele>
        <time>2014-04-12T08:31:31Z</time>
      </trkpt>
      <trkpt lat="42.9034" lon="0.27346">
        <ele>1581.1270839894</ele>
        <time>2014-04-12T08:31:36Z</time>
      </trkpt>
      <trkpt lat="42.90341" lon="0.27339">
        <ele>1582.7852639615</ele>
        <time>2014-04-12T08:31:41Z</time>
      </trkpt>
      <trkpt lat="42.90341" lon="0.27336">
        <ele>1582.7852639615</ele>
        <time>2014-04-12T08:31:45Z</time>
      </trkpt>
      <trkpt lat="42.90342" lon="0.27333">
        <ele>1582.7852639615</ele>
        <time>2014-04-12T08:31:51Z</time>
      </trkpt>
      <trkpt lat="42.90341" lon="0.27329">
        <ele>1582.7852639615</ele>
        <time>2014-04-12T08:31:56Z</time>
      </trkpt>
      <trkpt lat="42.90342" lon="0.27326">
        <ele>1584.4883608736</ele>
        <time>2014-04-12T08:32:01Z</time>
      </trkpt>
      <trkpt lat="42.90339" lon="0.27324">
        <ele>1584.4883608736</ele>
        <time>2014-04-12T08:32:06Z</time>
      </trkpt>
      <trkpt lat="42.90338" lon="0.27321">
        <ele>1584.4883608736</ele>
        <time>2014-04-12T08:32:11Z</time>
      </trkpt>
      <trkpt lat="42.90336" lon="0.2732">
        <ele>1584.4883608736</ele>
        <time>2014-04-12T08:32:16Z</time>
      </trkpt>
      <trkpt lat="42.90334" lon="0.27315">
        <ele>1586.3776276063</ele>
        <time>2014-04-12T08:32:21Z</time>
      </trkpt>
      <trkpt lat="42.90333" lon="0.27312">
        <ele>1586.3776276063</ele>
        <time>2014-04-12T08:32:26Z</time>
      </trkpt>
      <trkpt lat="42.90334" lon="0.27309">
        <ele>1586.3776276063</ele>
        <time>2014-04-12T08:32:31Z</time>
      </trkpt>
      <trkpt lat="42.90332" lon="0.27305">
        <ele>1586.3776276063</ele>
        <time>2014-04-12T08:32:36Z</time>
      </trkpt>
      <trkpt lat="42.9033" lon="0.27302">
        <ele>1588.2795050939</ele>
        <time>2014-04-12T08:32:41Z</time>
      </trkpt>
      <trkpt lat="42.9033" lon="0.27299">
        <ele>1588.2795050939</ele>
        <time>2014-04-12T08:32:46Z</time>
      </trkpt>
      <trkpt lat="42.90329" lon="0.27295">
        <ele>1588.2795050939</ele>
        <time>2014-04-12T08:32:51Z</time>
      </trkpt>
      <trkpt lat="42.90329" lon="0.27292">
        <ele>1588.2795050939</ele>
        <time>2014-04-12T08:32:55Z</time>
      </trkpt>
      <trkpt lat="42.90328" lon="0.27291">
        <ele>1590.1635281661</ele>
        <time>2014-04-12T08:33:01Z</time>
      </trkpt>
      <trkpt lat="42.90326" lon="0.27286">
        <ele>1590.1635281661</ele>
        <time>2014-04-12T08:33:06Z</time>
      </trkpt>
      <trkpt lat="42.90327" lon="0.27283">
        <ele>1590.1635281661</ele>
        <time>2014-04-12T08:33:11Z</time>
      </trkpt>
      <trkpt lat="42.90327" lon="0.27277">
        <ele>1592.3335192813</ele>
        <time>2014-04-12T08:33:16Z</time>
      </trkpt>
      <trkpt lat="42.90319" lon="0.27271">
        <ele>1592.3335192813</ele>
        <time>2014-04-12T08:33:31Z</time>
      </trkpt>
      <trkpt lat="42.90319" lon="0.27268">
        <ele>1594.9109281413</ele>
        <time>2014-04-12T08:33:36Z</time>
      </trkpt>
      <trkpt lat="42.90321" lon="0.27266">
        <ele>1594.9109281413</ele>
        <time>2014-04-12T08:33:43Z</time>
      </trkpt>
      <trkpt lat="42.90322" lon="0.27259">
        <ele>1594.9109281413</ele>
        <time>2014-04-12T08:33:45Z</time>
      </trkpt>
      <trkpt lat="42.90322" lon="0.27255">
        <ele>1598.2090057826</ele>
        <time>2014-04-12T08:33:51Z</time>
      </trkpt>
      <trkpt lat="42.90321" lon="0.27255">
        <ele>1598.2090057826</ele>
        <time>2014-04-12T08:33:56Z</time>
      </trkpt>
      <trkpt lat="42.9032" lon="0.27255">
        <ele>1598.2090057826</ele>
        <time>2014-04-12T08:34:01Z</time>
      </trkpt>
      <trkpt lat="42.90318" lon="0.27257">
        <ele>1598.2090057826</ele>
        <time>2014-04-12T08:34:06Z</time>
      </trkpt>
      <trkpt lat="42.90315" lon="0.27256">
        <ele>1598.2090057826</ele>
        <time>2014-04-12T08:34:11Z</time>
      </trkpt>
      <trkpt lat="42.90313" lon="0.27257">
        <ele>1602.458086436</ele>
        <time>2014-04-12T08:34:16Z</time>
      </trkpt>
      <trkpt lat="42.9031" lon="0.27258">
        <ele>1602.458086436</ele>
        <time>2014-04-12T08:34:21Z</time>
      </trkpt>
      <trkpt lat="42.90308" lon="0.27257">
        <ele>1602.458086436</ele>
        <time>2014-04-12T08:34:26Z</time>
      </trkpt>
      <trkpt lat="42.90308" lon="0.27258">
        <ele>1602.458086436</ele>
        <time>2014-04-12T08:34:31Z</time>
      </trkpt>
      <trkpt lat="42.903" lon="0.27259">
        <ele>1607.1479084794</ele>
        <time>2014-04-12T08:34:36Z</time>
      </trkpt>
      <trkpt lat="42.90293" lon="0.27261">
        <ele>1607.1479084794</ele>
        <time>2014-04-12T08:34:41Z</time>
      </trkpt>
      <trkpt lat="42.90292" lon="0.27257">
        <ele>1611.7615842965</ele>
        <time>2014-04-12T08:34:46Z</time>
      </trkpt>
      <trkpt lat="42.90289" lon="0.27252">
        <ele>1611.7615842965</ele>
        <time>2014-04-12T08:34:51Z</time>
      </trkpt>
      <trkpt lat="42.90284" lon="0.27252">
        <ele>1616.1521984433</ele>
        <time>2014-04-12T08:34:55Z</time>
      </trkpt>
      <trkpt lat="42.90282" lon="0.27248">
        <ele>1616.1521984433</ele>
        <time>2014-04-12T08:35:02Z</time>
      </trkpt>
      <trkpt lat="42.90282" lon="0.27247">
        <ele>1616.1521984433</ele>
        <time>2014-04-12T08:35:05Z</time>
      </trkpt>
      <trkpt lat="42.90276" lon="0.27246">
        <ele>1620.5591074896</ele>
        <time>2014-04-12T08:35:12Z</time>
      </trkpt>
      <trkpt lat="42.90276" lon="0.27243">
        <ele>1620.5591074896</ele>
        <time>2014-04-12T08:35:16Z</time>
      </trkpt>
      <trkpt lat="42.90271" lon="0.27238">
        <ele>1620.5591074896</ele>
        <time>2014-04-12T08:35:21Z</time>
      </trkpt>
      <trkpt lat="42.90268" lon="0.27235">
        <ele>1624.8291749167</ele>
        <time>2014-04-12T08:35:26Z</time>
      </trkpt>
      <trkpt lat="42.90267" lon="0.27235">
        <ele>1624.8291749167</ele>
        <time>2014-04-12T08:35:30Z</time>
      </trkpt>
      <trkpt lat="42.90265" lon="0.27234">
        <ele>1624.8291749167</ele>
        <time>2014-04-12T08:35:36Z</time>
      </trkpt>
      <trkpt lat="42.90265" lon="0.27232">
        <ele>1624.8291749167</ele>
        <time>2014-04-12T08:35:40Z</time>
      </trkpt>
      <trkpt lat="42.90261" lon="0.27231">
        <ele>1629.2102341721</ele>
        <time>2014-04-12T08:35:46Z</time>
      </trkpt>
      <trkpt lat="42.90259" lon="0.27234">
        <ele>1629.2102341721</ele>
        <time>2014-04-12T08:35:51Z</time>
      </trkpt>
      <trkpt lat="42.90258" lon="0.27236">
        <ele>1629.2102341721</ele>
        <time>2014-04-12T08:35:56Z</time>
      </trkpt>
      <trkpt lat="42.90258" lon="0.2724">
        <ele>1629.2102341721</ele>
        <time>2014-04-12T08:36:01Z</time>
      </trkpt>
      <trkpt lat="42.90255" lon="0.27243">
        <ele>1633.7154203227</ele>
        <time>2014-04-12T08:36:06Z</time>
      </trkpt>
      <trkpt lat="42.9025" lon="0.27243">
        <ele>1633.7154203227</ele>
        <time>2014-04-12T08:36:11Z</time>
      </trkpt>
      <trkpt lat="42.90248" lon="0.27245">
        <ele>1633.7154203227</ele>
        <time>2014-04-12T08:36:15Z</time>
      </trkpt>
      <trkpt lat="42.90248" lon="0.27246">
        <ele>1633.7154203227</ele>
        <time>2014-04-12T08:36:22Z</time>
      </trkpt>
      <trkpt lat="42.90249" lon="0.27247">
        <ele>1638.2557289707</ele>
        <time>2014-04-12T08:36:26Z</time>
      </trkpt>
      <trkpt lat="42.90246" lon="0.27247">
        <ele>1638.2557289707</ele>
        <time>2014-04-12T08:36:32Z</time>
      </trkpt>
      <trkpt lat="42.90243" lon="0.27248">
        <ele>1638.2557289707</ele>
        <time>2014-04-12T08:36:36Z</time>
      </trkpt>
      <trkpt lat="42.9024" lon="0.27249">
        <ele>1642.9217503961</ele>
        <time>2014-04-12T08:36:41Z</time>
      </trkpt>
      <trkpt lat="42.90234" lon="0.27249">
        <ele>1642.9217503961</ele>
        <time>2014-04-12T08:36:46Z</time>
      </trkpt>
      <trkpt lat="42.90231" lon="0.27248">
        <ele>1642.9217503961</ele>
        <time>2014-04-12T08:36:51Z</time>
      </trkpt>
      <trkpt lat="42.90226" lon="0.27248">
        <ele>1647.3934309468</ele>
        <time>2014-04-12T08:36:56Z</time>
      </trkpt>
      <trkpt lat="42.9022" lon="0.27247">
        <ele>1647.3934309468</ele>
        <time>2014-04-12T08:37:01Z</time>
      </trkpt>
      <trkpt lat="42.90214" lon="0.27244">
        <ele>1651.5767920623</ele>
        <time>2014-04-12T08:37:06Z</time>
      </trkpt>
      <trkpt lat="42.90211" lon="0.27239">
        <ele>1651.5767920623</ele>
        <time>2014-04-12T08:37:11Z</time>
      </trkpt>
      <trkpt lat="42.90208" lon="0.27237">
        <ele>1651.5767920623</ele>
        <time>2014-04-12T08:37:16Z</time>
      </trkpt>
      <trkpt lat="42.90205" lon="0.27235">
        <ele>1655.6597617774</ele>
        <time>2014-04-12T08:37:21Z</time>
      </trkpt>
      <trkpt lat="42.90209" lon="0.2723">
        <ele>1655.6597617774</ele>
        <time>2014-04-12T08:37:26Z</time>
      </trkpt>
      <trkpt lat="42.90206" lon="0.27227">
        <ele>1655.6597617774</ele>
        <time>2014-04-12T08:37:32Z</time>
      </trkpt>
      <trkpt lat="42.90203" lon="0.27227">
        <ele>1659.8313730036</ele>
        <time>2014-04-12T08:37:36Z</time>
      </trkpt>
      <trkpt lat="42.90199" lon="0.27226">
        <ele>1659.8313730036</ele>
        <time>2014-04-12T08:37:41Z</time>
      </trkpt>
      <trkpt lat="42.90194" lon="0.27227">
        <ele>1659.8313730036</ele>
        <time>2014-04-12T08:37:46Z</time>
      </trkpt>
      <trkpt lat="42.90192" lon="0.27224">
        <ele>1663.8195873565</ele>
        <time>2014-04-12T08:37:51Z</time>
      </trkpt>
      <trkpt lat="42.9019" lon="0.27222">
        <ele>1663.8195873565</ele>
        <time>2014-04-12T08:37:56Z</time>
      </trkpt>
      <trkpt lat="42.90187" lon="0.27221">
        <ele>1663.8195873565</ele>
        <time>2014-04-12T08:38:01Z</time>
      </trkpt>
      <trkpt lat="42.90184" lon="0.27221">
        <ele>1663.8195873565</ele>
        <time>2014-04-12T08:38:06Z</time>
      </trkpt>
      <trkpt lat="42.9018" lon="0.27218">
        <ele>1667.7192238997</ele>
        <time>2014-04-12T08:38:11Z</time>
      </trkpt>
      <trkpt lat="42.90177" lon="0.27216">
        <ele>1667.7192238997</ele>
        <time>2014-04-12T08:38:16Z</time>
      </trkpt>
      <trkpt lat="42.90171" lon="0.27214">
        <ele>1671.3877935695</ele>
        <time>2014-04-12T08:38:20Z</time>
      </trkpt>
      <trkpt lat="42.90168" lon="0.27213">
        <ele>1671.3877935695</ele>
        <time>2014-04-12T08:38:26Z</time>
      </trkpt>
      <trkpt lat="42.90167" lon="0.2721">
        <ele>1671.3877935695</ele>
        <time>2014-04-12T08:38:31Z</time>
      </trkpt>
      <trkpt lat="42.90166" lon="0.27207">
        <ele>1671.3877935695</ele>
        <time>2014-04-12T08:38:37Z</time>
      </trkpt>
      <trkpt lat="42.90165" lon="0.27206">
        <ele>1674.9104905989</ele>
        <time>2014-04-12T08:38:40Z</time>
      </trkpt>
      <trkpt lat="42.90161" lon="0.27202">
        <ele>1674.9104905989</ele>
        <time>2014-04-12T08:38:47Z</time>
      </trkpt>
      <trkpt lat="42.9016" lon="0.27197">
        <ele>1674.9104905989</ele>
        <time>2014-04-12T08:38:51Z</time>
      </trkpt>
      <trkpt lat="42.90161" lon="0.27194">
        <ele>1678.1216364391</ele>
        <time>2014-04-12T08:38:56Z</time>
      </trkpt>
      <trkpt lat="42.90154" lon="0.27191">
        <ele>1678.1216364391</ele>
        <time>2014-04-12T08:39:02Z</time>
      </trkpt>
      <trkpt lat="42.9015" lon="0.27185">
        <ele>1681.1572869848</ele>
        <time>2014-04-12T08:39:06Z</time>
      </trkpt>
      <trkpt lat="42.90148" lon="0.27184">
        <ele>1681.1572869848</ele>
        <time>2014-04-12T08:39:11Z</time>
      </trkpt>
      <trkpt lat="42.90149" lon="0.27181">
        <ele>1681.1572869848</ele>
        <time>2014-04-12T08:39:16Z</time>
      </trkpt>
      <trkpt lat="42.90151" lon="0.2718">
        <ele>1681.1572869848</ele>
        <time>2014-04-12T08:39:21Z</time>
      </trkpt>
      <trkpt lat="42.90152" lon="0.27179">
        <ele>1681.1572869848</ele>
        <time>2014-04-12T08:39:35Z</time>
      </trkpt>
      <trkpt lat="42.90151" lon="0.2718">
        <ele>1685.4423107126</ele>
        <time>2014-04-12T08:39:40Z</time>
      </trkpt>
      <trkpt lat="42.90153" lon="0.2718">
        <ele>1685.4423107126</ele>
        <time>2014-04-12T08:41:40Z</time>
      </trkpt>
      <trkpt lat="42.90153" lon="0.2718">
        <ele>1685.4423107126</ele>
        <time>2014-04-12T08:41:45Z</time>
      </trkpt>
      <trkpt lat="42.90147" lon="0.27173">
        <ele>1689.7115471114</ele>
        <time>2014-04-12T08:42:26Z</time>
      </trkpt>
      <trkpt lat="42.90146" lon="0.2717">
        <ele>1689.7115471114</ele>
        <time>2014-04-12T08:42:31Z</time>
      </trkpt>
      <trkpt lat="42.90144" lon="0.27165">
        <ele>1689.7115471114</ele>
        <time>2014-04-12T08:42:36Z</time>
      </trkpt>
      <trkpt lat="42.90141" lon="0.2716">
        <ele>1693.4566393376</ele>
        <time>2014-04-12T08:42:41Z</time>
      </trkpt>
      <trkpt lat="42.90139" lon="0.27155">
        <ele>1693.4566393376</ele>
        <time>2014-04-12T08:42:46Z</time>
      </trkpt>
      <trkpt lat="42.90138" lon="0.27153">
        <ele>1693.4566393376</ele>
        <time>2014-04-12T08:42:51Z</time>
      </trkpt>
      <trkpt lat="42.90137" lon="0.27148">
        <ele>1696.7996315718</ele>
        <time>2014-04-12T08:42:56Z</time>
      </trkpt>
      <trkpt lat="42.90134" lon="0.27144">
        <ele>1696.7996315718</ele>
        <time>2014-04-12T08:43:01Z</time>
      </trkpt>
      <trkpt lat="42.90134" lon="0.27139">
        <ele>1696.7996315718</ele>
        <time>2014-04-12T08:43:06Z</time>
      </trkpt>
      <trkpt lat="42.90132" lon="0.27134">
        <ele>1699.7971919443</ele>
        <time>2014-04-12T08:43:11Z</time>
      </trkpt>
      <trkpt lat="42.90132" lon="0.27131">
        <ele>1699.7971919443</ele>
        <time>2014-04-12T08:43:16Z</time>
      </trkpt>
      <trkpt lat="42.90132" lon="0.27128">
        <ele>1699.7971919443</ele>
        <time>2014-04-12T08:43:21Z</time>
      </trkpt>
      <trkpt lat="42.9013" lon="0.27122">
        <ele>1702.4308383912</ele>
        <time>2014-04-12T08:43:26Z</time>
      </trkpt>
      <trkpt lat="42.90128" lon="0.27117">
        <ele>1702.4308383912</ele>
        <time>2014-04-12T08:43:31Z</time>
      </trkpt>
      <trkpt lat="42.90128" lon="0.27114">
        <ele>1702.4308383912</ele>
        <time>2014-04-12T08:43:36Z</time>
      </trkpt>
      <trkpt lat="42.90125" lon="0.27109">
        <ele>1704.7423002576</ele>
        <time>2014-04-12T08:43:40Z</time>
      </trkpt>
      <trkpt lat="42.90125" lon="0.27103">
        <ele>1704.7423002576</ele>
        <time>2014-04-12T08:43:45Z</time>
      </trkpt>
      <trkpt lat="42.90123" lon="0.27099">
        <ele>1704.7423002576</ele>
        <time>2014-04-12T08:43:51Z</time>
      </trkpt>
      <trkpt lat="42.90123" lon="0.27095">
        <ele>1706.6991710121</ele>
        <time>2014-04-12T08:43:56Z</time>
      </trkpt>
      <trkpt lat="42.90123" lon="0.27093">
        <ele>1706.6991710121</ele>
        <time>2014-04-12T08:44:01Z</time>
      </trkpt>
      <trkpt lat="42.90124" lon="0.2709">
        <ele>1706.6991710121</ele>
        <time>2014-04-12T08:44:06Z</time>
      </trkpt>
      <trkpt lat="42.90121" lon="0.27086">
        <ele>1706.6991710121</ele>
        <time>2014-04-12T08:44:11Z</time>
      </trkpt>
      <trkpt lat="42.90121" lon="0.27081">
        <ele>1708.4167306964</ele>
        <time>2014-04-12T08:44:16Z</time>
      </trkpt>
      <trkpt lat="42.90121" lon="0.27077">
        <ele>1708.4167306964</ele>
        <time>2014-04-12T08:44:21Z</time>
      </trkpt>
      <trkpt lat="42.9012" lon="0.27072">
        <ele>1708.4167306964</ele>
        <time>2014-04-12T08:44:26Z</time>
      </trkpt>
      <trkpt lat="42.9012" lon="0.2707">
        <ele>1708.4167306964</ele>
        <time>2014-04-12T08:44:31Z</time>
      </trkpt>
      <trkpt lat="42.9012" lon="0.27065">
        <ele>1709.90160922</ele>
        <time>2014-04-12T08:44:36Z</time>
      </trkpt>
      <trkpt lat="42.90118" lon="0.27059">
        <ele>1709.90160922</ele>
        <time>2014-04-12T08:44:41Z</time>
      </trkpt>
      <trkpt lat="42.90118" lon="0.27055">
        <ele>1709.90160922</ele>
        <time>2014-04-12T08:44:46Z</time>
      </trkpt>
      <trkpt lat="42.90119" lon="0.2705">
        <ele>1711.2039328648</ele>
        <time>2014-04-12T08:44:51Z</time>
      </trkpt>
      <trkpt lat="42.90119" lon="0.27049">
        <ele>1711.2039328648</ele>
        <time>2014-04-12T08:44:56Z</time>
      </trkpt>
      <trkpt lat="42.90119" lon="0.27043">
        <ele>1711.2039328648</ele>
        <time>2014-04-12T08:45:01Z</time>
      </trkpt>
      <trkpt lat="42.90118" lon="0.27042">
        <ele>1711.2039328648</ele>
        <time>2014-04-12T08:45:06Z</time>
      </trkpt>
      <trkpt lat="42.90118" lon="0.27038">
        <ele>1712.2121256538</ele>
        <time>2014-04-12T08:45:11Z</time>
      </trkpt>
      <trkpt lat="42.90119" lon="0.27033">
        <ele>1712.2121256538</ele>
        <time>2014-04-12T08:45:16Z</time>
      </trkpt>
      <trkpt lat="42.90118" lon="0.2703">
        <ele>1712.2121256538</ele>
        <time>2014-04-12T08:45:21Z</time>
      </trkpt>
      <trkpt lat="42.90118" lon="0.27027">
        <ele>1712.2121256538</ele>
        <time>2014-04-12T08:45:26Z</time>
      </trkpt>
      <trkpt lat="42.90118" lon="0.27022">
        <ele>1713.0831834362</ele>
        <time>2014-04-12T08:45:31Z</time>
      </trkpt>
      <trkpt lat="42.90117" lon="0.27018">
        <ele>1713.0831834362</ele>
        <time>2014-04-12T08:45:37Z</time>
      </trkpt>
      <trkpt lat="42.90117" lon="0.27017">
        <ele>1713.0831834362</ele>
        <time>2014-04-12T08:45:40Z</time>
      </trkpt>
      <trkpt lat="42.90118" lon="0.27014">
        <ele>1713.0831834362</ele>
        <time>2014-04-12T08:45:46Z</time>
      </trkpt>
      <trkpt lat="42.90118" lon="0.27011">
        <ele>1713.0831834362</ele>
        <time>2014-04-12T08:45:51Z</time>
      </trkpt>
      <trkpt lat="42.90119" lon="0.27003">
        <ele>1713.8908711258</ele>
        <time>2014-04-12T08:45:56Z</time>
      </trkpt>
      <trkpt lat="42.90119" lon="0.26999">
        <ele>1713.8908711258</ele>
        <time>2014-04-12T08:46:01Z</time>
      </trkpt>
      <trkpt lat="42.90118" lon="0.26994">
        <ele>1713.8908711258</ele>
        <time>2014-04-12T08:46:08Z</time>
      </trkpt>
      <trkpt lat="42.90119" lon="0.26987">
        <ele>1714.5883864896</ele>
        <time>2014-04-12T08:46:11Z</time>
      </trkpt>
      <trkpt lat="42.90118" lon="0.26978">
        <ele>1714.5883864896</ele>
        <time>2014-04-12T08:46:21Z</time>
      </trkpt>
      <trkpt lat="42.90119" lon="0.26975">
        <ele>1715.147081415</ele>
        <time>2014-04-12T08:46:26Z</time>
      </trkpt>
      <trkpt lat="42.90118" lon="0.26968">
        <ele>1715.147081415</ele>
        <time>2014-04-12T08:46:31Z</time>
      </trkpt>
      <trkpt lat="42.90118" lon="0.26965">
        <ele>1715.147081415</ele>
        <time>2014-04-12T08:46:36Z</time>
      </trkpt>
      <trkpt lat="42.90116" lon="0.26959">
        <ele>1715.5840136032</ele>
        <time>2014-04-12T08:46:41Z</time>
      </trkpt>
      <trkpt lat="42.90116" lon="0.26952">
        <ele>1715.5840136032</ele>
        <time>2014-04-12T08:46:46Z</time>
      </trkpt>
      <trkpt lat="42.90115" lon="0.26948">
        <ele>1715.5840136032</ele>
        <time>2014-04-12T08:46:51Z</time>
      </trkpt>
      <trkpt lat="42.90115" lon="0.26944">
        <ele>1715.9152758933</ele>
        <time>2014-04-12T08:46:56Z</time>
      </trkpt>
      <trkpt lat="42.90115" lon="0.26941">
        <ele>1715.9152758933</ele>
        <time>2014-04-12T08:47:01Z</time>
      </trkpt>
      <trkpt lat="42.90115" lon="0.26939">
        <ele>1715.9152758933</ele>
        <time>2014-04-12T08:47:06Z</time>
      </trkpt>
      <trkpt lat="42.90114" lon="0.26935">
        <ele>1715.9152758933</ele>
        <time>2014-04-12T08:47:16Z</time>
      </trkpt>
      <trkpt lat="42.90114" lon="0.26929">
        <ele>1716.2857219416</ele>
        <time>2014-04-12T08:47:21Z</time>
      </trkpt>
      <trkpt lat="42.90115" lon="0.26926">
        <ele>1716.2857219416</ele>
        <time>2014-04-12T08:47:26Z</time>
      </trkpt>
      <trkpt lat="42.90116" lon="0.26919">
        <ele>1716.2857219416</ele>
        <time>2014-04-12T08:47:31Z</time>
      </trkpt>
      <trkpt lat="42.90117" lon="0.26912">
        <ele>1716.6131684317</ele>
        <time>2014-04-12T08:47:36Z</time>
      </trkpt>
      <trkpt lat="42.90117" lon="0.26907">
        <ele>1716.6131684317</ele>
        <time>2014-04-12T08:47:41Z</time>
      </trkpt>
      <trkpt lat="42.90117" lon="0.26902">
        <ele>1716.6131684317</ele>
        <time>2014-04-12T08:47:46Z</time>
      </trkpt>
      <trkpt lat="42.90117" lon="0.26899">
        <ele>1717.0088587935</ele>
        <time>2014-04-12T08:47:51Z</time>
      </trkpt>
      <trkpt lat="42.90118" lon="0.26896">
        <ele>1717.0088587935</ele>
        <time>2014-04-12T08:47:55Z</time>
      </trkpt>
      <trkpt lat="42.90118" lon="0.26892">
        <ele>1717.0088587935</ele>
        <time>2014-04-12T08:48:02Z</time>
      </trkpt>
      <trkpt lat="42.90119" lon="0.26888">
        <ele>1717.0088587935</ele>
        <time>2014-04-12T08:48:06Z</time>
      </trkpt>
      <trkpt lat="42.9012" lon="0.26884">
        <ele>1717.5611417915</ele>
        <time>2014-04-12T08:48:11Z</time>
      </trkpt>
      <trkpt lat="42.9012" lon="0.26881">
        <ele>1717.5611417915</ele>
        <time>2014-04-12T08:48:16Z</time>
      </trkpt>
      <trkpt lat="42.9012" lon="0.2688">
        <ele>1717.5611417915</ele>
        <time>2014-04-12T08:48:21Z</time>
      </trkpt>
      <trkpt lat="42.9012" lon="0.26876">
        <ele>1717.5611417915</ele>
        <time>2014-04-12T08:48:26Z</time>
      </trkpt>
      <trkpt lat="42.90119" lon="0.26872">
        <ele>1717.5611417915</ele>
        <time>2014-04-12T08:48:31Z</time>
      </trkpt>
      <trkpt lat="42.90117" lon="0.26866">
        <ele>1718.2216030518</ele>
        <time>2014-04-12T08:48:36Z</time>
      </trkpt>
      <trkpt lat="42.90117" lon="0.26862">
        <ele>1718.2216030518</ele>
        <time>2014-04-12T08:48:41Z</time>
      </trkpt>
      <trkpt lat="42.90116" lon="0.26857">
        <ele>1718.2216030518</ele>
        <time>2014-04-12T08:48:46Z</time>
      </trkpt>
      <trkpt lat="42.90116" lon="0.26849">
        <ele>1718.8584816772</ele>
        <time>2014-04-12T08:48:51Z</time>
      </trkpt>
      <trkpt lat="42.90116" lon="0.26845">
        <ele>1718.8584816772</ele>
        <time>2014-04-12T08:48:56Z</time>
      </trkpt>
      <trkpt lat="42.90115" lon="0.26838">
        <ele>1718.8584816772</ele>
        <time>2014-04-12T08:49:01Z</time>
      </trkpt>
      <trkpt lat="42.90115" lon="0.26832">
        <ele>1719.436095003</ele>
        <time>2014-04-12T08:49:06Z</time>
      </trkpt>
      <trkpt lat="42.90114" lon="0.26828">
        <ele>1719.436095003</ele>
        <time>2014-04-12T08:49:12Z</time>
      </trkpt>
      <trkpt lat="42.90114" lon="0.26827">
        <ele>1719.436095003</ele>
        <time>2014-04-12T08:49:16Z</time>
      </trkpt>
      <trkpt lat="42.90114" lon="0.26821">
        <ele>1719.436095003</ele>
        <time>2014-04-12T08:49:21Z</time>
      </trkpt>
      <trkpt lat="42.90115" lon="0.26817">
        <ele>1720.0799253667</ele>
        <time>2014-04-12T08:49:26Z</time>
      </trkpt>
      <trkpt lat="42.90114" lon="0.26812">
        <ele>1720.0799253667</ele>
        <time>2014-04-12T08:49:31Z</time>
      </trkpt>
      <trkpt lat="42.90114" lon="0.26809">
        <ele>1720.0799253667</ele>
        <time>2014-04-12T08:49:37Z</time>
      </trkpt>
      <trkpt lat="42.90115" lon="0.26804">
        <ele>1720.7906027923</ele>
        <time>2014-04-12T08:49:40Z</time>
      </trkpt>
      <trkpt lat="42.90116" lon="0.26801">
        <ele>1720.7906027923</ele>
        <time>2014-04-12T08:49:46Z</time>
      </trkpt>
      <trkpt lat="42.90115" lon="0.26799">
        <ele>1720.7906027923</ele>
        <time>2014-04-12T08:49:51Z</time>
      </trkpt>
      <trkpt lat="42.9012" lon="0.26794">
        <ele>1721.6836550438</ele>
        <time>2014-04-12T08:49:56Z</time>
      </trkpt>
      <trkpt lat="42.90123" lon="0.26793">
        <ele>1721.6836550438</ele>
        <time>2014-04-12T08:50:01Z</time>
      </trkpt>
      <trkpt lat="42.90126" lon="0.26791">
        <ele>1721.6836550438</ele>
        <time>2014-04-12T08:50:05Z</time>
      </trkpt>
      <trkpt lat="42.90126" lon="0.26791">
        <ele>1721.6836550438</ele>
        <time>2014-04-12T08:50:11Z</time>
      </trkpt>
      <trkpt lat="42.90128" lon="0.26787">
        <ele>1722.9086827304</ele>
        <time>2014-04-12T08:50:21Z</time>
      </trkpt>
      <trkpt lat="42.90129" lon="0.26783">
        <ele>1722.9086827304</ele>
        <time>2014-04-12T08:50:26Z</time>
      </trkpt>
      <trkpt lat="42.90131" lon="0.26776">
        <ele>1722.9086827304</ele>
        <time>2014-04-12T08:50:31Z</time>
      </trkpt>
      <trkpt lat="42.90131" lon="0.26773">
        <ele>1724.026752263</ele>
        <time>2014-04-12T08:50:36Z</time>
      </trkpt>
      <trkpt lat="42.90133" lon="0.26767">
        <ele>1724.026752263</ele>
        <time>2014-04-12T08:50:41Z</time>
      </trkpt>
      <trkpt lat="42.90135" lon="0.2676">
        <ele>1725.1501180252</ele>
        <time>2014-04-12T08:50:46Z</time>
      </trkpt>
      <trkpt lat="42.90136" lon="0.26756">
        <ele>1725.1501180252</ele>
        <time>2014-04-12T08:50:51Z</time>
      </trkpt>
      <trkpt lat="42.90137" lon="0.26753">
        <ele>1725.1501180252</ele>
        <time>2014-04-12T08:50:56Z</time>
      </trkpt>
      <trkpt lat="42.90138" lon="0.2675">
        <ele>1725.1501180252</ele>
        <time>2014-04-12T08:51:01Z</time>
      </trkpt>
      <trkpt lat="42.90138" lon="0.26748">
        <ele>1726.4690796651</ele>
        <time>2014-04-12T08:51:06Z</time>
      </trkpt>
      <trkpt lat="42.90139" lon="0.26746">
        <ele>1726.4690796651</ele>
        <time>2014-04-12T08:51:11Z</time>
      </trkpt>
      <trkpt lat="42.90139" lon="0.26742">
        <ele>1726.4690796651</ele>
        <time>2014-04-12T08:51:16Z</time>
      </trkpt>
      <trkpt lat="42.90138" lon="0.26737">
        <ele>1726.4690796651</ele>
        <time>2014-04-12T08:51:21Z</time>
      </trkpt>
      <trkpt lat="42.90138" lon="0.26732">
        <ele>1727.7413241263</ele>
        <time>2014-04-12T08:51:26Z</time>
      </trkpt>
      <trkpt lat="42.90139" lon="0.26728">
        <ele>1727.7413241263</ele>
        <time>2014-04-12T08:51:31Z</time>
      </trkpt>
      <trkpt lat="42.90138" lon="0.26727">
        <ele>1727.7413241263</ele>
        <time>2014-04-12T08:51:36Z</time>
      </trkpt>
      <trkpt lat="42.90135" lon="0.26721">
        <ele>1729.0305398099</ele>
        <time>2014-04-12T08:51:46Z</time>
      </trkpt>
      <trkpt lat="42.90135" lon="0.26719">
        <ele>1729.0305398099</ele>
        <time>2014-04-12T08:51:51Z</time>
      </trkpt>
      <trkpt lat="42.90134" lon="0.26716">
        <ele>1729.0305398099</ele>
        <time>2014-04-12T08:51:55Z</time>
      </trkpt>
      <trkpt lat="42.90132" lon="0.26714">
        <ele>1729.0305398099</ele>
        <time>2014-04-12T08:52:01Z</time>
      </trkpt>
      <trkpt lat="42.90131" lon="0.2671">
        <ele>1730.3378927975</ele>
        <time>2014-04-12T08:52:06Z</time>
      </trkpt>
      <trkpt lat="42.90131" lon="0.26707">
        <ele>1730.3378927975</ele>
        <time>2014-04-12T08:52:11Z</time>
      </trkpt>
      <trkpt lat="42.9013" lon="0.26707">
        <ele>1730.3378927975</ele>
        <time>2014-04-12T08:52:16Z</time>
      </trkpt>
      <trkpt lat="42.90128" lon="0.26705">
        <ele>1730.3378927975</ele>
        <time>2014-04-12T08:52:21Z</time>
      </trkpt>
      <trkpt lat="42.90125" lon="0.26706">
        <ele>1730.3378927975</ele>
        <time>2014-04-12T08:52:26Z</time>
      </trkpt>
      <trkpt lat="42.90125" lon="0.26706">
        <ele>1730.3378927975</ele>
        <time>2014-04-12T08:52:31Z</time>
      </trkpt>
      <trkpt lat="42.90119" lon="0.26709">
        <ele>1731.8804363454</ele>
        <time>2014-04-12T08:52:36Z</time>
      </trkpt>
      <trkpt lat="42.90112" lon="0.2671">
        <ele>1731.8804363454</ele>
        <time>2014-04-12T08:52:42Z</time>
      </trkpt>
      <trkpt lat="42.90111" lon="0.26706">
        <ele>1733.3973150075</ele>
        <time>2014-04-12T08:52:47Z</time>
      </trkpt>
      <trkpt lat="42.90111" lon="0.26701">
        <ele>1733.3973150075</ele>
        <time>2014-04-12T08:52:51Z</time>
      </trkpt>
      <trkpt lat="42.90112" lon="0.26697">
        <ele>1733.3973150075</ele>
        <time>2014-04-12T08:52:56Z</time>
      </trkpt>
      <trkpt lat="42.90112" lon="0.26696">
        <ele>1733.3973150075</ele>
        <time>2014-04-12T08:53:01Z</time>
      </trkpt>
      <trkpt lat="42.90112" lon="0.26692">
        <ele>1735.0791127201</ele>
        <time>2014-04-12T08:53:06Z</time>
      </trkpt>
      <trkpt lat="42.90111" lon="0.2669">
        <ele>1735.0791127201</ele>
        <time>2014-04-12T08:53:11Z</time>
      </trkpt>
      <trkpt lat="42.90111" lon="0.26688">
        <ele>1735.0791127201</ele>
        <time>2014-04-12T08:53:16Z</time>
      </trkpt>
      <trkpt lat="42.90111" lon="0.26688">
        <ele>1735.0791127201</ele>
        <time>2014-04-12T08:53:21Z</time>
      </trkpt>
      <trkpt lat="42.9011" lon="0.26684">
        <ele>1735.0791127201</ele>
        <time>2014-04-12T08:53:26Z</time>
      </trkpt>
      <trkpt lat="42.90109" lon="0.26683">
        <ele>1735.0791127201</ele>
        <time>2014-04-12T08:53:31Z</time>
      </trkpt>
      <trkpt lat="42.90107" lon="0.26682">
        <ele>1736.7703596405</ele>
        <time>2014-04-12T08:53:36Z</time>
      </trkpt>
      <trkpt lat="42.90107" lon="0.26682">
        <ele>1736.7703596405</ele>
        <time>2014-04-12T08:53:42Z</time>
      </trkpt>
      <trkpt lat="42.90106" lon="0.26675">
        <ele>1736.7703596405</ele>
        <time>2014-04-12T08:54:06Z</time>
      </trkpt>
      <trkpt lat="42.90105" lon="0.26672">
        <ele>1736.7703596405</ele>
        <time>2014-04-12T08:54:10Z</time>
      </trkpt>
      <trkpt lat="42.90104" lon="0.26668">
        <ele>1738.4853834427</ele>
        <time>2014-04-12T08:54:16Z</time>
      </trkpt>
      <trkpt lat="42.90103" lon="0.26667">
        <ele>1738.4853834427</ele>
        <time>2014-04-12T08:54:21Z</time>
      </trkpt>
      <trkpt lat="42.90101" lon="0.26664">
        <ele>1738.4853834427</ele>
        <time>2014-04-12T08:54:26Z</time>
      </trkpt>
      <trkpt lat="42.90099" lon="0.26661">
        <ele>1738.4853834427</ele>
        <time>2014-04-12T08:54:31Z</time>
      </trkpt>
      <trkpt lat="42.90101" lon="0.26655">
        <ele>1740.0211058198</ele>
        <time>2014-04-12T08:54:36Z</time>
      </trkpt>
      <trkpt lat="42.901" lon="0.26654">
        <ele>1740.0211058198</ele>
        <time>2014-04-12T08:54:41Z</time>
      </trkpt>
      <trkpt lat="42.90098" lon="0.26655">
        <ele>1740.0211058198</ele>
        <time>2014-04-12T08:54:46Z</time>
      </trkpt>
      <trkpt lat="42.90095" lon="0.26644">
        <ele>1741.5932823542</ele>
        <time>2014-04-12T08:55:06Z</time>
      </trkpt>
      <trkpt lat="42.90095" lon="0.2664">
        <ele>1741.5932823542</ele>
        <time>2014-04-12T08:55:11Z</time>
      </trkpt>
      <trkpt lat="42.90095" lon="0.26637">
        <ele>1741.5932823542</ele>
        <time>2014-04-12T08:55:16Z</time>
      </trkpt>
      <trkpt lat="42.90095" lon="0.26631">
        <ele>1743.1566206002</ele>
        <time>2014-04-12T08:55:21Z</time>
      </trkpt>
      <trkpt lat="42.90094" lon="0.2663">
        <ele>1743.1566206002</ele>
        <time>2014-04-12T08:55:26Z</time>
      </trkpt>
      <trkpt lat="42.90093" lon="0.26623">
        <ele>1743.1566206002</ele>
        <time>2014-04-12T08:55:31Z</time>
      </trkpt>
      <trkpt lat="42.90093" lon="0.26619">
        <ele>1744.6690843362</ele>
        <time>2014-04-12T08:55:35Z</time>
      </trkpt>
      <trkpt lat="42.90092" lon="0.26617">
        <ele>1744.6690843362</ele>
        <time>2014-04-12T08:55:42Z</time>
      </trkpt>
      <trkpt lat="42.90091" lon="0.26612">
        <ele>1744.6690843362</ele>
        <time>2014-04-12T08:55:46Z</time>
      </trkpt>
      <trkpt lat="42.90091" lon="0.2661">
        <ele>1744.6690843362</ele>
        <time>2014-04-12T08:55:51Z</time>
      </trkpt>
      <trkpt lat="42.90091" lon="0.26608">
        <ele>1744.6690843362</ele>
        <time>2014-04-12T08:55:56Z</time>
      </trkpt>
      <trkpt lat="42.9009" lon="0.26605">
        <ele>1746.2214812836</ele>
        <time>2014-04-12T08:56:01Z</time>
      </trkpt>
      <trkpt lat="42.90091" lon="0.26602">
        <ele>1746.2214812836</ele>
        <time>2014-04-12T08:56:06Z</time>
      </trkpt>
      <trkpt lat="42.90091" lon="0.26596">
        <ele>1746.2214812836</ele>
        <time>2014-04-12T08:56:11Z</time>
      </trkpt>
      <trkpt lat="42.90091" lon="0.26591">
        <ele>1747.768048126</ele>
        <time>2014-04-12T08:56:16Z</time>
      </trkpt>
      <trkpt lat="42.9009" lon="0.26585">
        <ele>1747.768048126</ele>
        <time>2014-04-12T08:56:21Z</time>
      </trkpt>
      <trkpt lat="42.9009" lon="0.26581">
        <ele>1747.768048126</ele>
        <time>2014-04-12T08:56:26Z</time>
      </trkpt>
      <trkpt lat="42.90089" lon="0.26576">
        <ele>1749.2230855342</ele>
        <time>2014-04-12T08:56:31Z</time>
      </trkpt>
      <trkpt lat="42.90087" lon="0.26565">
        <ele>1749.2230855342</ele>
        <time>2014-04-12T08:56:36Z</time>
      </trkpt>
      <trkpt lat="42.90088" lon="0.2656">
        <ele>1750.5794288241</ele>
        <time>2014-04-12T08:56:41Z</time>
      </trkpt>
      <trkpt lat="42.90086" lon="0.26547">
        <ele>1751.8738797843</ele>
        <time>2014-04-12T08:56:46Z</time>
      </trkpt>
      <trkpt lat="42.90083" lon="0.26539">
        <ele>1751.8738797843</ele>
        <time>2014-04-12T08:56:51Z</time>
      </trkpt>
      <trkpt lat="42.90083" lon="0.26536">
        <ele>1751.8738797843</ele>
        <time>2014-04-12T08:56:56Z</time>
      </trkpt>
      <trkpt lat="42.90085" lon="0.2653">
        <ele>1753.3135800652</ele>
        <time>2014-04-12T08:57:01Z</time>
      </trkpt>
      <trkpt lat="42.90083" lon="0.26527">
        <ele>1753.3135800652</ele>
        <time>2014-04-12T08:57:06Z</time>
      </trkpt>
      <trkpt lat="42.90083" lon="0.26522">
        <ele>1753.3135800652</ele>
        <time>2014-04-12T08:57:11Z</time>
      </trkpt>
      <trkpt lat="42.90088" lon="0.2652">
        <ele>1754.9458683003</ele>
        <time>2014-04-12T08:57:16Z</time>
      </trkpt>
      <trkpt lat="42.90086" lon="0.26514">
        <ele>1754.9458683003</ele>
        <time>2014-04-12T08:57:21Z</time>
      </trkpt>
      <trkpt lat="42.90087" lon="0.26509">
        <ele>1754.9458683003</ele>
        <time>2014-04-12T08:57:26Z</time>
      </trkpt>
      <trkpt lat="42.90088" lon="0.26507">
        <ele>1756.8140056958</ele>
        <time>2014-04-12T08:57:32Z</time>
      </trkpt>
      <trkpt lat="42.9009" lon="0.26505">
        <ele>1756.8140056958</ele>
        <time>2014-04-12T08:57:36Z</time>
      </trkpt>
      <trkpt lat="42.90093" lon="0.26502">
        <ele>1756.8140056958</ele>
        <time>2014-04-12T08:57:41Z</time>
      </trkpt>
      <trkpt lat="42.90096" lon="0.26498">
        <ele>1758.7411887316</ele>
        <time>2014-04-12T08:57:46Z</time>
      </trkpt>
      <trkpt lat="42.90099" lon="0.26496">
        <ele>1758.7411887316</ele>
        <time>2014-04-12T08:57:51Z</time>
      </trkpt>
      <trkpt lat="42.90099" lon="0.26491">
        <ele>1758.7411887316</ele>
        <time>2014-04-12T08:57:56Z</time>
      </trkpt>
      <trkpt lat="42.90102" lon="0.2649">
        <ele>1760.7795598349</ele>
        <time>2014-04-12T08:58:01Z</time>
      </trkpt>
      <trkpt lat="42.90102" lon="0.26486">
        <ele>1760.7795598349</ele>
        <time>2014-04-12T08:58:06Z</time>
      </trkpt>
      <trkpt lat="42.90102" lon="0.26485">
        <ele>1760.7795598349</ele>
        <time>2014-04-12T08:58:11Z</time>
      </trkpt>
      <trkpt lat="42.90098" lon="0.26476">
        <ele>1762.9482556244</ele>
        <time>2014-04-12T08:58:16Z</time>
      </trkpt>
      <trkpt lat="42.90098" lon="0.26473">
        <ele>1762.9482556244</ele>
        <time>2014-04-12T08:58:21Z</time>
      </trkpt>
      <trkpt lat="42.90096" lon="0.26463">
        <ele>1765.1060837943</ele>
        <time>2014-04-12T08:58:26Z</time>
      </trkpt>
      <trkpt lat="42.90095" lon="0.26458">
        <ele>1765.1060837943</ele>
        <time>2014-04-12T08:58:31Z</time>
      </trkpt>
      <trkpt lat="42.90096" lon="0.26454">
        <ele>1765.1060837943</ele>
        <time>2014-04-12T08:58:36Z</time>
      </trkpt>
      <trkpt lat="42.90096" lon="0.26452">
        <ele>1765.1060837943</ele>
        <time>2014-04-12T08:58:41Z</time>
      </trkpt>
      <trkpt lat="42.90098" lon="0.2645">
        <ele>1767.5401582239</ele>
        <time>2014-04-12T08:58:46Z</time>
      </trkpt>
      <trkpt lat="42.901" lon="0.26447">
        <ele>1767.5401582239</ele>
        <time>2014-04-12T08:58:51Z</time>
      </trkpt>
      <trkpt lat="42.90103" lon="0.26445">
        <ele>1767.5401582239</ele>
        <time>2014-04-12T08:58:56Z</time>
      </trkpt>
      <trkpt lat="42.90101" lon="0.26439">
        <ele>1769.9104347362</ele>
        <time>2014-04-12T08:59:01Z</time>
      </trkpt>
      <trkpt lat="42.90101" lon="0.26436">
        <ele>1769.9104347362</ele>
        <time>2014-04-12T08:59:06Z</time>
      </trkpt>
      <trkpt lat="42.90102" lon="0.26432">
        <ele>1769.9104347362</ele>
        <time>2014-04-12T08:59:11Z</time>
      </trkpt>
      <trkpt lat="42.90103" lon="0.26427">
        <ele>1772.5361172459</ele>
        <time>2014-04-12T08:59:16Z</time>
      </trkpt>
      <trkpt lat="42.90103" lon="0.26423">
        <ele>1772.5361172459</ele>
        <time>2014-04-12T08:59:21Z</time>
      </trkpt>
      <trkpt lat="42.90104" lon="0.26422">
        <ele>1772.5361172459</ele>
        <time>2014-04-12T08:59:26Z</time>
      </trkpt>
      <trkpt lat="42.90105" lon="0.26417">
        <ele>1772.5361172459</ele>
        <time>2014-04-12T08:59:31Z</time>
      </trkpt>
      <trkpt lat="42.90108" lon="0.26416">
        <ele>1775.3231408752</ele>
        <time>2014-04-12T08:59:36Z</time>
      </trkpt>
      <trkpt lat="42.90111" lon="0.26415">
        <ele>1775.3231408752</ele>
        <time>2014-04-12T08:59:41Z</time>
      </trkpt>
      <trkpt lat="42.90112" lon="0.26414">
        <ele>1775.3231408752</ele>
        <time>2014-04-12T08:59:46Z</time>
      </trkpt>
      <trkpt lat="42.90112" lon="0.26412">
        <ele>1775.3231408752</ele>
        <time>2014-04-12T08:59:51Z</time>
      </trkpt>
      <trkpt lat="42.90111" lon="0.26409">
        <ele>1775.3231408752</ele>
        <time>2014-04-12T08:59:55Z</time>
      </trkpt>
      <trkpt lat="42.9011" lon="0.26402">
        <ele>1778.6738921844</ele>
        <time>2014-04-12T09:00:01Z</time>
      </trkpt>
      <trkpt lat="42.90109" lon="0.26397">
        <ele>1778.6738921844</ele>
        <time>2014-04-12T09:00:06Z</time>
      </trkpt>
      <trkpt lat="42.90108" lon="0.26395">
        <ele>1778.6738921844</ele>
        <time>2014-04-12T09:00:11Z</time>
      </trkpt>
      <trkpt lat="42.90108" lon="0.2639">
        <ele>1781.9652648002</ele>
        <time>2014-04-12T09:00:16Z</time>
      </trkpt>
      <trkpt lat="42.90108" lon="0.26386">
        <ele>1781.9652648002</ele>
        <time>2014-04-12T09:00:22Z</time>
      </trkpt>
      <trkpt lat="42.90107" lon="0.26383">
        <ele>1781.9652648002</ele>
        <time>2014-04-12T09:00:26Z</time>
      </trkpt>
      <trkpt lat="42.90105" lon="0.26377">
        <ele>1785.2398107136</ele>
        <time>2014-04-12T09:00:31Z</time>
      </trkpt>
      <trkpt lat="42.90104" lon="0.2637">
        <ele>1785.2398107136</ele>
        <time>2014-04-12T09:00:36Z</time>
      </trkpt>
      <trkpt lat="42.90104" lon="0.26365">
        <ele>1785.2398107136</ele>
        <time>2014-04-12T09:00:41Z</time>
      </trkpt>
      <trkpt lat="42.90103" lon="0.26361">
        <ele>1788.6523394487</ele>
        <time>2014-04-12T09:00:47Z</time>
      </trkpt>
      <trkpt lat="42.90102" lon="0.26356">
        <ele>1788.6523394487</ele>
        <time>2014-04-12T09:00:51Z</time>
      </trkpt>
      <trkpt lat="42.90101" lon="0.26351">
        <ele>1788.6523394487</ele>
        <time>2014-04-12T09:00:56Z</time>
      </trkpt>
      <trkpt lat="42.90101" lon="0.26348">
        <ele>1792.0865584896</ele>
        <time>2014-04-12T09:01:02Z</time>
      </trkpt>
      <trkpt lat="42.90101" lon="0.26344">
        <ele>1792.0865584896</ele>
        <time>2014-04-12T09:01:06Z</time>
      </trkpt>
      <trkpt lat="42.901" lon="0.26341">
        <ele>1792.0865584896</ele>
        <time>2014-04-12T09:01:11Z</time>
      </trkpt>
      <trkpt lat="42.90099" lon="0.26336">
        <ele>1795.5932505132</ele>
        <time>2014-04-12T09:01:16Z</time>
      </trkpt>
      <trkpt lat="42.90099" lon="0.26331">
        <ele>1795.5932505132</ele>
        <time>2014-04-12T09:01:21Z</time>
      </trkpt>
      <trkpt lat="42.90099" lon="0.26326">
        <ele>1795.5932505132</ele>
        <time>2014-04-12T09:01:26Z</time>
      </trkpt>
      <trkpt lat="42.90098" lon="0.26322">
        <ele>1799.0752333749</ele>
        <time>2014-04-12T09:01:31Z</time>
      </trkpt>
      <trkpt lat="42.90097" lon="0.26317">
        <ele>1799.0752333749</ele>
        <time>2014-04-12T09:01:36Z</time>
      </trkpt>
      <trkpt lat="42.90096" lon="0.26315">
        <ele>1799.0752333749</ele>
        <time>2014-04-12T09:01:41Z</time>
      </trkpt>
      <trkpt lat="42.90095" lon="0.26311">
        <ele>1799.0752333749</ele>
        <time>2014-04-12T09:01:45Z</time>
      </trkpt>
      <trkpt lat="42.90094" lon="0.2631">
        <ele>1802.6876135589</ele>
        <time>2014-04-12T09:01:51Z</time>
      </trkpt>
      <trkpt lat="42.90092" lon="0.26307">
        <ele>1802.6876135589</ele>
        <time>2014-04-12T09:01:56Z</time>
      </trkpt>
      <trkpt lat="42.90092" lon="0.26305">
        <ele>1802.6876135589</ele>
        <time>2014-04-12T09:02:01Z</time>
      </trkpt>
      <trkpt lat="42.90088" lon="0.26293">
        <ele>1806.3720815566</ele>
        <time>2014-04-12T09:02:16Z</time>
      </trkpt>
      <trkpt lat="42.90088" lon="0.26289">
        <ele>1806.3720815566</ele>
        <time>2014-04-12T09:02:21Z</time>
      </trkpt>
      <trkpt lat="42.90087" lon="0.26285">
        <ele>1806.3720815566</ele>
        <time>2014-04-12T09:02:26Z</time>
      </trkpt>
      <trkpt lat="42.90085" lon="0.2628">
        <ele>1809.9304064655</ele>
        <time>2014-04-12T09:02:31Z</time>
      </trkpt>
      <trkpt lat="42.90083" lon="0.26278">
        <ele>1809.9304064655</ele>
        <time>2014-04-12T09:02:36Z</time>
      </trkpt>
      <trkpt lat="42.90083" lon="0.26276">
        <ele>1809.9304064655</ele>
        <time>2014-04-12T09:02:41Z</time>
      </trkpt>
      <trkpt lat="42.90082" lon="0.26274">
        <ele>1809.9304064655</ele>
        <time>2014-04-12T09:02:46Z</time>
      </trkpt>
      <trkpt lat="42.9008" lon="0.2627">
        <ele>1813.3523232552</ele>
        <time>2014-04-12T09:02:51Z</time>
      </trkpt>
      <trkpt lat="42.9008" lon="0.26267">
        <ele>1813.3523232552</ele>
        <time>2014-04-12T09:02:56Z</time>
      </trkpt>
      <trkpt lat="42.90077" lon="0.26263">
        <ele>1813.3523232552</ele>
        <time>2014-04-12T09:03:01Z</time>
      </trkpt>
      <trkpt lat="42.90076" lon="0.26259">
        <ele>1816.5711815346</ele>
        <time>2014-04-12T09:03:06Z</time>
      </trkpt>
      <trkpt lat="42.90076" lon="0.26257">
        <ele>1816.5711815346</ele>
        <time>2014-04-12T09:03:12Z</time>
      </trkpt>
      <trkpt lat="42.90074" lon="0.26254">
        <ele>1816.5711815346</ele>
        <time>2014-04-12T09:03:16Z</time>
      </trkpt>
      <trkpt lat="42.90073" lon="0.26249">
        <ele>1816.5711815346</ele>
        <time>2014-04-12T09:03:21Z</time>
      </trkpt>
      <trkpt lat="42.90073" lon="0.26245">
        <ele>1819.7709128342</ele>
        <time>2014-04-12T09:03:26Z</time>
      </trkpt>
      <trkpt lat="42.90072" lon="0.26242">
        <ele>1819.7709128342</ele>
        <time>2014-04-12T09:03:31Z</time>
      </trkpt>
      <trkpt lat="42.90071" lon="0.26239">
        <ele>1819.7709128342</ele>
        <time>2014-04-12T09:03:36Z</time>
      </trkpt>
      <trkpt lat="42.90069" lon="0.26235">
        <ele>1819.7709128342</ele>
        <time>2014-04-12T09:03:41Z</time>
      </trkpt>
      <trkpt lat="42.90068" lon="0.26233">
        <ele>1822.9347760772</ele>
        <time>2014-04-12T09:03:46Z</time>
      </trkpt>
      <trkpt lat="42.90066" lon="0.26228">
        <ele>1822.9347760772</ele>
        <time>2014-04-12T09:03:51Z</time>
      </trkpt>
      <trkpt lat="42.90064" lon="0.26224">
        <ele>1822.9347760772</ele>
        <time>2014-04-12T09:03:56Z</time>
      </trkpt>
      <trkpt lat="42.90062" lon="0.26221">
        <ele>1825.9466140799</ele>
        <time>2014-04-12T09:04:00Z</time>
      </trkpt>
      <trkpt lat="42.90062" lon="0.26218">
        <ele>1825.9466140799</ele>
        <time>2014-04-12T09:04:05Z</time>
      </trkpt>
      <trkpt lat="42.90061" lon="0.26212">
        <ele>1825.9466140799</ele>
        <time>2014-04-12T09:04:11Z</time>
      </trkpt>
      <trkpt lat="42.9006" lon="0.26209">
        <ele>1828.829060454</ele>
        <time>2014-04-12T09:04:16Z</time>
      </trkpt>
      <trkpt lat="42.90057" lon="0.26206">
        <ele>1828.829060454</ele>
        <time>2014-04-12T09:04:21Z</time>
      </trkpt>
      <trkpt lat="42.90054" lon="0.26203">
        <ele>1828.829060454</ele>
        <time>2014-04-12T09:04:26Z</time>
      </trkpt>
      <trkpt lat="42.90053" lon="0.262">
        <ele>1831.5747570724</ele>
        <time>2014-04-12T09:04:30Z</time>
      </trkpt>
      <trkpt lat="42.90051" lon="0.26196">
        <ele>1831.5747570724</ele>
        <time>2014-04-12T09:04:36Z</time>
      </trkpt>
      <trkpt lat="42.90048" lon="0.26194">
        <ele>1831.5747570724</ele>
        <time>2014-04-12T09:04:41Z</time>
      </trkpt>
      <trkpt lat="42.90046" lon="0.2619">
        <ele>1834.2206310392</ele>
        <time>2014-04-12T09:04:46Z</time>
      </trkpt>
      <trkpt lat="42.90046" lon="0.26188">
        <ele>1834.2206310392</ele>
        <time>2014-04-12T09:04:51Z</time>
      </trkpt>
      <trkpt lat="42.90047" lon="0.26187">
        <ele>1834.2206310392</ele>
        <time>2014-04-12T09:04:56Z</time>
      </trkpt>
      <trkpt lat="42.90045" lon="0.26181">
        <ele>1834.2206310392</ele>
        <time>2014-04-12T09:05:01Z</time>
      </trkpt>
      <trkpt lat="42.90042" lon="0.26175">
        <ele>1836.8877677962</ele>
        <time>2014-04-12T09:05:06Z</time>
      </trkpt>
      <trkpt lat="42.90039" lon="0.26171">
        <ele>1836.8877677962</ele>
        <time>2014-04-12T09:05:11Z</time>
      </trkpt>
      <trkpt lat="42.90038" lon="0.26168">
        <ele>1836.8877677962</ele>
        <time>2014-04-12T09:05:16Z</time>
      </trkpt>
      <trkpt lat="42.90034" lon="0.26161">
        <ele>1839.5154847514</ele>
        <time>2014-04-12T09:05:21Z</time>
      </trkpt>
      <trkpt lat="42.90031" lon="0.26154">
        <ele>1839.5154847514</ele>
        <time>2014-04-12T09:05:26Z</time>
      </trkpt>
      <trkpt lat="42.90031" lon="0.26151">
        <ele>1839.5154847514</ele>
        <time>2014-04-12T09:05:31Z</time>
      </trkpt>
      <trkpt lat="42.9003" lon="0.26149">
        <ele>1842.1486606552</ele>
        <time>2014-04-12T09:05:36Z</time>
      </trkpt>
      <trkpt lat="42.90032" lon="0.26151">
        <ele>1842.1486606552</ele>
        <time>2014-04-12T09:05:41Z</time>
      </trkpt>
      <trkpt lat="42.90031" lon="0.26151">
        <ele>1842.1486606552</ele>
        <time>2014-04-12T09:05:48Z</time>
      </trkpt>
      <trkpt lat="42.9003" lon="0.2615">
        <ele>1842.1486606552</ele>
        <time>2014-04-12T09:05:52Z</time>
      </trkpt>
      <trkpt lat="42.90029" lon="0.26149">
        <ele>1842.1486606552</ele>
        <time>2014-04-12T09:05:56Z</time>
      </trkpt>
      <trkpt lat="42.90029" lon="0.26146">
        <ele>1844.8577948828</ele>
        <time>2014-04-12T09:06:00Z</time>
      </trkpt>
      <trkpt lat="42.90027" lon="0.26144">
        <ele>1844.8577948828</ele>
        <time>2014-04-12T09:06:05Z</time>
      </trkpt>
      <trkpt lat="42.90027" lon="0.26143">
        <ele>1844.8577948828</ele>
        <time>2014-04-12T09:06:11Z</time>
      </trkpt>
      <trkpt lat="42.90029" lon="0.26142">
        <ele>1844.8577948828</ele>
        <time>2014-04-12T09:06:21Z</time>
      </trkpt>
      <trkpt lat="42.90029" lon="0.26142">
        <ele>1844.8577948828</ele>
        <time>2014-04-12T09:06:26Z</time>
      </trkpt>
      <trkpt lat="42.90032" lon="0.26144">
        <ele>1844.8577948828</ele>
        <time>2014-04-12T09:06:31Z</time>
      </trkpt>
      <trkpt lat="42.90037" lon="0.26146">
        <ele>1847.8233901184</ele>
        <time>2014-04-12T09:06:36Z</time>
      </trkpt>
      <trkpt lat="42.90038" lon="0.26146">
        <ele>1847.8233901184</ele>
        <time>2014-04-12T09:06:41Z</time>
      </trkpt>
      <trkpt lat="42.90035" lon="0.26145">
        <ele>1847.8233901184</ele>
        <time>2014-04-12T09:06:46Z</time>
      </trkpt>
      <trkpt lat="42.90035" lon="0.26146">
        <ele>1847.8233901184</ele>
        <time>2014-04-12T09:06:51Z</time>
      </trkpt>
      <trkpt lat="42.90043" lon="0.26154">
        <ele>1850.6932718672</ele>
        <time>2014-04-12T09:06:56Z</time>
      </trkpt>
      <trkpt lat="42.90044" lon="0.26155">
        <ele>1850.6932718672</ele>
        <time>2014-04-12T09:07:01Z</time>
      </trkpt>
      <trkpt lat="42.90045" lon="0.26155">
        <ele>1850.6932718672</ele>
        <time>2014-04-12T09:07:06Z</time>
      </trkpt>
      <trkpt lat="42.90042" lon="0.26152">
        <ele>1850.6932718672</ele>
        <time>2014-04-12T09:07:12Z</time>
      </trkpt>
      <trkpt lat="42.90045" lon="0.26151">
        <ele>1853.3000254871</ele>
        <time>2014-04-12T09:07:26Z</time>
      </trkpt>
      <trkpt lat="42.90049" lon="0.26149">
        <ele>1853.3000254871</ele>
        <time>2014-04-12T09:07:30Z</time>
      </trkpt>
      <trkpt lat="42.90045" lon="0.26147">
        <ele>1853.3000254871</ele>
        <time>2014-04-12T09:07:37Z</time>
      </trkpt>
      <trkpt lat="42.90045" lon="0.26147">
        <ele>1853.3000254871</ele>
        <time>2014-04-12T09:07:41Z</time>
      </trkpt>
      <trkpt lat="42.90047" lon="0.26147">
        <ele>1855.7487673498</ele>
        <time>2014-04-12T09:07:56Z</time>
      </trkpt>
      <trkpt lat="42.90045" lon="0.26145">
        <ele>1855.7487673498</ele>
        <time>2014-04-12T09:08:01Z</time>
      </trkpt>
      <trkpt lat="42.90032" lon="0.26138">
        <ele>1858.007724691</ele>
        <time>2014-04-12T09:08:06Z</time>
      </trkpt>
      <trkpt lat="42.90027" lon="0.26135">
        <ele>1858.007724691</ele>
        <time>2014-04-12T09:08:16Z</time>
      </trkpt>
      <trkpt lat="42.90027" lon="0.26135">
        <ele>1858.007724691</ele>
        <time>2014-04-12T09:08:21Z</time>
      </trkpt>
      <trkpt lat="42.90039" lon="0.26144">
        <ele>1860.177774555</ele>
        <time>2014-04-12T09:08:41Z</time>
      </trkpt>
      <trkpt lat="42.9004" lon="0.26144">
        <ele>1860.177774555</ele>
        <time>2014-04-12T09:09:02Z</time>
      </trkpt>
      <trkpt lat="42.90039" lon="0.26144">
        <ele>1860.177774555</ele>
        <time>2014-04-12T09:09:06Z</time>
      </trkpt>
      <trkpt lat="42.90032" lon="0.26137">
        <ele>1862.2085976059</ele>
        <time>2014-04-12T09:09:12Z</time>
      </trkpt>
      <trkpt lat="42.9003" lon="0.26137">
        <ele>1862.2085976059</ele>
        <time>2014-04-12T09:09:16Z</time>
      </trkpt>
      <trkpt lat="42.9003" lon="0.26138">
        <ele>1862.2085976059</ele>
        <time>2014-04-12T09:09:21Z</time>
      </trkpt>
      <trkpt lat="42.90034" lon="0.2614">
        <ele>1862.2085976059</ele>
        <time>2014-04-12T09:09:26Z</time>
      </trkpt>
      <trkpt lat="42.90037" lon="0.26142">
        <ele>1863.9387397491</ele>
        <time>2014-04-12T09:09:31Z</time>
      </trkpt>
      <trkpt lat="42.90038" lon="0.26144">
        <ele>1863.9387397491</ele>
        <time>2014-04-12T09:09:36Z</time>
      </trkpt>
      <trkpt lat="42.90038" lon="0.26143">
        <ele>1863.9387397491</ele>
        <time>2014-04-12T09:09:44Z</time>
      </trkpt>
      <trkpt lat="42.90039" lon="0.26142">
        <ele>1863.9387397491</ele>
        <time>2014-04-12T09:09:51Z</time>
      </trkpt>
      <trkpt lat="42.90042" lon="0.26143">
        <ele>1863.9387397491</ele>
        <time>2014-04-12T09:10:06Z</time>
      </trkpt>
      <trkpt lat="42.90038" lon="0.26143">
        <ele>1865.4933198096</ele>
        <time>2014-04-12T09:10:16Z</time>
      </trkpt>
      <trkpt lat="42.90042" lon="0.26148">
        <ele>1865.4933198096</ele>
        <time>2014-04-12T09:10:21Z</time>
      </trkpt>
      <trkpt lat="42.90055" lon="0.26159">
        <ele>1866.8158714704</ele>
        <time>2014-04-12T09:10:26Z</time>
      </trkpt>
      <trkpt lat="42.90061" lon="0.26161">
        <ele>1866.8158714704</ele>
        <time>2014-04-12T09:10:32Z</time>
      </trkpt>
      <trkpt lat="42.90064" lon="0.2616">
        <ele>1866.8158714704</ele>
        <time>2014-04-12T09:10:36Z</time>
      </trkpt>
      <trkpt lat="42.90063" lon="0.26159">
        <ele>1867.8403512417</ele>
        <time>2014-04-12T09:10:41Z</time>
      </trkpt>
      <trkpt lat="42.90054" lon="0.26158">
        <ele>1867.8403512417</ele>
        <time>2014-04-12T09:10:46Z</time>
      </trkpt>
      <trkpt lat="42.90048" lon="0.26158">
        <ele>1868.650536483</ele>
        <time>2014-04-12T09:10:51Z</time>
      </trkpt>
      <trkpt lat="42.90044" lon="0.26158">
        <ele>1868.650536483</ele>
        <time>2014-04-12T09:10:56Z</time>
      </trkpt>
      <trkpt lat="42.90041" lon="0.26156">
        <ele>1868.650536483</ele>
        <time>2014-04-12T09:11:01Z</time>
      </trkpt>
      <trkpt lat="42.90042" lon="0.26158">
        <ele>1868.650536483</ele>
        <time>2014-04-12T09:11:07Z</time>
      </trkpt>
      <trkpt lat="42.90043" lon="0.26157">
        <ele>1868.650536483</ele>
        <time>2014-04-12T09:11:11Z</time>
      </trkpt>
      <trkpt lat="42.90045" lon="0.26154">
        <ele>1869.3823038859</ele>
        <time>2014-04-12T09:11:16Z</time>
      </trkpt>
      <trkpt lat="42.9004" lon="0.26148">
        <ele>1869.3823038859</ele>
        <time>2014-04-12T09:11:27Z</time>
      </trkpt>
      <trkpt lat="42.90035" lon="0.26144">
        <ele>1869.9167727387</ele>
        <time>2014-04-12T09:11:32Z</time>
      </trkpt>
      <trkpt lat="42.90031" lon="0.26139">
        <ele>1869.9167727387</ele>
        <time>2014-04-12T09:11:36Z</time>
      </trkpt>
      <trkpt lat="42.90026" lon="0.26135">
        <ele>1870.3316714887</ele>
        <time>2014-04-12T09:11:41Z</time>
      </trkpt>
      <trkpt lat="42.90026" lon="0.26135">
        <ele>1870.3316714887</ele>
        <time>2014-04-12T09:11:46Z</time>
      </trkpt>
      <trkpt lat="42.90024" lon="0.26133">
        <ele>1870.3316714887</ele>
        <time>2014-04-12T09:11:52Z</time>
      </trkpt>
      <trkpt lat="42.90021" lon="0.26132">
        <ele>1870.3316714887</ele>
        <time>2014-04-12T09:11:56Z</time>
      </trkpt>
      <trkpt lat="42.90017" lon="0.26126">
        <ele>1870.7281396111</ele>
        <time>2014-04-12T09:12:01Z</time>
      </trkpt>
      <trkpt lat="42.9001" lon="0.26118">
        <ele>1870.7281396111</ele>
        <time>2014-04-12T09:12:06Z</time>
      </trkpt>
      <trkpt lat="42.90015" lon="0.26116">
        <ele>1871.070187251</ele>
        <time>2014-04-12T09:12:11Z</time>
      </trkpt>
      <trkpt lat="42.90012" lon="0.26113">
        <ele>1871.070187251</ele>
        <time>2014-04-12T09:12:16Z</time>
      </trkpt>
      <trkpt lat="42.90012" lon="0.2611">
        <ele>1871.070187251</ele>
        <time>2014-04-12T09:12:21Z</time>
      </trkpt>
      <trkpt lat="42.90006" lon="0.26105">
        <ele>1871.425433791</ele>
        <time>2014-04-12T09:12:26Z</time>
      </trkpt>
      <trkpt lat="42.90006" lon="0.26102">
        <ele>1871.425433791</ele>
        <time>2014-04-12T09:12:31Z</time>
      </trkpt>
      <trkpt lat="42.90005" lon="0.261">
        <ele>1871.425433791</ele>
        <time>2014-04-12T09:12:36Z</time>
      </trkpt>
      <trkpt lat="42.90001" lon="0.26092">
        <ele>1871.6546603882</ele>
        <time>2014-04-12T09:12:41Z</time>
      </trkpt>
      <trkpt lat="42.89998" lon="0.26086">
        <ele>1871.6546603882</ele>
        <time>2014-04-12T09:12:46Z</time>
      </trkpt>
      <trkpt lat="42.89996" lon="0.26081">
        <ele>1871.7588382419</ele>
        <time>2014-04-12T09:12:51Z</time>
      </trkpt>
      <trkpt lat="42.89994" lon="0.26075">
        <ele>1871.7588382419</ele>
        <time>2014-04-12T09:12:56Z</time>
      </trkpt>
      <trkpt lat="42.89991" lon="0.26073">
        <ele>1871.7588382419</ele>
        <time>2014-04-12T09:13:01Z</time>
      </trkpt>
      <trkpt lat="42.89988" lon="0.26069">
        <ele>1871.6958821982</ele>
        <time>2014-04-12T09:13:06Z</time>
      </trkpt>
      <trkpt lat="42.89984" lon="0.26067">
        <ele>1871.6958821982</ele>
        <time>2014-04-12T09:13:11Z</time>
      </trkpt>
      <trkpt lat="42.8998" lon="0.26064">
        <ele>1871.6958821982</ele>
        <time>2014-04-12T09:13:16Z</time>
      </trkpt>
      <trkpt lat="42.89981" lon="0.26064">
        <ele>1871.6000870773</ele>
        <time>2014-04-12T09:13:21Z</time>
      </trkpt>
      <trkpt lat="42.89977" lon="0.26058">
        <ele>1871.6000870773</ele>
        <time>2014-04-12T09:13:25Z</time>
      </trkpt>
      <trkpt lat="42.89971" lon="0.26055">
        <ele>1871.4373271934</ele>
        <time>2014-04-12T09:13:31Z</time>
      </trkpt>
      <trkpt lat="42.8997" lon="0.26053">
        <ele>1871.4373271934</ele>
        <time>2014-04-12T09:13:36Z</time>
      </trkpt>
      <trkpt lat="42.89967" lon="0.26046">
        <ele>1871.4373271934</ele>
        <time>2014-04-12T09:13:41Z</time>
      </trkpt>
      <trkpt lat="42.89964" lon="0.2604">
        <ele>1871.4210252186</ele>
        <time>2014-04-12T09:13:46Z</time>
      </trkpt>
      <trkpt lat="42.8996" lon="0.26034">
        <ele>1871.4210252186</ele>
        <time>2014-04-12T09:13:51Z</time>
      </trkpt>
      <trkpt lat="42.89959" lon="0.26034">
        <ele>1871.4210252186</ele>
        <time>2014-04-12T09:13:55Z</time>
      </trkpt>
      <trkpt lat="42.89961" lon="0.26035">
        <ele>1871.4210252186</ele>
        <time>2014-04-12T09:14:01Z</time>
      </trkpt>
      <trkpt lat="42.8996" lon="0.26037">
        <ele>1871.9213045968</ele>
        <time>2014-04-12T09:14:06Z</time>
      </trkpt>
      <trkpt lat="42.89961" lon="0.26038">
        <ele>1871.9213045968</ele>
        <time>2014-04-12T09:14:11Z</time>
      </trkpt>
      <trkpt lat="42.89958" lon="0.26037">
        <ele>1871.9213045968</ele>
        <time>2014-04-12T09:14:16Z</time>
      </trkpt>
      <trkpt lat="42.89958" lon="0.26038">
        <ele>1871.9213045968</ele>
        <time>2014-04-12T09:14:21Z</time>
      </trkpt>
      <trkpt lat="42.8996" lon="0.26038">
        <ele>1871.9213045968</ele>
        <time>2014-04-12T09:14:26Z</time>
      </trkpt>
      <trkpt lat="42.89959" lon="0.26034">
        <ele>1871.9213045968</ele>
        <time>2014-04-12T09:14:31Z</time>
      </trkpt>
      <trkpt lat="42.8996" lon="0.26028">
        <ele>1872.6454111946</ele>
        <time>2014-04-12T09:14:36Z</time>
      </trkpt>
      <trkpt lat="42.89958" lon="0.26024">
        <ele>1872.6454111946</ele>
        <time>2014-04-12T09:14:41Z</time>
      </trkpt>
      <trkpt lat="42.89958" lon="0.26019">
        <ele>1872.6454111946</ele>
        <time>2014-04-12T09:14:46Z</time>
      </trkpt>
      <trkpt lat="42.89954" lon="0.26016">
        <ele>1873.3789592877</ele>
        <time>2014-04-12T09:14:51Z</time>
      </trkpt>
      <trkpt lat="42.89953" lon="0.26013">
        <ele>1873.3789592877</ele>
        <time>2014-04-12T09:14:56Z</time>
      </trkpt>
      <trkpt lat="42.89949" lon="0.26008">
        <ele>1873.3789592877</ele>
        <time>2014-04-12T09:15:01Z</time>
      </trkpt>
      <trkpt lat="42.8995" lon="0.26008">
        <ele>1874.0816526055</ele>
        <time>2014-04-12T09:15:06Z</time>
      </trkpt>
      <trkpt lat="42.8995" lon="0.26005">
        <ele>1874.0816526055</ele>
        <time>2014-04-12T09:15:11Z</time>
      </trkpt>
      <trkpt lat="42.89948" lon="0.26001">
        <ele>1874.0816526055</ele>
        <time>2014-04-12T09:15:16Z</time>
      </trkpt>
      <trkpt lat="42.89943" lon="0.25994">
        <ele>1874.7881425427</ele>
        <time>2014-04-12T09:15:21Z</time>
      </trkpt>
      <trkpt lat="42.8994" lon="0.25989">
        <ele>1874.7881425427</ele>
        <time>2014-04-12T09:15:26Z</time>
      </trkpt>
      <trkpt lat="42.89939" lon="0.25987">
        <ele>1874.7881425427</ele>
        <time>2014-04-12T09:15:31Z</time>
      </trkpt>
      <trkpt lat="42.89939" lon="0.25986">
        <ele>1874.7881425427</ele>
        <time>2014-04-12T09:15:36Z</time>
      </trkpt>
      <trkpt lat="42.89935" lon="0.25982">
        <ele>1875.6024266319</ele>
        <time>2014-04-12T09:15:41Z</time>
      </trkpt>
      <trkpt lat="42.89936" lon="0.25979">
        <ele>1875.6024266319</ele>
        <time>2014-04-12T09:15:46Z</time>
      </trkpt>
      <trkpt lat="42.89936" lon="0.25979">
        <ele>1875.6024266319</ele>
        <time>2014-04-12T09:15:51Z</time>
      </trkpt>
      <trkpt lat="42.89934" lon="0.25973">
        <ele>1875.6024266319</ele>
        <time>2014-04-12T09:15:56Z</time>
      </trkpt>
      <trkpt lat="42.89933" lon="0.25972">
        <ele>1875.6024266319</ele>
        <time>2014-04-12T09:16:01Z</time>
      </trkpt>
      <trkpt lat="42.89931" lon="0.25968">
        <ele>1876.3465974875</ele>
        <time>2014-04-12T09:16:06Z</time>
      </trkpt>
      <trkpt lat="42.8993" lon="0.25964">
        <ele>1876.3465974875</ele>
        <time>2014-04-12T09:16:11Z</time>
      </trkpt>
      <trkpt lat="42.89927" lon="0.25962">
        <ele>1876.3465974875</ele>
        <time>2014-04-12T09:16:17Z</time>
      </trkpt>
      <trkpt lat="42.89924" lon="0.25958">
        <ele>1877.0287970905</ele>
        <time>2014-04-12T09:16:21Z</time>
      </trkpt>
      <trkpt lat="42.89922" lon="0.25958">
        <ele>1877.0287970905</ele>
        <time>2014-04-12T09:16:27Z</time>
      </trkpt>
      <trkpt lat="42.89907" lon="0.25951">
        <ele>1877.45483962</ele>
        <time>2014-04-12T09:16:31Z</time>
      </trkpt>
      <trkpt lat="42.89899" lon="0.25947">
        <ele>1877.45483962</ele>
        <time>2014-04-12T09:16:36Z</time>
      </trkpt>
      <trkpt lat="42.8989" lon="0.2594">
        <ele>1877.7191873414</ele>
        <time>2014-04-12T09:16:41Z</time>
      </trkpt>
      <trkpt lat="42.89891" lon="0.2594">
        <ele>1877.7191873414</ele>
        <time>2014-04-12T09:16:46Z</time>
      </trkpt>
      <trkpt lat="42.89891" lon="0.25941">
        <ele>1877.7191873414</ele>
        <time>2014-04-12T09:16:50Z</time>
      </trkpt>
      <trkpt lat="42.89892" lon="0.2594">
        <ele>1877.7191873414</ele>
        <time>2014-04-12T09:16:56Z</time>
      </trkpt>
      <trkpt lat="42.89892" lon="0.2594">
        <ele>1877.7191873414</ele>
        <time>2014-04-12T09:17:01Z</time>
      </trkpt>
      <trkpt lat="42.89898" lon="0.25941">
        <ele>1878.6158170448</ele>
        <time>2014-04-12T09:17:06Z</time>
      </trkpt>
      <trkpt lat="42.89902" lon="0.25941">
        <ele>1878.6158170448</ele>
        <time>2014-04-12T09:17:11Z</time>
      </trkpt>
      <trkpt lat="42.89903" lon="0.2594">
        <ele>1878.6158170448</ele>
        <time>2014-04-12T09:17:17Z</time>
      </trkpt>
      <trkpt lat="42.89911" lon="0.25938">
        <ele>1879.5958748302</ele>
        <time>2014-04-12T09:17:21Z</time>
      </trkpt>
      <trkpt lat="42.89918" lon="0.25938">
        <ele>1879.5958748302</ele>
        <time>2014-04-12T09:17:27Z</time>
      </trkpt>
      <trkpt lat="42.8992" lon="0.25938">
        <ele>1880.6980746835</ele>
        <time>2014-04-12T09:17:31Z</time>
      </trkpt>
      <trkpt lat="42.89925" lon="0.25937">
        <ele>1880.6980746835</ele>
        <time>2014-04-12T09:17:36Z</time>
      </trkpt>
      <trkpt lat="42.89927" lon="0.25936">
        <ele>1880.6980746835</ele>
        <time>2014-04-12T09:17:41Z</time>
      </trkpt>
      <trkpt lat="42.89929" lon="0.25934">
        <ele>1882.0154548325</ele>
        <time>2014-04-12T09:17:46Z</time>
      </trkpt>
      <trkpt lat="42.89929" lon="0.25933">
        <ele>1882.0154548325</ele>
        <time>2014-04-12T09:17:51Z</time>
      </trkpt>
      <trkpt lat="42.89932" lon="0.25929">
        <ele>1882.0154548325</ele>
        <time>2014-04-12T09:17:56Z</time>
      </trkpt>
      <trkpt lat="42.89936" lon="0.25928">
        <ele>1882.0154548325</ele>
        <time>2014-04-12T09:18:00Z</time>
      </trkpt>
      <trkpt lat="42.89941" lon="0.25926">
        <ele>1883.5326110872</ele>
        <time>2014-04-12T09:18:06Z</time>
      </trkpt>
      <trkpt lat="42.89943" lon="0.25924">
        <ele>1883.5326110872</ele>
        <time>2014-04-12T09:18:11Z</time>
      </trkpt>
      <trkpt lat="42.89944" lon="0.25921">
        <ele>1883.5326110872</ele>
        <time>2014-04-12T09:18:16Z</time>
      </trkpt>
      <trkpt lat="42.89944" lon="0.25922">
        <ele>1883.5326110872</ele>
        <time>2014-04-12T09:18:21Z</time>
      </trkpt>
      <trkpt lat="42.89949" lon="0.25924">
        <ele>1885.3066481678</ele>
        <time>2014-04-12T09:18:25Z</time>
      </trkpt>
      <trkpt lat="42.89949" lon="0.25922">
        <ele>1885.3066481678</ele>
        <time>2014-04-12T09:18:31Z</time>
      </trkpt>
      <trkpt lat="42.89948" lon="0.25921">
        <ele>1885.3066481678</ele>
        <time>2014-04-12T09:18:36Z</time>
      </trkpt>
      <trkpt lat="42.89946" lon="0.2592">
        <ele>1885.3066481678</ele>
        <time>2014-04-12T09:18:41Z</time>
      </trkpt>
      <trkpt lat="42.89946" lon="0.2592">
        <ele>1885.3066481678</ele>
        <time>2014-04-12T09:18:46Z</time>
      </trkpt>
      <trkpt lat="42.89946" lon="0.2592">
        <ele>1885.3066481678</ele>
        <time>2014-04-12T09:18:51Z</time>
      </trkpt>
      <trkpt lat="42.89944" lon="0.25917">
        <ele>1887.1158359533</ele>
        <time>2014-04-12T09:18:56Z</time>
      </trkpt>
      <trkpt lat="42.89942" lon="0.25911">
        <ele>1887.1158359533</ele>
        <time>2014-04-12T09:19:01Z</time>
      </trkpt>
      <trkpt lat="42.89936" lon="0.25906">
        <ele>1888.7689471694</ele>
        <time>2014-04-12T09:19:06Z</time>
      </trkpt>
      <trkpt lat="42.89933" lon="0.25899">
        <ele>1888.7689471694</ele>
        <time>2014-04-12T09:19:11Z</time>
      </trkpt>
      <trkpt lat="42.89929" lon="0.25895">
        <ele>1890.3053189949</ele>
        <time>2014-04-12T09:19:16Z</time>
      </trkpt>
      <trkpt lat="42.89923" lon="0.25895">
        <ele>1890.3053189949</ele>
        <time>2014-04-12T09:19:21Z</time>
      </trkpt>
      <trkpt lat="42.89917" lon="0.2589">
        <ele>1891.761648359</ele>
        <time>2014-04-12T09:19:26Z</time>
      </trkpt>
      <trkpt lat="42.89916" lon="0.25886">
        <ele>1891.761648359</ele>
        <time>2014-04-12T09:19:31Z</time>
      </trkpt>
      <trkpt lat="42.89917" lon="0.25885">
        <ele>1891.761648359</ele>
        <time>2014-04-12T09:19:36Z</time>
      </trkpt>
      <trkpt lat="42.89915" lon="0.25882">
        <ele>1891.761648359</ele>
        <time>2014-04-12T09:19:41Z</time>
      </trkpt>
      <trkpt lat="42.89916" lon="0.25883">
        <ele>1893.0856244465</ele>
        <time>2014-04-12T09:19:46Z</time>
      </trkpt>
      <trkpt lat="42.89924" lon="0.25884">
        <ele>1893.0856244465</ele>
        <time>2014-04-12T09:19:56Z</time>
      </trkpt>
      <trkpt lat="42.89926" lon="0.25884">
        <ele>1894.4020209886</ele>
        <time>2014-04-12T09:20:02Z</time>
      </trkpt>
      <trkpt lat="42.89916" lon="0.25879">
        <ele>1895.7255325457</ele>
        <time>2014-04-12T09:20:06Z</time>
      </trkpt>
      <trkpt lat="42.89915" lon="0.25876">
        <ele>1895.7255325457</ele>
        <time>2014-04-12T09:20:10Z</time>
      </trkpt>
      <trkpt lat="42.89915" lon="0.25868">
        <ele>1895.7255325457</ele>
        <time>2014-04-12T09:20:17Z</time>
      </trkpt>
      <trkpt lat="42.89929" lon="0.25867">
        <ele>1897.71820426</ele>
        <time>2014-04-12T09:20:26Z</time>
      </trkpt>
      <trkpt lat="42.89936" lon="0.25869">
        <ele>1897.71820426</ele>
        <time>2014-04-12T09:20:31Z</time>
      </trkpt>
      <trkpt lat="42.89938" lon="0.25871">
        <ele>1899.6657044674</ele>
        <time>2014-04-12T09:20:36Z</time>
      </trkpt>
      <trkpt lat="42.89934" lon="0.2587">
        <ele>1899.6657044674</ele>
        <time>2014-04-12T09:20:41Z</time>
      </trkpt>
      <trkpt lat="42.89921" lon="0.25867">
        <ele>1901.5259448291</ele>
        <time>2014-04-12T09:20:46Z</time>
      </trkpt>
      <trkpt lat="42.89913" lon="0.25863">
        <ele>1901.5259448291</ele>
        <time>2014-04-12T09:20:52Z</time>
      </trkpt>
      <trkpt lat="42.89917" lon="0.25867">
        <ele>1903.5627798212</ele>
        <time>2014-04-12T09:20:56Z</time>
      </trkpt>
      <trkpt lat="42.89913" lon="0.25869">
        <ele>1903.5627798212</ele>
        <time>2014-04-12T09:21:02Z</time>
      </trkpt>
      <trkpt lat="42.89915" lon="0.2587">
        <ele>1903.5627798212</ele>
        <time>2014-04-12T09:21:06Z</time>
      </trkpt>
      <trkpt lat="42.89916" lon="0.2587">
        <ele>1903.5627798212</ele>
        <time>2014-04-12T09:21:10Z</time>
      </trkpt>
      <trkpt lat="42.89919" lon="0.2587">
        <ele>1905.9913460509</ele>
        <time>2014-04-12T09:21:17Z</time>
      </trkpt>
      <trkpt lat="42.89918" lon="0.25867">
        <ele>1905.9913460509</ele>
        <time>2014-04-12T09:21:21Z</time>
      </trkpt>
      <trkpt lat="42.8992" lon="0.25865">
        <ele>1905.9913460509</ele>
        <time>2014-04-12T09:21:26Z</time>
      </trkpt>
      <trkpt lat="42.89925" lon="0.25866">
        <ele>1908.5631249278</ele>
        <time>2014-04-12T09:21:31Z</time>
      </trkpt>
      <trkpt lat="42.89926" lon="0.25866">
        <ele>1908.5631249278</ele>
        <time>2014-04-12T09:21:36Z</time>
      </trkpt>
      <trkpt lat="42.89931" lon="0.25865">
        <ele>1908.5631249278</ele>
        <time>2014-04-12T09:21:41Z</time>
      </trkpt>
      <trkpt lat="42.89934" lon="0.25864">
        <ele>1910.975398739</ele>
        <time>2014-04-12T09:21:46Z</time>
      </trkpt>
      <trkpt lat="42.89926" lon="0.25863">
        <ele>1910.975398739</ele>
        <time>2014-04-12T09:21:51Z</time>
      </trkpt>
      <trkpt lat="42.89921" lon="0.25862">
        <ele>1913.164313606</ele>
        <time>2014-04-12T09:21:56Z</time>
      </trkpt>
      <trkpt lat="42.89921" lon="0.25864">
        <ele>1913.164313606</ele>
        <time>2014-04-12T09:22:00Z</time>
      </trkpt>
      <trkpt lat="42.89928" lon="0.25863">
        <ele>1913.164313606</ele>
        <time>2014-04-12T09:22:06Z</time>
      </trkpt>
      <trkpt lat="42.89934" lon="0.25861">
        <ele>1915.3019322085</ele>
        <time>2014-04-12T09:22:11Z</time>
      </trkpt>
      <trkpt lat="42.89937" lon="0.25859">
        <ele>1915.3019322085</ele>
        <time>2014-04-12T09:22:17Z</time>
      </trkpt>
      <trkpt lat="42.89929" lon="0.25846">
        <ele>1917.4613841222</ele>
        <time>2014-04-12T09:22:36Z</time>
      </trkpt>
      <trkpt lat="42.89929" lon="0.25845">
        <ele>1917.4613841222</ele>
        <time>2014-04-12T09:22:41Z</time>
      </trkpt>
      <trkpt lat="42.89935" lon="0.25844">
        <ele>1917.4613841222</ele>
        <time>2014-04-12T09:22:46Z</time>
      </trkpt>
      <trkpt lat="42.89936" lon="0.25843">
        <ele>1919.5086455659</ele>
        <time>2014-04-12T09:22:56Z</time>
      </trkpt>
      <trkpt lat="42.89914" lon="0.25842">
        <ele>1921.3487154209</ele>
        <time>2014-04-12T09:23:01Z</time>
      </trkpt>
      <trkpt lat="42.89912" lon="0.25846">
        <ele>1921.3487154209</ele>
        <time>2014-04-12T09:23:06Z</time>
      </trkpt>
      <trkpt lat="42.8991" lon="0.25847">
        <ele>1921.3487154209</ele>
        <time>2014-04-12T09:23:12Z</time>
      </trkpt>
      <trkpt lat="42.89908" lon="0.25847">
        <ele>1921.3487154209</ele>
        <time>2014-04-12T09:23:16Z</time>
      </trkpt>
      <trkpt lat="42.89909" lon="0.25846">
        <ele>1921.3487154209</ele>
        <time>2014-04-12T09:23:21Z</time>
      </trkpt>
      <trkpt lat="42.89903" lon="0.25843">
        <ele>1923.225652458</ele>
        <time>2014-04-12T09:23:51Z</time>
      </trkpt>
      <trkpt lat="42.89902" lon="0.2584">
        <ele>1923.225652458</ele>
        <time>2014-04-12T09:23:57Z</time>
      </trkpt>
      <trkpt lat="42.89905" lon="0.2584">
        <ele>1923.225652458</ele>
        <time>2014-04-12T09:24:01Z</time>
      </trkpt>
      <trkpt lat="42.89905" lon="0.25839">
        <ele>1923.225652458</ele>
        <time>2014-04-12T09:24:06Z</time>
      </trkpt>
      <trkpt lat="42.89907" lon="0.25839">
        <ele>1923.225652458</ele>
        <time>2014-04-12T09:24:12Z</time>
      </trkpt>
      <trkpt lat="42.8991" lon="0.25838">
        <ele>1925.3943534427</ele>
        <time>2014-04-12T09:24:15Z</time>
      </trkpt>
      <trkpt lat="42.89912" lon="0.25836">
        <ele>1925.3943534427</ele>
        <time>2014-04-12T09:24:21Z</time>
      </trkpt>
      <trkpt lat="42.89915" lon="0.25835">
        <ele>1925.3943534427</ele>
        <time>2014-04-12T09:24:26Z</time>
      </trkpt>
      <trkpt lat="42.89918" lon="0.25832">
        <ele>1927.6723003472</ele>
        <time>2014-04-12T09:24:31Z</time>
      </trkpt>
      <trkpt lat="42.89921" lon="0.25833">
        <ele>1927.6723003472</ele>
        <time>2014-04-12T09:24:37Z</time>
      </trkpt>
      <trkpt lat="42.89919" lon="0.25831">
        <ele>1927.6723003472</ele>
        <time>2014-04-12T09:24:51Z</time>
      </trkpt>
      <trkpt lat="42.89919" lon="0.25832">
        <ele>1927.6723003472</ele>
        <time>2014-04-12T09:24:56Z</time>
      </trkpt>
      <trkpt lat="42.89922" lon="0.25831">
        <ele>1927.6723003472</ele>
        <time>2014-04-12T09:25:01Z</time>
      </trkpt>
      <trkpt lat="42.8992" lon="0.25823">
        <ele>1930.9133211657</ele>
        <time>2014-04-12T09:25:11Z</time>
      </trkpt>
      <trkpt lat="42.89917" lon="0.25822">
        <ele>1930.9133211657</ele>
        <time>2014-04-12T09:25:17Z</time>
      </trkpt>
      <trkpt lat="42.89914" lon="0.25822">
        <ele>1930.9133211657</ele>
        <time>2014-04-12T09:25:21Z</time>
      </trkpt>
      <trkpt lat="42.89909" lon="0.25815">
        <ele>1934.0324370886</ele>
        <time>2014-04-12T09:25:27Z</time>
      </trkpt>
      <trkpt lat="42.89907" lon="0.25815">
        <ele>1934.0324370886</ele>
        <time>2014-04-12T09:25:31Z</time>
      </trkpt>
      <trkpt lat="42.89903" lon="0.25814">
        <ele>1934.0324370886</ele>
        <time>2014-04-12T09:25:37Z</time>
      </trkpt>
      <trkpt lat="42.89901" lon="0.25813">
        <ele>1934.0324370886</ele>
        <time>2014-04-12T09:25:41Z</time>
      </trkpt>
      <trkpt lat="42.89899" lon="0.25813">
        <ele>1937.1056167155</ele>
        <time>2014-04-12T09:25:47Z</time>
      </trkpt>
      <trkpt lat="42.89897" lon="0.25813">
        <ele>1937.1056167155</ele>
        <time>2014-04-12T09:25:51Z</time>
      </trkpt>
      <trkpt lat="42.89895" lon="0.25814">
        <ele>1937.1056167155</ele>
        <time>2014-04-12T09:25:55Z</time>
      </trkpt>
      <trkpt lat="42.89893" lon="0.25814">
        <ele>1937.1056167155</ele>
        <time>2014-04-12T09:26:01Z</time>
      </trkpt>
      <trkpt lat="42.89893" lon="0.25814">
        <ele>1937.1056167155</ele>
        <time>2014-04-12T09:26:07Z</time>
      </trkpt>
      <trkpt lat="42.89895" lon="0.25811">
        <ele>1940.3187447359</ele>
        <time>2014-04-12T09:26:41Z</time>
      </trkpt>
      <trkpt lat="42.89904" lon="0.2581">
        <ele>1943.2096568251</ele>
        <time>2014-04-12T09:26:52Z</time>
      </trkpt>
      <trkpt lat="42.89905" lon="0.25809">
        <ele>1943.2096568251</ele>
        <time>2014-04-12T09:26:56Z</time>
      </trkpt>
      <trkpt lat="42.89901" lon="0.25813">
        <ele>1943.2096568251</ele>
        <time>2014-04-12T09:27:02Z</time>
      </trkpt>
      <trkpt lat="42.899" lon="0.25822">
        <ele>1946.5616726704</ele>
        <time>2014-04-12T09:27:16Z</time>
      </trkpt>
      <trkpt lat="42.89904" lon="0.25821">
        <ele>1946.5616726704</ele>
        <time>2014-04-12T09:27:21Z</time>
      </trkpt>
      <trkpt lat="42.89905" lon="0.25818">
        <ele>1946.5616726704</ele>
        <time>2014-04-12T09:27:27Z</time>
      </trkpt>
      <trkpt lat="42.89906" lon="0.25818">
        <ele>1946.5616726704</ele>
        <time>2014-04-12T09:27:31Z</time>
      </trkpt>
      <trkpt lat="42.89906" lon="0.25817">
        <ele>1946.5616726704</ele>
        <time>2014-04-12T09:27:36Z</time>
      </trkpt>
      <trkpt lat="42.89906" lon="0.25813">
        <ele>1950.0329572745</ele>
        <time>2014-04-12T09:27:46Z</time>
      </trkpt>
      <trkpt lat="42.89905" lon="0.25814">
        <ele>1950.0329572745</ele>
        <time>2014-04-12T09:27:52Z</time>
      </trkpt>
      <trkpt lat="42.899" lon="0.25809">
        <ele>1950.0329572745</ele>
        <time>2014-04-12T09:28:01Z</time>
      </trkpt>
      <trkpt lat="42.89897" lon="0.25805">
        <ele>1953.3353851701</ele>
        <time>2014-04-12T09:28:06Z</time>
      </trkpt>
      <trkpt lat="42.89895" lon="0.25806">
        <ele>1953.3353851701</ele>
        <time>2014-04-12T09:28:11Z</time>
      </trkpt>
      <trkpt lat="42.89891" lon="0.25805">
        <ele>1953.3353851701</ele>
        <time>2014-04-12T09:28:17Z</time>
      </trkpt>
      <trkpt lat="42.89887" lon="0.25805">
        <ele>1956.3178761727</ele>
        <time>2014-04-12T09:28:21Z</time>
      </trkpt>
      <trkpt lat="42.89885" lon="0.25807">
        <ele>1956.3178761727</ele>
        <time>2014-04-12T09:28:26Z</time>
      </trkpt>
      <trkpt lat="42.89882" lon="0.25808">
        <ele>1956.3178761727</ele>
        <time>2014-04-12T09:28:31Z</time>
      </trkpt>
      <trkpt lat="42.89878" lon="0.25811">
        <ele>1958.9711679859</ele>
        <time>2014-04-12T09:28:36Z</time>
      </trkpt>
      <trkpt lat="42.89879" lon="0.25811">
        <ele>1958.9711679859</ele>
        <time>2014-04-12T09:28:41Z</time>
      </trkpt>
      <trkpt lat="42.89879" lon="0.25812">
        <ele>1958.9711679859</ele>
        <time>2014-04-12T09:28:46Z</time>
      </trkpt>
      <trkpt lat="42.89875" lon="0.25813">
        <ele>1958.9711679859</ele>
        <time>2014-04-12T09:28:56Z</time>
      </trkpt>
      <trkpt lat="42.89874" lon="0.25814">
        <ele>1958.9711679859</ele>
        <time>2014-04-12T09:29:01Z</time>
      </trkpt>
      <trkpt lat="42.89873" lon="0.25813">
        <ele>1958.9711679859</ele>
        <time>2014-04-12T09:29:07Z</time>
      </trkpt>
      <trkpt lat="42.89871" lon="0.25816">
        <ele>1961.4462491598</ele>
        <time>2014-04-12T09:29:11Z</time>
      </trkpt>
      <trkpt lat="42.89869" lon="0.25819">
        <ele>1961.4462491598</ele>
        <time>2014-04-12T09:29:17Z</time>
      </trkpt>
      <trkpt lat="42.89869" lon="0.25819">
        <ele>1961.4462491598</ele>
        <time>2014-04-12T09:29:21Z</time>
      </trkpt>
      <trkpt lat="42.89867" lon="0.25823">
        <ele>1961.4462491598</ele>
        <time>2014-04-12T09:29:26Z</time>
      </trkpt>
      <trkpt lat="42.89866" lon="0.25824">
        <ele>1961.4462491598</ele>
        <time>2014-04-12T09:29:31Z</time>
      </trkpt>
      <trkpt lat="42.89864" lon="0.25829">
        <ele>1963.768352349</ele>
        <time>2014-04-12T09:29:36Z</time>
      </trkpt>
      <trkpt lat="42.89862" lon="0.25832">
        <ele>1963.768352349</ele>
        <time>2014-04-12T09:29:42Z</time>
      </trkpt>
      <trkpt lat="42.89862" lon="0.25833">
        <ele>1963.768352349</ele>
        <time>2014-04-12T09:29:46Z</time>
      </trkpt>
      <trkpt lat="42.89861" lon="0.25835">
        <ele>1963.768352349</ele>
        <time>2014-04-12T09:29:51Z</time>
      </trkpt>
      <trkpt lat="42.89856" lon="0.25834">
        <ele>1965.8605301364</ele>
        <time>2014-04-12T09:29:56Z</time>
      </trkpt>
      <trkpt lat="42.89852" lon="0.25834">
        <ele>1965.8605301364</ele>
        <time>2014-04-12T09:30:01Z</time>
      </trkpt>
      <trkpt lat="42.89848" lon="0.25833">
        <ele>1965.8605301364</ele>
        <time>2014-04-12T09:30:07Z</time>
      </trkpt>
      <trkpt lat="42.89844" lon="0.25833">
        <ele>1967.7387170581</ele>
        <time>2014-04-12T09:30:11Z</time>
      </trkpt>
      <trkpt lat="42.8984" lon="0.25833">
        <ele>1967.7387170581</ele>
        <time>2014-04-12T09:30:16Z</time>
      </trkpt>
      <trkpt lat="42.89836" lon="0.25833">
        <ele>1967.7387170581</ele>
        <time>2014-04-12T09:30:21Z</time>
      </trkpt>
      <trkpt lat="42.89829" lon="0.25832">
        <ele>1969.4183890359</ele>
        <time>2014-04-12T09:30:27Z</time>
      </trkpt>
      <trkpt lat="42.89825" lon="0.25832">
        <ele>1969.4183890359</ele>
        <time>2014-04-12T09:30:31Z</time>
      </trkpt>
      <trkpt lat="42.89823" lon="0.25833">
        <ele>1969.4183890359</ele>
        <time>2014-04-12T09:30:36Z</time>
      </trkpt>
      <trkpt lat="42.8982" lon="0.25834">
        <ele>1969.4183890359</ele>
        <time>2014-04-12T09:30:42Z</time>
      </trkpt>
      <trkpt lat="42.89816" lon="0.25834">
        <ele>1970.9433682618</ele>
        <time>2014-04-12T09:30:46Z</time>
      </trkpt>
      <trkpt lat="42.89814" lon="0.25834">
        <ele>1970.9433682618</ele>
        <time>2014-04-12T09:30:51Z</time>
      </trkpt>
      <trkpt lat="42.89812" lon="0.25833">
        <ele>1970.9433682618</ele>
        <time>2014-04-12T09:30:57Z</time>
      </trkpt>
      <trkpt lat="42.89809" lon="0.25831">
        <ele>1970.9433682618</ele>
        <time>2014-04-12T09:31:01Z</time>
      </trkpt>
      <trkpt lat="42.89804" lon="0.25827">
        <ele>1972.3403756775</ele>
        <time>2014-04-12T09:31:06Z</time>
      </trkpt>
      <trkpt lat="42.89802" lon="0.25823">
        <ele>1972.3403756775</ele>
        <time>2014-04-12T09:31:12Z</time>
      </trkpt>
      <trkpt lat="42.89798" lon="0.25819">
        <ele>1972.3403756775</ele>
        <time>2014-04-12T09:31:16Z</time>
      </trkpt>
      <trkpt lat="42.89796" lon="0.25818">
        <ele>1973.5193243483</ele>
        <time>2014-04-12T09:31:22Z</time>
      </trkpt>
      <trkpt lat="42.89794" lon="0.25816">
        <ele>1973.5193243483</ele>
        <time>2014-04-12T09:31:26Z</time>
      </trkpt>
      <trkpt lat="42.89789" lon="0.2581">
        <ele>1974.483897364</ele>
        <time>2014-04-12T09:31:32Z</time>
      </trkpt>
      <trkpt lat="42.89787" lon="0.25809">
        <ele>1974.483897364</ele>
        <time>2014-04-12T09:31:37Z</time>
      </trkpt>
      <trkpt lat="42.89782" lon="0.25805">
        <ele>1974.483897364</ele>
        <time>2014-04-12T09:31:41Z</time>
      </trkpt>
      <trkpt lat="42.89779" lon="0.25803">
        <ele>1975.3678707555</ele>
        <time>2014-04-12T09:31:46Z</time>
      </trkpt>
      <trkpt lat="42.89776" lon="0.25802">
        <ele>1975.3678707555</ele>
        <time>2014-04-12T09:31:51Z</time>
      </trkpt>
      <trkpt lat="42.89773" lon="0.25802">
        <ele>1975.3678707555</ele>
        <time>2014-04-12T09:31:57Z</time>
      </trkpt>
      <trkpt lat="42.89772" lon="0.25802">
        <ele>1975.3678707555</ele>
        <time>2014-04-12T09:32:01Z</time>
      </trkpt>
      <trkpt lat="42.89767" lon="0.25801">
        <ele>1976.1945914412</ele>
        <time>2014-04-12T09:32:06Z</time>
      </trkpt>
      <trkpt lat="42.89765" lon="0.258">
        <ele>1976.1945914412</ele>
        <time>2014-04-12T09:32:12Z</time>
      </trkpt>
      <trkpt lat="42.89763" lon="0.258">
        <ele>1976.1945914412</ele>
        <time>2014-04-12T09:32:16Z</time>
      </trkpt>
      <trkpt lat="42.8976" lon="0.25799">
        <ele>1976.1945914412</ele>
        <time>2014-04-12T09:32:20Z</time>
      </trkpt>
      <trkpt lat="42.89757" lon="0.25798">
        <ele>1976.9570667318</ele>
        <time>2014-04-12T09:32:26Z</time>
      </trkpt>
      <trkpt lat="42.89753" lon="0.25795">
        <ele>1976.9570667318</ele>
        <time>2014-04-12T09:32:31Z</time>
      </trkpt>
      <trkpt lat="42.89751" lon="0.25795">
        <ele>1976.9570667318</ele>
        <time>2014-04-12T09:32:36Z</time>
      </trkpt>
      <trkpt lat="42.8975" lon="0.25794">
        <ele>1976.9570667318</ele>
        <time>2014-04-12T09:32:42Z</time>
      </trkpt>
      <trkpt lat="42.89748" lon="0.25794">
        <ele>1977.6778446259</ele>
        <time>2014-04-12T09:32:46Z</time>
      </trkpt>
      <trkpt lat="42.89744" lon="0.25795">
        <ele>1977.6778446259</ele>
        <time>2014-04-12T09:32:52Z</time>
      </trkpt>
      <trkpt lat="42.89739" lon="0.25797">
        <ele>1977.6778446259</ele>
        <time>2014-04-12T09:32:56Z</time>
      </trkpt>
      <trkpt lat="42.89738" lon="0.25799">
        <ele>1978.5076464718</ele>
        <time>2014-04-12T09:33:01Z</time>
      </trkpt>
      <trkpt lat="42.89735" lon="0.25798">
        <ele>1978.5076464718</ele>
        <time>2014-04-12T09:33:07Z</time>
      </trkpt>
      <trkpt lat="42.89734" lon="0.25798">
        <ele>1978.5076464718</ele>
        <time>2014-04-12T09:33:11Z</time>
      </trkpt>
      <trkpt lat="42.89731" lon="0.25801">
        <ele>1978.5076464718</ele>
        <time>2014-04-12T09:33:16Z</time>
      </trkpt>
      <trkpt lat="42.89729" lon="0.25802">
        <ele>1979.4849398613</ele>
        <time>2014-04-12T09:33:22Z</time>
      </trkpt>
      <trkpt lat="42.89727" lon="0.25802">
        <ele>1979.4849398613</ele>
        <time>2014-04-12T09:33:26Z</time>
      </trkpt>
      <trkpt lat="42.89724" lon="0.258">
        <ele>1979.4849398613</ele>
        <time>2014-04-12T09:33:32Z</time>
      </trkpt>
      <trkpt lat="42.89721" lon="0.25801">
        <ele>1979.4849398613</ele>
        <time>2014-04-12T09:33:36Z</time>
      </trkpt>
      <trkpt lat="42.8972" lon="0.25802">
        <ele>1980.5296560066</ele>
        <time>2014-04-12T09:33:42Z</time>
      </trkpt>
      <trkpt lat="42.89717" lon="0.25802">
        <ele>1980.5296560066</ele>
        <time>2014-04-12T09:33:46Z</time>
      </trkpt>
      <trkpt lat="42.89716" lon="0.25802">
        <ele>1980.5296560066</ele>
        <time>2014-04-12T09:33:51Z</time>
      </trkpt>
      <trkpt lat="42.89714" lon="0.25801">
        <ele>1980.5296560066</ele>
        <time>2014-04-12T09:33:56Z</time>
      </trkpt>
      <trkpt lat="42.89712" lon="0.25802">
        <ele>1980.5296560066</ele>
        <time>2014-04-12T09:34:01Z</time>
      </trkpt>
      <trkpt lat="42.89709" lon="0.25802">
        <ele>1981.8123919273</ele>
        <time>2014-04-12T09:34:06Z</time>
      </trkpt>
      <trkpt lat="42.89707" lon="0.25804">
        <ele>1981.8123919273</ele>
        <time>2014-04-12T09:34:12Z</time>
      </trkpt>
      <trkpt lat="42.89705" lon="0.25806">
        <ele>1981.8123919273</ele>
        <time>2014-04-12T09:34:16Z</time>
      </trkpt>
      <trkpt lat="42.89704" lon="0.25806">
        <ele>1981.8123919273</ele>
        <time>2014-04-12T09:34:22Z</time>
      </trkpt>
      <trkpt lat="42.89704" lon="0.25808">
        <ele>1981.8123919273</ele>
        <time>2014-04-12T09:34:26Z</time>
      </trkpt>
      <trkpt lat="42.89701" lon="0.25809">
        <ele>1983.2455340053</ele>
        <time>2014-04-12T09:34:32Z</time>
      </trkpt>
      <trkpt lat="42.897" lon="0.2581">
        <ele>1983.2455340053</ele>
        <time>2014-04-12T09:34:36Z</time>
      </trkpt>
      <trkpt lat="42.89691" lon="0.25811">
        <ele>1984.8051008571</ele>
        <time>2014-04-12T09:34:56Z</time>
      </trkpt>
      <trkpt lat="42.8969" lon="0.25813">
        <ele>1984.8051008571</ele>
        <time>2014-04-12T09:35:02Z</time>
      </trkpt>
      <trkpt lat="42.89687" lon="0.25817">
        <ele>1984.8051008571</ele>
        <time>2014-04-12T09:35:16Z</time>
      </trkpt>
      <trkpt lat="42.89686" lon="0.25817">
        <ele>1984.8051008571</ele>
        <time>2014-04-12T09:35:21Z</time>
      </trkpt>
      <trkpt lat="42.89683" lon="0.25817">
        <ele>1986.5549558829</ele>
        <time>2014-04-12T09:35:27Z</time>
      </trkpt>
      <trkpt lat="42.89682" lon="0.25816">
        <ele>1986.5549558829</ele>
        <time>2014-04-12T09:35:31Z</time>
      </trkpt>
      <trkpt lat="42.89682" lon="0.25816">
        <ele>1986.5549558829</ele>
        <time>2014-04-12T09:35:37Z</time>
      </trkpt>
      <trkpt lat="42.89673" lon="0.25824">
        <ele>1988.8995750685</ele>
        <time>2014-04-12T09:35:51Z</time>
      </trkpt>
      <trkpt lat="42.89671" lon="0.25821">
        <ele>1988.8995750685</ele>
        <time>2014-04-12T09:35:57Z</time>
      </trkpt>
      <trkpt lat="42.89669" lon="0.25818">
        <ele>1988.8995750685</ele>
        <time>2014-04-12T09:36:01Z</time>
      </trkpt>
      <trkpt lat="42.89667" lon="0.25815">
        <ele>1988.8995750685</ele>
        <time>2014-04-12T09:36:07Z</time>
      </trkpt>
      <trkpt lat="42.89666" lon="0.25814">
        <ele>1991.4914705338</ele>
        <time>2014-04-12T09:36:11Z</time>
      </trkpt>
      <trkpt lat="42.89665" lon="0.25813">
        <ele>1991.4914705338</ele>
        <time>2014-04-12T09:36:17Z</time>
      </trkpt>
      <trkpt lat="42.89664" lon="0.25811">
        <ele>1991.4914705338</ele>
        <time>2014-04-12T09:36:21Z</time>
      </trkpt>
      <trkpt lat="42.89664" lon="0.25809">
        <ele>1991.4914705338</ele>
        <time>2014-04-12T09:36:27Z</time>
      </trkpt>
      <trkpt lat="42.89663" lon="0.25807">
        <ele>1991.4914705338</ele>
        <time>2014-04-12T09:36:31Z</time>
      </trkpt>
      <trkpt lat="42.89662" lon="0.25805">
        <ele>1991.4914705338</ele>
        <time>2014-04-12T09:36:36Z</time>
      </trkpt>
      <trkpt lat="42.89661" lon="0.25803">
        <ele>1994.3538313529</ele>
        <time>2014-04-12T09:36:42Z</time>
      </trkpt>
      <trkpt lat="42.8966" lon="0.25801">
        <ele>1994.3538313529</ele>
        <time>2014-04-12T09:36:46Z</time>
      </trkpt>
      <trkpt lat="42.89659" lon="0.25798">
        <ele>1994.3538313529</ele>
        <time>2014-04-12T09:36:51Z</time>
      </trkpt>
      <trkpt lat="42.89658" lon="0.25795">
        <ele>1994.3538313529</ele>
        <time>2014-04-12T09:36:57Z</time>
      </trkpt>
      <trkpt lat="42.89658" lon="0.25791">
        <ele>1997.2191462563</ele>
        <time>2014-04-12T09:37:01Z</time>
      </trkpt>
      <trkpt lat="42.89657" lon="0.25787">
        <ele>1997.2191462563</ele>
        <time>2014-04-12T09:37:05Z</time>
      </trkpt>
      <trkpt lat="42.89656" lon="0.25784">
        <ele>1997.2191462563</ele>
        <time>2014-04-12T09:37:11Z</time>
      </trkpt>
      <trkpt lat="42.89655" lon="0.2578">
        <ele>1997.2191462563</ele>
        <time>2014-04-12T09:37:16Z</time>
      </trkpt>
      <trkpt lat="42.89655" lon="0.25778">
        <ele>2000.1421726434</ele>
        <time>2014-04-12T09:37:21Z</time>
      </trkpt>
      <trkpt lat="42.89655" lon="0.25777">
        <ele>2000.1421726434</ele>
        <time>2014-04-12T09:37:27Z</time>
      </trkpt>
      <trkpt lat="42.89655" lon="0.25776">
        <ele>2000.1421726434</ele>
        <time>2014-04-12T09:37:31Z</time>
      </trkpt>
      <trkpt lat="42.89656" lon="0.25776">
        <ele>2000.1421726434</ele>
        <time>2014-04-12T09:37:36Z</time>
      </trkpt>
      <trkpt lat="42.89655" lon="0.25769">
        <ele>2000.1421726434</ele>
        <time>2014-04-12T09:38:01Z</time>
      </trkpt>
      <trkpt lat="42.89654" lon="0.25762">
        <ele>2003.2311290786</ele>
        <time>2014-04-12T09:38:06Z</time>
      </trkpt>
      <trkpt lat="42.89652" lon="0.25755">
        <ele>2003.2311290786</ele>
        <time>2014-04-12T09:38:11Z</time>
      </trkpt>
      <trkpt lat="42.89651" lon="0.25751">
        <ele>2003.2311290786</ele>
        <time>2014-04-12T09:38:16Z</time>
      </trkpt>
      <trkpt lat="42.89651" lon="0.2575">
        <ele>2006.167906168</ele>
        <time>2014-04-12T09:38:21Z</time>
      </trkpt>
      <trkpt lat="42.8965" lon="0.25748">
        <ele>2006.167906168</ele>
        <time>2014-04-12T09:38:26Z</time>
      </trkpt>
      <trkpt lat="42.8965" lon="0.25745">
        <ele>2006.167906168</ele>
        <time>2014-04-12T09:38:32Z</time>
      </trkpt>
      <trkpt lat="42.89649" lon="0.25742">
        <ele>2006.167906168</ele>
        <time>2014-04-12T09:38:38Z</time>
      </trkpt>
      <trkpt lat="42.89649" lon="0.25742">
        <ele>2006.167906168</ele>
        <time>2014-04-12T09:38:41Z</time>
      </trkpt>
      <trkpt lat="42.89647" lon="0.25741">
        <ele>2006.167906168</ele>
        <time>2014-04-12T09:38:47Z</time>
      </trkpt>
      <trkpt lat="42.89647" lon="0.2574">
        <ele>2008.9896627295</ele>
        <time>2014-04-12T09:38:51Z</time>
      </trkpt>
      <trkpt lat="42.89638" lon="0.2574">
        <ele>2011.7167639918</ele>
        <time>2014-04-12T09:39:26Z</time>
      </trkpt>
      <trkpt lat="42.89637" lon="0.25741">
        <ele>2011.7167639918</ele>
        <time>2014-04-12T09:39:31Z</time>
      </trkpt>
      <trkpt lat="42.89632" lon="0.25746">
        <ele>2011.7167639918</ele>
        <time>2014-04-12T09:39:55Z</time>
      </trkpt>
      <trkpt lat="42.8963" lon="0.25744">
        <ele>2014.3539639361</ele>
        <time>2014-04-12T09:40:00Z</time>
      </trkpt>
      <trkpt lat="42.8963" lon="0.25742">
        <ele>2014.3539639361</ele>
        <time>2014-04-12T09:40:05Z</time>
      </trkpt>
      <trkpt lat="42.89628" lon="0.2574">
        <ele>2014.3539639361</ele>
        <time>2014-04-12T09:40:10Z</time>
      </trkpt>
      <trkpt lat="42.89629" lon="0.25741">
        <ele>2014.3539639361</ele>
        <time>2014-04-12T09:40:15Z</time>
      </trkpt>
      <trkpt lat="42.8963" lon="0.25743">
        <ele>2014.3539639361</ele>
        <time>2014-04-12T09:40:20Z</time>
      </trkpt>
      <trkpt lat="42.89638" lon="0.25751">
        <ele>2017.021243393</ele>
        <time>2014-04-12T09:41:00Z</time>
      </trkpt>
      <trkpt lat="42.89638" lon="0.25751">
        <ele>2017.021243393</ele>
        <time>2014-04-12T09:41:05Z</time>
      </trkpt>
      <trkpt lat="42.89634" lon="0.25751">
        <ele>2017.021243393</ele>
        <time>2014-04-12T09:48:26Z</time>
      </trkpt>
      <trkpt lat="42.89633" lon="0.25751">
        <ele>2017.021243393</ele>
        <time>2014-04-12T09:48:32Z</time>
      </trkpt>
      <trkpt lat="42.89629" lon="0.25753">
        <ele>2022.2940291543</ele>
        <time>2014-04-12T09:48:35Z</time>
      </trkpt>
      <trkpt lat="42.89626" lon="0.25753">
        <ele>2022.2940291543</ele>
        <time>2014-04-12T09:48:41Z</time>
      </trkpt>
      <trkpt lat="42.89624" lon="0.25752">
        <ele>2022.2940291543</ele>
        <time>2014-04-12T09:48:46Z</time>
      </trkpt>
      <trkpt lat="42.89622" lon="0.25753">
        <ele>2022.2940291543</ele>
        <time>2014-04-12T09:48:51Z</time>
      </trkpt>
      <trkpt lat="42.89619" lon="0.25753">
        <ele>2027.1327226286</ele>
        <time>2014-04-12T09:48:56Z</time>
      </trkpt>
      <trkpt lat="42.89615" lon="0.25752">
        <ele>2027.1327226286</ele>
        <time>2014-04-12T09:49:00Z</time>
      </trkpt>
      <trkpt lat="42.89612" lon="0.25751">
        <ele>2027.1327226286</ele>
        <time>2014-04-12T09:49:06Z</time>
      </trkpt>
      <trkpt lat="42.89609" lon="0.25752">
        <ele>2031.5468749812</ele>
        <time>2014-04-12T09:49:11Z</time>
      </trkpt>
      <trkpt lat="42.89608" lon="0.25752">
        <ele>2031.5468749812</ele>
        <time>2014-04-12T09:49:16Z</time>
      </trkpt>
      <trkpt lat="42.89606" lon="0.25751">
        <ele>2031.5468749812</ele>
        <time>2014-04-12T09:49:20Z</time>
      </trkpt>
      <trkpt lat="42.89603" lon="0.25752">
        <ele>2031.5468749812</ele>
        <time>2014-04-12T09:49:26Z</time>
      </trkpt>
      <trkpt lat="42.89602" lon="0.25751">
        <ele>2031.5468749812</ele>
        <time>2014-04-12T09:49:31Z</time>
      </trkpt>
      <trkpt lat="42.896" lon="0.25751">
        <ele>2035.6474855579</ele>
        <time>2014-04-12T09:49:36Z</time>
      </trkpt>
      <trkpt lat="42.89597" lon="0.25749">
        <ele>2035.6474855579</ele>
        <time>2014-04-12T09:49:41Z</time>
      </trkpt>
      <trkpt lat="42.89595" lon="0.2575">
        <ele>2035.6474855579</ele>
        <time>2014-04-12T09:49:46Z</time>
      </trkpt>
      <trkpt lat="42.89593" lon="0.2575">
        <ele>2035.6474855579</ele>
        <time>2014-04-12T09:49:51Z</time>
      </trkpt>
      <trkpt lat="42.89592" lon="0.2575">
        <ele>2035.6474855579</ele>
        <time>2014-04-12T09:49:56Z</time>
      </trkpt>
      <trkpt lat="42.8959" lon="0.25749">
        <ele>2039.5383749982</ele>
        <time>2014-04-12T09:50:01Z</time>
      </trkpt>
      <trkpt lat="42.89588" lon="0.25751">
        <ele>2039.5383749982</ele>
        <time>2014-04-12T09:50:06Z</time>
      </trkpt>
      <trkpt lat="42.89586" lon="0.2575">
        <ele>2039.5383749982</ele>
        <time>2014-04-12T09:50:11Z</time>
      </trkpt>
      <trkpt lat="42.89582" lon="0.25751">
        <ele>2039.5383749982</ele>
        <time>2014-04-12T09:50:16Z</time>
      </trkpt>
      <trkpt lat="42.89581" lon="0.25753">
        <ele>2043.2299651567</ele>
        <time>2014-04-12T09:50:20Z</time>
      </trkpt>
      <trkpt lat="42.89579" lon="0.25753">
        <ele>2043.2299651567</ele>
        <time>2014-04-12T09:50:26Z</time>
      </trkpt>
      <trkpt lat="42.89577" lon="0.25752">
        <ele>2043.2299651567</ele>
        <time>2014-04-12T09:50:31Z</time>
      </trkpt>
      <trkpt lat="42.89577" lon="0.25753">
        <ele>2043.2299651567</ele>
        <time>2014-04-12T09:50:36Z</time>
      </trkpt>
      <trkpt lat="42.89574" lon="0.25757">
        <ele>2043.2299651567</ele>
        <time>2014-04-12T09:50:47Z</time>
      </trkpt>
      <trkpt lat="42.89572" lon="0.25757">
        <ele>2046.9055184593</ele>
        <time>2014-04-12T09:50:51Z</time>
      </trkpt>
      <trkpt lat="42.89569" lon="0.25758">
        <ele>2046.9055184593</ele>
        <time>2014-04-12T09:50:56Z</time>
      </trkpt>
      <trkpt lat="42.89567" lon="0.25759">
        <ele>2046.9055184593</ele>
        <time>2014-04-12T09:51:00Z</time>
      </trkpt>
      <trkpt lat="42.89565" lon="0.25761">
        <ele>2046.9055184593</ele>
        <time>2014-04-12T09:51:05Z</time>
      </trkpt>
      <trkpt lat="42.89563" lon="0.25763">
        <ele>2050.4323652059</ele>
        <time>2014-04-12T09:51:11Z</time>
      </trkpt>
      <trkpt lat="42.89562" lon="0.25764">
        <ele>2050.4323652059</ele>
        <time>2014-04-12T09:51:15Z</time>
      </trkpt>
      <trkpt lat="42.89559" lon="0.25764">
        <ele>2050.4323652059</ele>
        <time>2014-04-12T09:51:46Z</time>
      </trkpt>
      <trkpt lat="42.8956" lon="0.2576">
        <ele>2050.4323652059</ele>
        <time>2014-04-12T09:51:51Z</time>
      </trkpt>
      <trkpt lat="42.8956" lon="0.25759">
        <ele>2050.4323652059</ele>
        <time>2014-04-12T09:51:56Z</time>
      </trkpt>
      <trkpt lat="42.89558" lon="0.25754">
        <ele>2054.1925102431</ele>
        <time>2014-04-12T09:52:00Z</time>
      </trkpt>
      <trkpt lat="42.89558" lon="0.25749">
        <ele>2054.1925102431</ele>
        <time>2014-04-12T09:52:05Z</time>
      </trkpt>
      <trkpt lat="42.89557" lon="0.25744">
        <ele>2054.1925102431</ele>
        <time>2014-04-12T09:52:10Z</time>
      </trkpt>
      <trkpt lat="42.89557" lon="0.25741">
        <ele>2057.6458776086</ele>
        <time>2014-04-12T09:52:16Z</time>
      </trkpt>
      <trkpt lat="42.89558" lon="0.25739">
        <ele>2057.6458776086</ele>
        <time>2014-04-12T09:52:21Z</time>
      </trkpt>
      <trkpt lat="42.89556" lon="0.25735">
        <ele>2057.6458776086</ele>
        <time>2014-04-12T09:52:26Z</time>
      </trkpt>
      <trkpt lat="42.89554" lon="0.2573">
        <ele>2060.8262626767</ele>
        <time>2014-04-12T09:52:31Z</time>
      </trkpt>
      <trkpt lat="42.89553" lon="0.25727">
        <ele>2060.8262626767</ele>
        <time>2014-04-12T09:52:36Z</time>
      </trkpt>
      <trkpt lat="42.89551" lon="0.25722">
        <ele>2060.8262626767</ele>
        <time>2014-04-12T09:52:40Z</time>
      </trkpt>
      <trkpt lat="42.89551" lon="0.25718">
        <ele>2063.7514580424</ele>
        <time>2014-04-12T09:52:46Z</time>
      </trkpt>
      <trkpt lat="42.8955" lon="0.25716">
        <ele>2063.7514580424</ele>
        <time>2014-04-12T09:52:51Z</time>
      </trkpt>
      <trkpt lat="42.89549" lon="0.25709">
        <ele>2063.7514580424</ele>
        <time>2014-04-12T09:52:56Z</time>
      </trkpt>
      <trkpt lat="42.89549" lon="0.25704">
        <ele>2066.4099654276</ele>
        <time>2014-04-12T09:53:00Z</time>
      </trkpt>
      <trkpt lat="42.89548" lon="0.257">
        <ele>2066.4099654276</ele>
        <time>2014-04-12T09:53:06Z</time>
      </trkpt>
      <trkpt lat="42.89548" lon="0.25697">
        <ele>2066.4099654276</ele>
        <time>2014-04-12T09:53:11Z</time>
      </trkpt>
      <trkpt lat="42.89549" lon="0.25697">
        <ele>2066.4099654276</ele>
        <time>2014-04-12T09:53:16Z</time>
      </trkpt>
      <trkpt lat="42.89549" lon="0.25696">
        <ele>2066.4099654276</ele>
        <time>2014-04-12T09:53:20Z</time>
      </trkpt>
      <trkpt lat="42.89549" lon="0.25695">
        <ele>2066.4099654276</ele>
        <time>2014-04-12T09:53:26Z</time>
      </trkpt>
      <trkpt lat="42.89549" lon="0.25691">
        <ele>2069.0658084384</ele>
        <time>2014-04-12T09:53:31Z</time>
      </trkpt>
      <trkpt lat="42.89549" lon="0.25688">
        <ele>2069.0658084384</ele>
        <time>2014-04-12T09:53:36Z</time>
      </trkpt>
      <trkpt lat="42.89548" lon="0.25687">
        <ele>2069.0658084384</ele>
        <time>2014-04-12T09:53:41Z</time>
      </trkpt>
      <trkpt lat="42.89548" lon="0.25683">
        <ele>2069.0658084384</ele>
        <time>2014-04-12T09:53:46Z</time>
      </trkpt>
      <trkpt lat="42.89548" lon="0.25679">
        <ele>2071.6034568144</ele>
        <time>2014-04-12T09:53:51Z</time>
      </trkpt>
      <trkpt lat="42.89548" lon="0.25674">
        <ele>2071.6034568144</ele>
        <time>2014-04-12T09:53:56Z</time>
      </trkpt>
      <trkpt lat="42.89546" lon="0.25669">
        <ele>2071.6034568144</ele>
        <time>2014-04-12T09:54:00Z</time>
      </trkpt>
      <trkpt lat="42.89545" lon="0.25665">
        <ele>2073.9307138166</ele>
        <time>2014-04-12T09:54:06Z</time>
      </trkpt>
      <trkpt lat="42.89543" lon="0.25663">
        <ele>2073.9307138166</ele>
        <time>2014-04-12T09:54:11Z</time>
      </trkpt>
      <trkpt lat="42.89543" lon="0.25661">
        <ele>2073.9307138166</ele>
        <time>2014-04-12T09:54:16Z</time>
      </trkpt>
      <trkpt lat="42.89542" lon="0.25657">
        <ele>2073.9307138166</ele>
        <time>2014-04-12T09:54:20Z</time>
      </trkpt>
      <trkpt lat="42.89541" lon="0.25652">
        <ele>2076.2654749675</ele>
        <time>2014-04-12T09:54:26Z</time>
      </trkpt>
      <trkpt lat="42.8954" lon="0.2565">
        <ele>2076.2654749675</ele>
        <time>2014-04-12T09:54:31Z</time>
      </trkpt>
      <trkpt lat="42.89541" lon="0.25648">
        <ele>2076.2654749675</ele>
        <time>2014-04-12T09:54:36Z</time>
      </trkpt>
      <trkpt lat="42.89541" lon="0.25647">
        <ele>2076.2654749675</ele>
        <time>2014-04-12T09:54:41Z</time>
      </trkpt>
      <trkpt lat="42.89543" lon="0.25643">
        <ele>2076.2654749675</ele>
        <time>2014-04-12T09:54:52Z</time>
      </trkpt>
      <trkpt lat="42.89543" lon="0.25642">
        <ele>2076.2654749675</ele>
        <time>2014-04-12T09:54:56Z</time>
      </trkpt>
      <trkpt lat="42.89543" lon="0.25638">
        <ele>2078.7088180227</ele>
        <time>2014-04-12T09:55:00Z</time>
      </trkpt>
      <trkpt lat="42.89543" lon="0.25635">
        <ele>2078.7088180227</ele>
        <time>2014-04-12T09:55:06Z</time>
      </trkpt>
      <trkpt lat="42.89542" lon="0.25631">
        <ele>2078.7088180227</ele>
        <time>2014-04-12T09:55:12Z</time>
      </trkpt>
      <trkpt lat="42.89543" lon="0.25626">
        <ele>2081.0659477597</ele>
        <time>2014-04-12T09:55:16Z</time>
      </trkpt>
      <trkpt lat="42.89544" lon="0.25625">
        <ele>2081.0659477597</ele>
        <time>2014-04-12T09:55:21Z</time>
      </trkpt>
      <trkpt lat="42.89545" lon="0.25624">
        <ele>2081.0659477597</ele>
        <time>2014-04-12T09:55:26Z</time>
      </trkpt>
      <trkpt lat="42.89547" lon="0.25622">
        <ele>2081.0659477597</ele>
        <time>2014-04-12T09:55:32Z</time>
      </trkpt>
      <trkpt lat="42.89548" lon="0.25622">
        <ele>2081.0659477597</ele>
        <time>2014-04-12T09:55:36Z</time>
      </trkpt>
      <trkpt lat="42.89548" lon="0.25623">
        <ele>2081.0659477597</ele>
        <time>2014-04-12T09:55:40Z</time>
      </trkpt>
      <trkpt lat="42.89549" lon="0.25618">
        <ele>2084.8572054227</ele>
        <time>2014-04-12T09:56:21Z</time>
      </trkpt>
      <trkpt lat="42.89547" lon="0.25616">
        <ele>2084.8572054227</ele>
        <time>2014-04-12T09:56:27Z</time>
      </trkpt>
      <trkpt lat="42.89546" lon="0.25614">
        <ele>2084.8572054227</ele>
        <time>2014-04-12T09:56:31Z</time>
      </trkpt>
      <trkpt lat="42.89544" lon="0.25615">
        <ele>2084.8572054227</ele>
        <time>2014-04-12T09:56:36Z</time>
      </trkpt>
      <trkpt lat="42.8954" lon="0.25616">
        <ele>2088.5041940624</ele>
        <time>2014-04-12T09:56:40Z</time>
      </trkpt>
      <trkpt lat="42.89536" lon="0.25617">
        <ele>2088.5041940624</ele>
        <time>2014-04-12T09:56:47Z</time>
      </trkpt>
      <trkpt lat="42.89534" lon="0.2562">
        <ele>2088.5041940624</ele>
        <time>2014-04-12T09:56:51Z</time>
      </trkpt>
      <trkpt lat="42.89533" lon="0.25621">
        <ele>2088.5041940624</ele>
        <time>2014-04-12T09:56:56Z</time>
      </trkpt>
      <trkpt lat="42.89532" lon="0.25619">
        <ele>2091.9860494037</ele>
        <time>2014-04-12T09:57:01Z</time>
      </trkpt>
      <trkpt lat="42.89529" lon="0.25621">
        <ele>2091.9860494037</ele>
        <time>2014-04-12T09:57:06Z</time>
      </trkpt>
      <trkpt lat="42.89525" lon="0.25621">
        <ele>2091.9860494037</ele>
        <time>2014-04-12T09:57:11Z</time>
      </trkpt>
      <trkpt lat="42.89524" lon="0.25618">
        <ele>2095.1542714983</ele>
        <time>2014-04-12T09:57:16Z</time>
      </trkpt>
      <trkpt lat="42.89522" lon="0.25619">
        <ele>2095.1542714983</ele>
        <time>2014-04-12T09:57:20Z</time>
      </trkpt>
      <trkpt lat="42.89522" lon="0.25619">
        <ele>2095.1542714983</ele>
        <time>2014-04-12T09:57:26Z</time>
      </trkpt>
      <trkpt lat="42.89515" lon="0.25621">
        <ele>2098.0595624052</ele>
        <time>2014-04-12T09:57:36Z</time>
      </trkpt>
      <trkpt lat="42.89512" lon="0.25621">
        <ele>2098.0595624052</ele>
        <time>2014-04-12T09:57:41Z</time>
      </trkpt>
      <trkpt lat="42.8951" lon="0.25621">
        <ele>2098.0595624052</ele>
        <time>2014-04-12T09:57:46Z</time>
      </trkpt>
      <trkpt lat="42.89508" lon="0.25624">
        <ele>2098.0595624052</ele>
        <time>2014-04-12T09:57:51Z</time>
      </trkpt>
      <trkpt lat="42.89505" lon="0.25625">
        <ele>2100.7785268045</ele>
        <time>2014-04-12T09:57:56Z</time>
      </trkpt>
      <trkpt lat="42.89502" lon="0.25626">
        <ele>2100.7785268045</ele>
        <time>2014-04-12T09:58:01Z</time>
      </trkpt>
      <trkpt lat="42.895" lon="0.25627">
        <ele>2100.7785268045</ele>
        <time>2014-04-12T09:58:06Z</time>
      </trkpt>
      <trkpt lat="42.89499" lon="0.25627">
        <ele>2100.7785268045</ele>
        <time>2014-04-12T09:58:11Z</time>
      </trkpt>
      <trkpt lat="42.89499" lon="0.25626">
        <ele>2100.7785268045</ele>
        <time>2014-04-12T09:58:16Z</time>
      </trkpt>
      <trkpt lat="42.89495" lon="0.25631">
        <ele>2103.656540239</ele>
        <time>2014-04-12T09:58:56Z</time>
      </trkpt>
      <trkpt lat="42.89493" lon="0.25632">
        <ele>2103.656540239</ele>
        <time>2014-04-12T09:59:00Z</time>
      </trkpt>
      <trkpt lat="42.89491" lon="0.25634">
        <ele>2103.656540239</ele>
        <time>2014-04-12T09:59:06Z</time>
      </trkpt>
      <trkpt lat="42.89489" lon="0.25636">
        <ele>2103.656540239</ele>
        <time>2014-04-12T09:59:11Z</time>
      </trkpt>
      <trkpt lat="42.89488" lon="0.25637">
        <ele>2103.656540239</ele>
        <time>2014-04-12T09:59:16Z</time>
      </trkpt>
      <trkpt lat="42.89486" lon="0.25638">
        <ele>2106.3647205902</ele>
        <time>2014-04-12T09:59:20Z</time>
      </trkpt>
      <trkpt lat="42.89483" lon="0.25639">
        <ele>2106.3647205902</ele>
        <time>2014-04-12T09:59:26Z</time>
      </trkpt>
      <trkpt lat="42.8948" lon="0.25641">
        <ele>2106.3647205902</ele>
        <time>2014-04-12T09:59:31Z</time>
      </trkpt>
      <trkpt lat="42.89477" lon="0.25643">
        <ele>2109.132088028</ele>
        <time>2014-04-12T09:59:36Z</time>
      </trkpt>
      <trkpt lat="42.89474" lon="0.25644">
        <ele>2109.132088028</ele>
        <time>2014-04-12T09:59:41Z</time>
      </trkpt>
      <trkpt lat="42.89472" lon="0.25645">
        <ele>2109.132088028</ele>
        <time>2014-04-12T09:59:46Z</time>
      </trkpt>
      <trkpt lat="42.8947" lon="0.25647">
        <ele>2109.132088028</ele>
        <time>2014-04-12T09:59:50Z</time>
      </trkpt>
      <trkpt lat="42.89468" lon="0.2565">
        <ele>2112.0554345842</ele>
        <time>2014-04-12T09:59:57Z</time>
      </trkpt>
      <trkpt lat="42.89467" lon="0.25652">
        <ele>2112.0554345842</ele>
        <time>2014-04-12T10:00:00Z</time>
      </trkpt>
      <trkpt lat="42.89464" lon="0.25653">
        <ele>2112.0554345842</ele>
        <time>2014-04-12T10:00:06Z</time>
      </trkpt>
      <trkpt lat="42.89461" lon="0.2566">
        <ele>2115.1087621169</ele>
        <time>2014-04-12T10:00:11Z</time>
      </trkpt>
      <trkpt lat="42.8946" lon="0.25665">
        <ele>2115.1087621169</ele>
        <time>2014-04-12T10:00:17Z</time>
      </trkpt>
      <trkpt lat="42.89458" lon="0.25676">
        <ele>2118.4694170706</ele>
        <time>2014-04-12T10:00:36Z</time>
      </trkpt>
      <trkpt lat="42.89456" lon="0.25677">
        <ele>2118.4694170706</ele>
        <time>2014-04-12T10:00:41Z</time>
      </trkpt>
      <trkpt lat="42.89455" lon="0.25679">
        <ele>2118.4694170706</ele>
        <time>2014-04-12T10:01:11Z</time>
      </trkpt>
      <trkpt lat="42.89455" lon="0.25675">
        <ele>2118.4694170706</ele>
        <time>2014-04-12T10:01:16Z</time>
      </trkpt>
      <trkpt lat="42.89456" lon="0.25671">
        <ele>2122.0126760664</ele>
        <time>2014-04-12T10:01:21Z</time>
      </trkpt>
      <trkpt lat="42.89455" lon="0.25669">
        <ele>2122.0126760664</ele>
        <time>2014-04-12T10:01:26Z</time>
      </trkpt>
      <trkpt lat="42.89454" lon="0.25664">
        <ele>2122.0126760664</ele>
        <time>2014-04-12T10:01:31Z</time>
      </trkpt>
      <trkpt lat="42.89454" lon="0.25662">
        <ele>2122.0126760664</ele>
        <time>2014-04-12T10:01:35Z</time>
      </trkpt>
      <trkpt lat="42.89454" lon="0.25659">
        <ele>2125.1613515362</ele>
        <time>2014-04-12T10:01:41Z</time>
      </trkpt>
      <trkpt lat="42.89455" lon="0.25654">
        <ele>2125.1613515362</ele>
        <time>2014-04-12T10:01:46Z</time>
      </trkpt>
      <trkpt lat="42.89455" lon="0.25653">
        <ele>2125.1613515362</ele>
        <time>2014-04-12T10:01:51Z</time>
      </trkpt>
      <trkpt lat="42.89455" lon="0.25648">
        <ele>2125.1613515362</ele>
        <time>2014-04-12T10:01:56Z</time>
      </trkpt>
      <trkpt lat="42.89456" lon="0.25645">
        <ele>2128.0014817117</ele>
        <time>2014-04-12T10:02:01Z</time>
      </trkpt>
      <trkpt lat="42.89456" lon="0.25642">
        <ele>2128.0014817117</ele>
        <time>2014-04-12T10:02:06Z</time>
      </trkpt>
      <trkpt lat="42.89456" lon="0.25638">
        <ele>2128.0014817117</ele>
        <time>2014-04-12T10:02:11Z</time>
      </trkpt>
      <trkpt lat="42.89456" lon="0.25635">
        <ele>2128.0014817117</ele>
        <time>2014-04-12T10:02:16Z</time>
      </trkpt>
      <trkpt lat="42.89454" lon="0.25633">
        <ele>2130.5272226107</ele>
        <time>2014-04-12T10:02:21Z</time>
      </trkpt>
      <trkpt lat="42.89456" lon="0.25627">
        <ele>2130.5272226107</ele>
        <time>2014-04-12T10:02:36Z</time>
      </trkpt>
      <trkpt lat="42.89454" lon="0.25623">
        <ele>2130.5272226107</ele>
        <time>2014-04-12T10:02:41Z</time>
      </trkpt>
      <trkpt lat="42.89452" lon="0.25619">
        <ele>2132.9070105538</ele>
        <time>2014-04-12T10:02:46Z</time>
      </trkpt>
      <trkpt lat="42.89451" lon="0.25616">
        <ele>2132.9070105538</ele>
        <time>2014-04-12T10:02:51Z</time>
      </trkpt>
      <trkpt lat="42.8945" lon="0.25617">
        <ele>2132.9070105538</ele>
        <time>2014-04-12T10:02:56Z</time>
      </trkpt>
      <trkpt lat="42.89451" lon="0.25618">
        <ele>2132.9070105538</ele>
        <time>2014-04-12T10:03:00Z</time>
      </trkpt>
      <trkpt lat="42.89447" lon="0.25612">
        <ele>2135.0955923386</ele>
        <time>2014-04-12T10:03:05Z</time>
      </trkpt>
      <trkpt lat="42.89444" lon="0.25611">
        <ele>2135.0955923386</ele>
        <time>2014-04-12T10:03:11Z</time>
      </trkpt>
      <trkpt lat="42.89442" lon="0.2561">
        <ele>2135.0955923386</ele>
        <time>2014-04-12T10:03:16Z</time>
      </trkpt>
      <trkpt lat="42.8944" lon="0.25611">
        <ele>2135.0955923386</ele>
        <time>2014-04-12T10:03:21Z</time>
      </trkpt>
      <trkpt lat="42.89441" lon="0.25611">
        <ele>2135.0955923386</ele>
        <time>2014-04-12T10:03:26Z</time>
      </trkpt>
      <trkpt lat="42.89439" lon="0.2561">
        <ele>2135.0955923386</ele>
        <time>2014-04-12T10:03:46Z</time>
      </trkpt>
      <trkpt lat="42.89434" lon="0.25613">
        <ele>2138.3197783881</ele>
        <time>2014-04-12T10:03:52Z</time>
      </trkpt>
      <trkpt lat="42.8943" lon="0.25614">
        <ele>2138.3197783881</ele>
        <time>2014-04-12T10:03:56Z</time>
      </trkpt>
      <trkpt lat="42.89426" lon="0.25614">
        <ele>2138.3197783881</ele>
        <time>2014-04-12T10:04:01Z</time>
      </trkpt>
      <trkpt lat="42.89424" lon="0.25614">
        <ele>2141.4075943688</ele>
        <time>2014-04-12T10:04:06Z</time>
      </trkpt>
      <trkpt lat="42.89421" lon="0.25613">
        <ele>2141.4075943688</ele>
        <time>2014-04-12T10:04:11Z</time>
      </trkpt>
      <trkpt lat="42.89419" lon="0.25612">
        <ele>2141.4075943688</ele>
        <time>2014-04-12T10:04:16Z</time>
      </trkpt>
      <trkpt lat="42.89415" lon="0.25612">
        <ele>2144.4408580951</ele>
        <time>2014-04-12T10:04:21Z</time>
      </trkpt>
      <trkpt lat="42.89413" lon="0.25614">
        <ele>2144.4408580951</ele>
        <time>2014-04-12T10:04:26Z</time>
      </trkpt>
      <trkpt lat="42.89407" lon="0.25616">
        <ele>2144.4408580951</ele>
        <time>2014-04-12T10:04:31Z</time>
      </trkpt>
      <trkpt lat="42.89408" lon="0.25616">
        <ele>2144.4408580951</ele>
        <time>2014-04-12T10:04:36Z</time>
      </trkpt>
      <trkpt lat="42.89409" lon="0.25615">
        <ele>2147.3946671591</ele>
        <time>2014-04-12T10:04:41Z</time>
      </trkpt>
      <trkpt lat="42.89407" lon="0.25616">
        <ele>2147.3946671591</ele>
        <time>2014-04-12T10:04:55Z</time>
      </trkpt>
      <trkpt lat="42.89404" lon="0.25619">
        <ele>2147.3946671591</ele>
        <time>2014-04-12T10:05:02Z</time>
      </trkpt>
      <trkpt lat="42.89403" lon="0.2562">
        <ele>2147.3946671591</ele>
        <time>2014-04-12T10:05:05Z</time>
      </trkpt>
      <trkpt lat="42.894" lon="0.25621">
        <ele>2150.6641083982</ele>
        <time>2014-04-12T10:05:11Z</time>
      </trkpt>
      <trkpt lat="42.89398" lon="0.25621">
        <ele>2150.6641083982</ele>
        <time>2014-04-12T10:05:16Z</time>
      </trkpt>
      <trkpt lat="42.89396" lon="0.25619">
        <ele>2150.6641083982</ele>
        <time>2014-04-12T10:05:21Z</time>
      </trkpt>
      <trkpt lat="42.89396" lon="0.25617">
        <ele>2150.6641083982</ele>
        <time>2014-04-12T10:05:25Z</time>
      </trkpt>
      <trkpt lat="42.89395" lon="0.25614">
        <ele>2150.6641083982</ele>
        <time>2014-04-12T10:05:31Z</time>
      </trkpt>
      <trkpt lat="42.89394" lon="0.25611">
        <ele>2153.7497074366</ele>
        <time>2014-04-12T10:05:35Z</time>
      </trkpt>
      <trkpt lat="42.89393" lon="0.25609">
        <ele>2153.7497074366</ele>
        <time>2014-04-12T10:05:41Z</time>
      </trkpt>
      <trkpt lat="42.89394" lon="0.25606">
        <ele>2153.7497074366</ele>
        <time>2014-04-12T10:05:45Z</time>
      </trkpt>
      <trkpt lat="42.89395" lon="0.25606">
        <ele>2153.7497074366</ele>
        <time>2014-04-12T10:05:51Z</time>
      </trkpt>
      <trkpt lat="42.89391" lon="0.25603">
        <ele>2153.7497074366</ele>
        <time>2014-04-12T10:06:17Z</time>
      </trkpt>
      <trkpt lat="42.89392" lon="0.256">
        <ele>2156.4053763939</ele>
        <time>2014-04-12T10:06:21Z</time>
      </trkpt>
      <trkpt lat="42.89392" lon="0.25597">
        <ele>2156.4053763939</ele>
        <time>2014-04-12T10:06:26Z</time>
      </trkpt>
      <trkpt lat="42.89393" lon="0.25592">
        <ele>2156.4053763939</ele>
        <time>2014-04-12T10:06:31Z</time>
      </trkpt>
      <trkpt lat="42.89394" lon="0.25588">
        <ele>2158.7934220071</ele>
        <time>2014-04-12T10:06:36Z</time>
      </trkpt>
      <trkpt lat="42.89393" lon="0.25585">
        <ele>2158.7934220071</ele>
        <time>2014-04-12T10:06:41Z</time>
      </trkpt>
      <trkpt lat="42.89393" lon="0.25585">
        <ele>2158.7934220071</ele>
        <time>2014-04-12T10:06:46Z</time>
      </trkpt>
      <trkpt lat="42.89394" lon="0.25581">
        <ele>2158.7934220071</ele>
        <time>2014-04-12T10:06:51Z</time>
      </trkpt>
      <trkpt lat="42.89396" lon="0.25576">
        <ele>2160.9929307575</ele>
        <time>2014-04-12T10:06:56Z</time>
      </trkpt>
      <trkpt lat="42.89397" lon="0.25574">
        <ele>2160.9929307575</ele>
        <time>2014-04-12T10:07:01Z</time>
      </trkpt>
      <trkpt lat="42.89398" lon="0.25573">
        <ele>2160.9929307575</ele>
        <time>2014-04-12T10:07:05Z</time>
      </trkpt>
      <trkpt lat="42.89394" lon="0.25566">
        <ele>2160.9929307575</ele>
        <time>2014-04-12T10:07:25Z</time>
      </trkpt>
      <trkpt lat="42.8939" lon="0.25568">
        <ele>2163.4235780377</ele>
        <time>2014-04-12T10:07:31Z</time>
      </trkpt>
      <trkpt lat="42.89387" lon="0.2557">
        <ele>2163.4235780377</ele>
        <time>2014-04-12T10:07:36Z</time>
      </trkpt>
      <trkpt lat="42.89385" lon="0.2557">
        <ele>2163.4235780377</ele>
        <time>2014-04-12T10:07:41Z</time>
      </trkpt>
      <trkpt lat="42.89381" lon="0.25572">
        <ele>2165.9259367554</ele>
        <time>2014-04-12T10:07:46Z</time>
      </trkpt>
      <trkpt lat="42.89379" lon="0.25573">
        <ele>2165.9259367554</ele>
        <time>2014-04-12T10:07:51Z</time>
      </trkpt>
      <trkpt lat="42.89376" lon="0.25574">
        <ele>2165.9259367554</ele>
        <time>2014-04-12T10:07:56Z</time>
      </trkpt>
      <trkpt lat="42.89375" lon="0.25577">
        <ele>2165.9259367554</ele>
        <time>2014-04-12T10:08:00Z</time>
      </trkpt>
      <trkpt lat="42.89374" lon="0.25578">
        <ele>2165.9259367554</ele>
        <time>2014-04-12T10:08:06Z</time>
      </trkpt>
      <trkpt lat="42.8937" lon="0.25581">
        <ele>2168.7844165153</ele>
        <time>2014-04-12T10:08:26Z</time>
      </trkpt>
      <trkpt lat="42.89367" lon="0.25581">
        <ele>2168.7844165153</ele>
        <time>2014-04-12T10:08:30Z</time>
      </trkpt>
      <trkpt lat="42.89364" lon="0.2558">
        <ele>2168.7844165153</ele>
        <time>2014-04-12T10:08:37Z</time>
      </trkpt>
      <trkpt lat="42.8936" lon="0.25581">
        <ele>2171.5265578085</ele>
        <time>2014-04-12T10:08:41Z</time>
      </trkpt>
      <trkpt lat="42.89357" lon="0.25581">
        <ele>2171.5265578085</ele>
        <time>2014-04-12T10:08:46Z</time>
      </trkpt>
      <trkpt lat="42.89355" lon="0.25582">
        <ele>2171.5265578085</ele>
        <time>2014-04-12T10:08:50Z</time>
      </trkpt>
      <trkpt lat="42.89352" lon="0.25584">
        <ele>2171.5265578085</ele>
        <time>2014-04-12T10:08:56Z</time>
      </trkpt>
      <trkpt lat="42.89351" lon="0.25584">
        <ele>2174.2048991745</ele>
        <time>2014-04-12T10:09:01Z</time>
      </trkpt>
      <trkpt lat="42.89353" lon="0.25583">
        <ele>2174.2048991745</ele>
        <time>2014-04-12T10:10:21Z</time>
      </trkpt>
      <trkpt lat="42.89352" lon="0.25579">
        <ele>2174.2048991745</ele>
        <time>2014-04-12T10:10:26Z</time>
      </trkpt>
      <trkpt lat="42.89351" lon="0.25574">
        <ele>2176.810639603</ele>
        <time>2014-04-12T10:10:31Z</time>
      </trkpt>
      <trkpt lat="42.89351" lon="0.25569">
        <ele>2176.810639603</ele>
        <time>2014-04-12T10:10:36Z</time>
      </trkpt>
      <trkpt lat="42.8935" lon="0.25567">
        <ele>2176.810639603</ele>
        <time>2014-04-12T10:10:41Z</time>
      </trkpt>
      <trkpt lat="42.89348" lon="0.25561">
        <ele>2179.0908225758</ele>
        <time>2014-04-12T10:10:46Z</time>
      </trkpt>
      <trkpt lat="42.89348" lon="0.25557">
        <ele>2179.0908225758</ele>
        <time>2014-04-12T10:10:51Z</time>
      </trkpt>
      <trkpt lat="42.89347" lon="0.25553">
        <ele>2179.0908225758</ele>
        <time>2014-04-12T10:10:56Z</time>
      </trkpt>
      <trkpt lat="42.89347" lon="0.25548">
        <ele>2181.0857781494</ele>
        <time>2014-04-12T10:11:01Z</time>
      </trkpt>
      <trkpt lat="42.89345" lon="0.25543">
        <ele>2181.0857781494</ele>
        <time>2014-04-12T10:11:06Z</time>
      </trkpt>
      <trkpt lat="42.89345" lon="0.25539">
        <ele>2181.0857781494</ele>
        <time>2014-04-12T10:11:11Z</time>
      </trkpt>
      <trkpt lat="42.89345" lon="0.25537">
        <ele>2181.0857781494</ele>
        <time>2014-04-12T10:11:16Z</time>
      </trkpt>
      <trkpt lat="42.89345" lon="0.25536">
        <ele>2182.7327712899</ele>
        <time>2014-04-12T10:11:21Z</time>
      </trkpt>
      <trkpt lat="42.89345" lon="0.25529">
        <ele>2182.7327712899</ele>
        <time>2014-04-12T10:11:41Z</time>
      </trkpt>
      <trkpt lat="42.89344" lon="0.25526">
        <ele>2182.7327712899</ele>
        <time>2014-04-12T10:11:46Z</time>
      </trkpt>
      <trkpt lat="42.89343" lon="0.25523">
        <ele>2184.2772538598</ele>
        <time>2014-04-12T10:11:51Z</time>
      </trkpt>
      <trkpt lat="42.89343" lon="0.25514">
        <ele>2184.2772538598</ele>
        <time>2014-04-12T10:11:56Z</time>
      </trkpt>
      <trkpt lat="42.89344" lon="0.2551">
        <ele>2185.5577951122</ele>
        <time>2014-04-12T10:12:01Z</time>
      </trkpt>
      <trkpt lat="42.89343" lon="0.25509">
        <ele>2185.5577951122</ele>
        <time>2014-04-12T10:12:06Z</time>
      </trkpt>
      <trkpt lat="42.89342" lon="0.25502">
        <ele>2185.5577951122</ele>
        <time>2014-04-12T10:12:11Z</time>
      </trkpt>
      <trkpt lat="42.89342" lon="0.25497">
        <ele>2186.6705037273</ele>
        <time>2014-04-12T10:12:16Z</time>
      </trkpt>
      <trkpt lat="42.89342" lon="0.25498">
        <ele>2186.6705037273</ele>
        <time>2014-04-12T10:12:21Z</time>
      </trkpt>
      <trkpt lat="42.89341" lon="0.25492">
        <ele>2186.6705037273</ele>
        <time>2014-04-12T10:12:26Z</time>
      </trkpt>
      <trkpt lat="42.89341" lon="0.2549">
        <ele>2186.6705037273</ele>
        <time>2014-04-12T10:12:31Z</time>
      </trkpt>
      <trkpt lat="42.89342" lon="0.25486">
        <ele>2187.6183736328</ele>
        <time>2014-04-12T10:12:36Z</time>
      </trkpt>
      <trkpt lat="42.89341" lon="0.25481">
        <ele>2187.6183736328</ele>
        <time>2014-04-12T10:12:42Z</time>
      </trkpt>
      <trkpt lat="42.89341" lon="0.25477">
        <ele>2187.6183736328</ele>
        <time>2014-04-12T10:12:46Z</time>
      </trkpt>
      <trkpt lat="42.8934" lon="0.25475">
        <ele>2187.6183736328</ele>
        <time>2014-04-12T10:12:50Z</time>
      </trkpt>
      <trkpt lat="42.89341" lon="0.25476">
        <ele>2188.4766274223</ele>
        <time>2014-04-12T10:12:56Z</time>
      </trkpt>
      <trkpt lat="42.89341" lon="0.25476">
        <ele>2188.4766274223</ele>
        <time>2014-04-12T10:13:01Z</time>
      </trkpt>
      <trkpt lat="42.8934" lon="0.25471">
        <ele>2188.4766274223</ele>
        <time>2014-04-12T10:13:16Z</time>
      </trkpt>
      <trkpt lat="42.89341" lon="0.25465">
        <ele>2188.4766274223</ele>
        <time>2014-04-12T10:13:21Z</time>
      </trkpt>
      <trkpt lat="42.89341" lon="0.25464">
        <ele>2189.3727776537</ele>
        <time>2014-04-12T10:13:26Z</time>
      </trkpt>
      <trkpt lat="42.89345" lon="0.25451">
        <ele>2190.2518397318</ele>
        <time>2014-04-12T10:13:57Z</time>
      </trkpt>
      <trkpt lat="42.89346" lon="0.25447">
        <ele>2190.2518397318</ele>
        <time>2014-04-12T10:14:01Z</time>
      </trkpt>
      <trkpt lat="42.89346" lon="0.25442">
        <ele>2190.2518397318</ele>
        <time>2014-04-12T10:14:06Z</time>
      </trkpt>
      <trkpt lat="42.89347" lon="0.25438">
        <ele>2191.00517137</ele>
        <time>2014-04-12T10:14:11Z</time>
      </trkpt>
      <trkpt lat="42.89346" lon="0.25433">
        <ele>2191.00517137</ele>
        <time>2014-04-12T10:14:16Z</time>
      </trkpt>
      <trkpt lat="42.89347" lon="0.25426">
        <ele>2191.6332320429</ele>
        <time>2014-04-12T10:14:21Z</time>
      </trkpt>
      <trkpt lat="42.89348" lon="0.25424">
        <ele>2191.6332320429</ele>
        <time>2014-04-12T10:14:26Z</time>
      </trkpt>
      <trkpt lat="42.89348" lon="0.2542">
        <ele>2191.6332320429</ele>
        <time>2014-04-12T10:14:30Z</time>
      </trkpt>
      <trkpt lat="42.89349" lon="0.25419">
        <ele>2191.6332320429</ele>
        <time>2014-04-12T10:14:36Z</time>
      </trkpt>
      <trkpt lat="42.89348" lon="0.25415">
        <ele>2192.3240253177</ele>
        <time>2014-04-12T10:14:41Z</time>
      </trkpt>
      <trkpt lat="42.89347" lon="0.25414">
        <ele>2192.3240253177</ele>
        <time>2014-04-12T10:14:46Z</time>
      </trkpt>
      <trkpt lat="42.89345" lon="0.25407">
        <ele>2192.3240253177</ele>
        <time>2014-04-12T10:14:50Z</time>
      </trkpt>
      <trkpt lat="42.89347" lon="0.25404">
        <ele>2193.0929199378</ele>
        <time>2014-04-12T10:14:55Z</time>
      </trkpt>
      <trkpt lat="42.89348" lon="0.25403">
        <ele>2193.0929199378</ele>
        <time>2014-04-12T10:15:01Z</time>
      </trkpt>
      <trkpt lat="42.89353" lon="0.25394">
        <ele>2193.0929199378</ele>
        <time>2014-04-12T10:15:16Z</time>
      </trkpt>
      <trkpt lat="42.89351" lon="0.2539">
        <ele>2194.4726048653</ele>
        <time>2014-04-12T10:15:21Z</time>
      </trkpt>
      <trkpt lat="42.89351" lon="0.25387">
        <ele>2194.4726048653</ele>
        <time>2014-04-12T10:15:26Z</time>
      </trkpt>
      <trkpt lat="42.89352" lon="0.25386">
        <ele>2194.4726048653</ele>
        <time>2014-04-12T10:15:31Z</time>
      </trkpt>
      <trkpt lat="42.89352" lon="0.25384">
        <ele>2194.4726048653</ele>
        <time>2014-04-12T10:15:36Z</time>
      </trkpt>
      <trkpt lat="42.89351" lon="0.25383">
        <ele>2194.4726048653</ele>
        <time>2014-04-12T10:15:41Z</time>
      </trkpt>
      <trkpt lat="42.89352" lon="0.2538">
        <ele>2194.4726048653</ele>
        <time>2014-04-12T10:15:46Z</time>
      </trkpt>
      <trkpt lat="42.89354" lon="0.25377">
        <ele>2196.2630556193</ele>
        <time>2014-04-12T10:15:50Z</time>
      </trkpt>
      <trkpt lat="42.89356" lon="0.25378">
        <ele>2196.2630556193</ele>
        <time>2014-04-12T10:15:56Z</time>
      </trkpt>
      <trkpt lat="42.89356" lon="0.25383">
        <ele>2196.2630556193</ele>
        <time>2014-04-12T10:16:06Z</time>
      </trkpt>
      <trkpt lat="42.89358" lon="0.25385">
        <ele>2196.2630556193</ele>
        <time>2014-04-12T10:16:11Z</time>
      </trkpt>
      <trkpt lat="42.89357" lon="0.25385">
        <ele>2196.2630556193</ele>
        <time>2014-04-12T10:16:20Z</time>
      </trkpt>
      <trkpt lat="42.89358" lon="0.25383">
        <ele>2198.2776533397</ele>
        <time>2014-04-12T10:16:27Z</time>
      </trkpt>
      <trkpt lat="42.89358" lon="0.25379">
        <ele>2198.2776533397</ele>
        <time>2014-04-12T10:16:30Z</time>
      </trkpt>
      <trkpt lat="42.89358" lon="0.25375">
        <ele>2198.2776533397</ele>
        <time>2014-04-12T10:16:36Z</time>
      </trkpt>
      <trkpt lat="42.89358" lon="0.25368">
        <ele>2200.3283150313</ele>
        <time>2014-04-12T10:16:42Z</time>
      </trkpt>
      <trkpt lat="42.89359" lon="0.25365">
        <ele>2200.3283150313</ele>
        <time>2014-04-12T10:16:46Z</time>
      </trkpt>
      <trkpt lat="42.89361" lon="0.25362">
        <ele>2200.3283150313</ele>
        <time>2014-04-12T10:16:51Z</time>
      </trkpt>
      <trkpt lat="42.89362" lon="0.25355">
        <ele>2202.2837780189</ele>
        <time>2014-04-12T10:16:56Z</time>
      </trkpt>
      <trkpt lat="42.8936" lon="0.2535">
        <ele>2202.2837780189</ele>
        <time>2014-04-12T10:17:01Z</time>
      </trkpt>
      <trkpt lat="42.89359" lon="0.25345">
        <ele>2202.2837780189</ele>
        <time>2014-04-12T10:17:06Z</time>
      </trkpt>
      <trkpt lat="42.8936" lon="0.25338">
        <ele>2204.1522665172</ele>
        <time>2014-04-12T10:17:11Z</time>
      </trkpt>
      <trkpt lat="42.89359" lon="0.25335">
        <ele>2204.1522665172</ele>
        <time>2014-04-12T10:17:16Z</time>
      </trkpt>
      <trkpt lat="42.89359" lon="0.25334">
        <ele>2204.1522665172</ele>
        <time>2014-04-12T10:17:21Z</time>
      </trkpt>
      <trkpt lat="42.89351" lon="0.25334">
        <ele>2205.9127050969</ele>
        <time>2014-04-12T10:17:41Z</time>
      </trkpt>
      <trkpt lat="42.89354" lon="0.25331">
        <ele>2205.9127050969</ele>
        <time>2014-04-12T10:18:16Z</time>
      </trkpt>
      <trkpt lat="42.89356" lon="0.25325">
        <ele>2205.9127050969</ele>
        <time>2014-04-12T10:18:21Z</time>
      </trkpt>
      <trkpt lat="42.89356" lon="0.25322">
        <ele>2207.7619242003</ele>
        <time>2014-04-12T10:18:26Z</time>
      </trkpt>
      <trkpt lat="42.89356" lon="0.2532">
        <ele>2207.7619242003</ele>
        <time>2014-04-12T10:18:30Z</time>
      </trkpt>
      <trkpt lat="42.89355" lon="0.25315">
        <ele>2207.7619242003</ele>
        <time>2014-04-12T10:18:36Z</time>
      </trkpt>
      <trkpt lat="42.89353" lon="0.25313">
        <ele>2207.7619242003</ele>
        <time>2014-04-12T10:18:42Z</time>
      </trkpt>
      <trkpt lat="42.89352" lon="0.25308">
        <ele>2209.5648939608</ele>
        <time>2014-04-12T10:18:46Z</time>
      </trkpt>
      <trkpt lat="42.89352" lon="0.25305">
        <ele>2209.5648939608</ele>
        <time>2014-04-12T10:18:51Z</time>
      </trkpt>
      <trkpt lat="42.89353" lon="0.25299">
        <ele>2209.5648939608</ele>
        <time>2014-04-12T10:18:56Z</time>
      </trkpt>
      <trkpt lat="42.8935" lon="0.25297">
        <ele>2211.4271081085</ele>
        <time>2014-04-12T10:19:02Z</time>
      </trkpt>
      <trkpt lat="42.8935" lon="0.25296">
        <ele>2211.4271081085</ele>
        <time>2014-04-12T10:19:06Z</time>
      </trkpt>
      <trkpt lat="42.8935" lon="0.25297">
        <ele>2211.4271081085</ele>
        <time>2014-04-12T10:19:41Z</time>
      </trkpt>
      <trkpt lat="42.8935" lon="0.25292">
        <ele>2211.4271081085</ele>
        <time>2014-04-12T10:19:46Z</time>
      </trkpt>
      <trkpt lat="42.89348" lon="0.25289">
        <ele>2211.4271081085</ele>
        <time>2014-04-12T10:19:51Z</time>
      </trkpt>
      <trkpt lat="42.89347" lon="0.25286">
        <ele>2214.9159825683</ele>
        <time>2014-04-12T10:19:56Z</time>
      </trkpt>
      <trkpt lat="42.89346" lon="0.25281">
        <ele>2214.9159825683</ele>
        <time>2014-04-12T10:20:01Z</time>
      </trkpt>
      <trkpt lat="42.89345" lon="0.25276">
        <ele>2214.9159825683</ele>
        <time>2014-04-12T10:20:06Z</time>
      </trkpt>
      <trkpt lat="42.89344" lon="0.25271">
        <ele>2218.4383962986</ele>
        <time>2014-04-12T10:20:11Z</time>
      </trkpt>
      <trkpt lat="42.89341" lon="0.25266">
        <ele>2218.4383962986</ele>
        <time>2014-04-12T10:20:16Z</time>
      </trkpt>
      <trkpt lat="42.8934" lon="0.25263">
        <ele>2218.4383962986</ele>
        <time>2014-04-12T10:20:21Z</time>
      </trkpt>
      <trkpt lat="42.89337" lon="0.25262">
        <ele>2222.2762464014</ele>
        <time>2014-04-12T10:20:46Z</time>
      </trkpt>
      <trkpt lat="42.89335" lon="0.2526">
        <ele>2222.2762464014</ele>
        <time>2014-04-12T10:20:51Z</time>
      </trkpt>
      <trkpt lat="42.89334" lon="0.25258">
        <ele>2222.2762464014</ele>
        <time>2014-04-12T10:20:56Z</time>
      </trkpt>
      <trkpt lat="42.89333" lon="0.25255">
        <ele>2222.2762464014</ele>
        <time>2014-04-12T10:21:01Z</time>
      </trkpt>
      <trkpt lat="42.89331" lon="0.25255">
        <ele>2222.2762464014</ele>
        <time>2014-04-12T10:21:06Z</time>
      </trkpt>
      <trkpt lat="42.8933" lon="0.25255">
        <ele>2222.2762464014</ele>
        <time>2014-04-12T10:21:11Z</time>
      </trkpt>
      <trkpt lat="42.89328" lon="0.25249">
        <ele>2226.257446063</ele>
        <time>2014-04-12T10:21:17Z</time>
      </trkpt>
      <trkpt lat="42.89327" lon="0.25248">
        <ele>2226.257446063</ele>
        <time>2014-04-12T10:21:21Z</time>
      </trkpt>
      <trkpt lat="42.8932" lon="0.25245">
        <ele>2226.257446063</ele>
        <time>2014-04-12T10:22:11Z</time>
      </trkpt>
      <trkpt lat="42.89318" lon="0.25242">
        <ele>2230.7120872519</ele>
        <time>2014-04-12T10:22:17Z</time>
      </trkpt>
      <trkpt lat="42.89316" lon="0.25245">
        <ele>2230.7120872519</ele>
        <time>2014-04-12T10:22:21Z</time>
      </trkpt>
      <trkpt lat="42.89315" lon="0.25239">
        <ele>2230.7120872519</ele>
        <time>2014-04-12T10:22:26Z</time>
      </trkpt>
      <trkpt lat="42.89315" lon="0.25231">
        <ele>2234.561198089</ele>
        <time>2014-04-12T10:22:32Z</time>
      </trkpt>
      <trkpt lat="42.89313" lon="0.25226">
        <ele>2234.561198089</ele>
        <time>2014-04-12T10:22:36Z</time>
      </trkpt>
      <trkpt lat="42.89311" lon="0.2522">
        <ele>2238.0461191214</ele>
        <time>2014-04-12T10:22:42Z</time>
      </trkpt>
      <trkpt lat="42.89309" lon="0.25215">
        <ele>2238.0461191214</ele>
        <time>2014-04-12T10:22:46Z</time>
      </trkpt>
      <trkpt lat="42.89308" lon="0.25212">
        <ele>2238.0461191214</ele>
        <time>2014-04-12T10:22:51Z</time>
      </trkpt>
      <trkpt lat="42.89308" lon="0.25212">
        <ele>2238.0461191214</ele>
        <time>2014-04-12T10:22:56Z</time>
      </trkpt>
      <trkpt lat="42.89306" lon="0.25209">
        <ele>2241.5067850832</ele>
        <time>2014-04-12T10:23:16Z</time>
      </trkpt>
      <trkpt lat="42.89304" lon="0.25202">
        <ele>2241.5067850832</ele>
        <time>2014-04-12T10:23:21Z</time>
      </trkpt>
      <trkpt lat="42.89304" lon="0.252">
        <ele>2241.5067850832</ele>
        <time>2014-04-12T10:23:26Z</time>
      </trkpt>
      <trkpt lat="42.893" lon="0.25193">
        <ele>2244.4079955377</ele>
        <time>2014-04-12T10:23:32Z</time>
      </trkpt>
      <trkpt lat="42.89299" lon="0.25189">
        <ele>2244.4079955377</ele>
        <time>2014-04-12T10:23:36Z</time>
      </trkpt>
      <trkpt lat="42.89297" lon="0.25183">
        <ele>2244.4079955377</ele>
        <time>2014-04-12T10:23:41Z</time>
      </trkpt>
      <trkpt lat="42.89297" lon="0.25176">
        <ele>2246.8607336176</ele>
        <time>2014-04-12T10:23:47Z</time>
      </trkpt>
      <trkpt lat="42.89297" lon="0.25172">
        <ele>2246.8607336176</ele>
        <time>2014-04-12T10:23:51Z</time>
      </trkpt>
      <trkpt lat="42.89298" lon="0.25157">
        <ele>2248.9114790285</ele>
        <time>2014-04-12T10:23:56Z</time>
      </trkpt>
      <trkpt lat="42.89299" lon="0.25154">
        <ele>2248.9114790285</ele>
        <time>2014-04-12T10:24:01Z</time>
      </trkpt>
      <trkpt lat="42.89297" lon="0.25158">
        <ele>2248.9114790285</ele>
        <time>2014-04-12T10:24:06Z</time>
      </trkpt>
      <trkpt lat="42.89291" lon="0.25147">
        <ele>2250.6476942666</ele>
        <time>2014-04-12T10:24:21Z</time>
      </trkpt>
      <trkpt lat="42.89287" lon="0.25131">
        <ele>2252.0648654477</ele>
        <time>2014-04-12T10:24:27Z</time>
      </trkpt>
      <trkpt lat="42.89285" lon="0.25128">
        <ele>2252.0648654477</ele>
        <time>2014-04-12T10:24:31Z</time>
      </trkpt>
      <trkpt lat="42.89286" lon="0.25129">
        <ele>2252.0648654477</ele>
        <time>2014-04-12T10:24:36Z</time>
      </trkpt>
      <trkpt lat="42.89288" lon="0.25127">
        <ele>2252.0648654477</ele>
        <time>2014-04-12T10:24:46Z</time>
      </trkpt>
      <trkpt lat="42.89287" lon="0.25128">
        <ele>2252.0648654477</ele>
        <time>2014-04-12T10:24:51Z</time>
      </trkpt>
      <trkpt lat="42.89288" lon="0.2513">
        <ele>2252.0648654477</ele>
        <time>2014-04-12T10:24:56Z</time>
      </trkpt>
      <trkpt lat="42.89289" lon="0.25128">
        <ele>2253.4191326581</ele>
        <time>2014-04-12T10:25:01Z</time>
      </trkpt>
      <trkpt lat="42.8929" lon="0.25124">
        <ele>2253.4191326581</ele>
        <time>2014-04-12T10:25:07Z</time>
      </trkpt>
      <trkpt lat="42.8929" lon="0.25124">
        <ele>2253.4191326581</ele>
        <time>2014-04-12T10:25:11Z</time>
      </trkpt>
      <trkpt lat="42.89289" lon="0.25124">
        <ele>2253.4191326581</ele>
        <time>2014-04-12T10:25:16Z</time>
      </trkpt>
      <trkpt lat="42.89291" lon="0.25119">
        <ele>2253.4191326581</ele>
        <time>2014-04-12T10:25:21Z</time>
      </trkpt>
      <trkpt lat="42.89293" lon="0.25115">
        <ele>2254.991250339</ele>
        <time>2014-04-12T10:25:26Z</time>
      </trkpt>
      <trkpt lat="42.89293" lon="0.25116">
        <ele>2254.991250339</ele>
        <time>2014-04-12T10:25:32Z</time>
      </trkpt>
      <trkpt lat="42.89292" lon="0.25107">
        <ele>2254.991250339</ele>
        <time>2014-04-12T10:25:51Z</time>
      </trkpt>
      <trkpt lat="42.89293" lon="0.25105">
        <ele>2256.8678180394</ele>
        <time>2014-04-12T10:25:57Z</time>
      </trkpt>
      <trkpt lat="42.89294" lon="0.25104">
        <ele>2256.8678180394</ele>
        <time>2014-04-12T10:26:01Z</time>
      </trkpt>
      <trkpt lat="42.89296" lon="0.25103">
        <ele>2256.8678180394</ele>
        <time>2014-04-12T10:26:07Z</time>
      </trkpt>
      <trkpt lat="42.89297" lon="0.251">
        <ele>2256.8678180394</ele>
        <time>2014-04-12T10:26:11Z</time>
      </trkpt>
      <trkpt lat="42.89298" lon="0.25098">
        <ele>2256.8678180394</ele>
        <time>2014-04-12T10:26:16Z</time>
      </trkpt>
      <trkpt lat="42.89298" lon="0.25097">
        <ele>2256.8678180394</ele>
        <time>2014-04-12T10:26:22Z</time>
      </trkpt>
      <trkpt lat="42.89298" lon="0.25092">
        <ele>2259.012938946</ele>
        <time>2014-04-12T10:26:26Z</time>
      </trkpt>
      <trkpt lat="42.89297" lon="0.25091">
        <ele>2259.012938946</ele>
        <time>2014-04-12T10:26:32Z</time>
      </trkpt>
      <trkpt lat="42.89299" lon="0.25084">
        <ele>2259.012938946</ele>
        <time>2014-04-12T10:26:51Z</time>
      </trkpt>
      <trkpt lat="42.89299" lon="0.2508">
        <ele>2261.1908486772</ele>
        <time>2014-04-12T10:26:56Z</time>
      </trkpt>
      <trkpt lat="42.89296" lon="0.25074">
        <ele>2261.1908486772</ele>
        <time>2014-04-12T10:27:02Z</time>
      </trkpt>
      <trkpt lat="42.89293" lon="0.25074">
        <ele>2261.1908486772</ele>
        <time>2014-04-12T10:27:06Z</time>
      </trkpt>
      <trkpt lat="42.89288" lon="0.25073">
        <ele>2263.4424127396</ele>
        <time>2014-04-12T10:27:12Z</time>
      </trkpt>
      <trkpt lat="42.89286" lon="0.2507">
        <ele>2263.4424127396</ele>
        <time>2014-04-12T10:27:16Z</time>
      </trkpt>
      <trkpt lat="42.89284" lon="0.25069">
        <ele>2263.4424127396</ele>
        <time>2014-04-12T10:27:21Z</time>
      </trkpt>
      <trkpt lat="42.89284" lon="0.25071">
        <ele>2263.4424127396</ele>
        <time>2014-04-12T10:27:27Z</time>
      </trkpt>
      <trkpt lat="42.89281" lon="0.25067">
        <ele>2266.5114362821</ele>
        <time>2014-04-12T10:27:46Z</time>
      </trkpt>
      <trkpt lat="42.8928" lon="0.25065">
        <ele>2266.5114362821</ele>
        <time>2014-04-12T10:27:53Z</time>
      </trkpt>
      <trkpt lat="42.89278" lon="0.25063">
        <ele>2266.5114362821</ele>
        <time>2014-04-12T10:27:56Z</time>
      </trkpt>
      <trkpt lat="42.89277" lon="0.25059">
        <ele>2266.5114362821</ele>
        <time>2014-04-12T10:28:02Z</time>
      </trkpt>
      <trkpt lat="42.89275" lon="0.25057">
        <ele>2269.7445641421</ele>
        <time>2014-04-12T10:28:06Z</time>
      </trkpt>
      <trkpt lat="42.89271" lon="0.25051">
        <ele>2269.7445641421</ele>
        <time>2014-04-12T10:28:12Z</time>
      </trkpt>
      <trkpt lat="42.89271" lon="0.25049">
        <ele>2269.7445641421</ele>
        <time>2014-04-12T10:28:16Z</time>
      </trkpt>
      <trkpt lat="42.89271" lon="0.25048">
        <ele>2269.7445641421</ele>
        <time>2014-04-12T10:28:21Z</time>
      </trkpt>
      <trkpt lat="42.89274" lon="0.25046">
        <ele>2273.3718321755</ele>
        <time>2014-04-12T10:28:41Z</time>
      </trkpt>
      <trkpt lat="42.89273" lon="0.25042">
        <ele>2273.3718321755</ele>
        <time>2014-04-12T10:28:46Z</time>
      </trkpt>
      <trkpt lat="42.89271" lon="0.25038">
        <ele>2273.3718321755</ele>
        <time>2014-04-12T10:28:52Z</time>
      </trkpt>
      <trkpt lat="42.89269" lon="0.25034">
        <ele>2276.9712020514</ele>
        <time>2014-04-12T10:28:56Z</time>
      </trkpt>
      <trkpt lat="42.89262" lon="0.25039">
        <ele>2276.9712020514</ele>
        <time>2014-04-12T10:33:55Z</time>
      </trkpt>
      <trkpt lat="42.89261" lon="0.25043">
        <ele>2283.4951284471</ele>
        <time>2014-04-12T10:34:00Z</time>
      </trkpt>
      <trkpt lat="42.89262" lon="0.25038">
        <ele>2283.4951284471</ele>
        <time>2014-04-12T10:34:05Z</time>
      </trkpt>
      <trkpt lat="42.89259" lon="0.25035">
        <ele>2283.4951284471</ele>
        <time>2014-04-12T10:39:51Z</time>
      </trkpt>
      <trkpt lat="42.89258" lon="0.25031">
        <ele>2289.8633466978</ele>
        <time>2014-04-12T10:39:57Z</time>
      </trkpt>
      <trkpt lat="42.89258" lon="0.25026">
        <ele>2289.8633466978</ele>
        <time>2014-04-12T10:40:01Z</time>
      </trkpt>
      <trkpt lat="42.89257" lon="0.25024">
        <ele>2289.8633466978</ele>
        <time>2014-04-12T10:40:07Z</time>
      </trkpt>
      <trkpt lat="42.89257" lon="0.25023">
        <ele>2289.8633466978</ele>
        <time>2014-04-12T10:40:11Z</time>
      </trkpt>
      <trkpt lat="42.89255" lon="0.25019">
        <ele>2295.6866761768</ele>
        <time>2014-04-12T10:40:26Z</time>
      </trkpt>
      <trkpt lat="42.89254" lon="0.25019">
        <ele>2295.6866761768</ele>
        <time>2014-04-12T10:40:31Z</time>
      </trkpt>
      <trkpt lat="42.89251" lon="0.25016">
        <ele>2295.6866761768</ele>
        <time>2014-04-12T10:40:36Z</time>
      </trkpt>
      <trkpt lat="42.8925" lon="0.25015">
        <ele>2295.6866761768</ele>
        <time>2014-04-12T10:40:40Z</time>
      </trkpt>
      <trkpt lat="42.89249" lon="0.25012">
        <ele>2295.6866761768</ele>
        <time>2014-04-12T10:40:46Z</time>
      </trkpt>
      <trkpt lat="42.89247" lon="0.25011">
        <ele>2300.9520157424</ele>
        <time>2014-04-12T10:40:51Z</time>
      </trkpt>
      <trkpt lat="42.89246" lon="0.25005">
        <ele>2300.9520157424</ele>
        <time>2014-04-12T10:41:06Z</time>
      </trkpt>
      <trkpt lat="42.89246" lon="0.25001">
        <ele>2300.9520157424</ele>
        <time>2014-04-12T10:41:11Z</time>
      </trkpt>
      <trkpt lat="42.89246" lon="0.24997">
        <ele>2305.7209648417</ele>
        <time>2014-04-12T10:41:16Z</time>
      </trkpt>
      <trkpt lat="42.89246" lon="0.24994">
        <ele>2305.7209648417</ele>
        <time>2014-04-12T10:41:21Z</time>
      </trkpt>
      <trkpt lat="42.89245" lon="0.24991">
        <ele>2305.7209648417</ele>
        <time>2014-04-12T10:41:26Z</time>
      </trkpt>
      <trkpt lat="42.89244" lon="0.24988">
        <ele>2305.7209648417</ele>
        <time>2014-04-12T10:41:31Z</time>
      </trkpt>
      <trkpt lat="42.89244" lon="0.24987">
        <ele>2305.7209648417</ele>
        <time>2014-04-12T10:41:36Z</time>
      </trkpt>
      <trkpt lat="42.89244" lon="0.24984">
        <ele>2310.1674130249</ele>
        <time>2014-04-12T10:41:41Z</time>
      </trkpt>
      <trkpt lat="42.89242" lon="0.24982">
        <ele>2310.1674130249</ele>
        <time>2014-04-12T10:41:47Z</time>
      </trkpt>
      <trkpt lat="42.8924" lon="0.24977">
        <ele>2310.1674130249</ele>
        <time>2014-04-12T10:41:51Z</time>
      </trkpt>
      <trkpt lat="42.89238" lon="0.24973">
        <ele>2314.2373584978</ele>
        <time>2014-04-12T10:41:56Z</time>
      </trkpt>
      <trkpt lat="42.89235" lon="0.24974">
        <ele>2314.2373584978</ele>
        <time>2014-04-12T10:42:00Z</time>
      </trkpt>
      <trkpt lat="42.89232" lon="0.24973">
        <ele>2314.2373584978</ele>
        <time>2014-04-12T10:42:06Z</time>
      </trkpt>
      <trkpt lat="42.89231" lon="0.24975">
        <ele>2314.2373584978</ele>
        <time>2014-04-12T10:42:11Z</time>
      </trkpt>
      <trkpt lat="42.89231" lon="0.24972">
        <ele>2318.0837290043</ele>
        <time>2014-04-12T10:42:16Z</time>
      </trkpt>
      <trkpt lat="42.8923" lon="0.2497">
        <ele>2318.0837290043</ele>
        <time>2014-04-12T10:42:21Z</time>
      </trkpt>
      <trkpt lat="42.89228" lon="0.24968">
        <ele>2318.0837290043</ele>
        <time>2014-04-12T10:42:26Z</time>
      </trkpt>
      <trkpt lat="42.89226" lon="0.24966">
        <ele>2318.0837290043</ele>
        <time>2014-04-12T10:42:31Z</time>
      </trkpt>
      <trkpt lat="42.89225" lon="0.24965">
        <ele>2318.0837290043</ele>
        <time>2014-04-12T10:42:36Z</time>
      </trkpt>
      <trkpt lat="42.89223" lon="0.24963">
        <ele>2321.7481210524</ele>
        <time>2014-04-12T10:42:41Z</time>
      </trkpt>
      <trkpt lat="42.89223" lon="0.24962">
        <ele>2321.7481210524</ele>
        <time>2014-04-12T10:42:46Z</time>
      </trkpt>
      <trkpt lat="42.89225" lon="0.24957">
        <ele>2321.7481210524</ele>
        <time>2014-04-12T10:42:52Z</time>
      </trkpt>
      <trkpt lat="42.89225" lon="0.24955">
        <ele>2321.7481210524</ele>
        <time>2014-04-12T10:42:56Z</time>
      </trkpt>
      <trkpt lat="42.89225" lon="0.24955">
        <ele>2321.7481210524</ele>
        <time>2014-04-12T10:43:00Z</time>
      </trkpt>
      <trkpt lat="42.89227" lon="0.24951">
        <ele>2325.1832723172</ele>
        <time>2014-04-12T10:43:06Z</time>
      </trkpt>
      <trkpt lat="42.89229" lon="0.24948">
        <ele>2325.1832723172</ele>
        <time>2014-04-12T10:43:11Z</time>
      </trkpt>
      <trkpt lat="42.89231" lon="0.24945">
        <ele>2325.1832723172</ele>
        <time>2014-04-12T10:43:17Z</time>
      </trkpt>
      <trkpt lat="42.89234" lon="0.24942">
        <ele>2325.1832723172</ele>
        <time>2014-04-12T10:43:21Z</time>
      </trkpt>
      <trkpt lat="42.89234" lon="0.24941">
        <ele>2328.432652396</ele>
        <time>2014-04-12T10:43:27Z</time>
      </trkpt>
      <trkpt lat="42.89234" lon="0.24941">
        <ele>2328.432652396</ele>
        <time>2014-04-12T10:43:31Z</time>
      </trkpt>
      <trkpt lat="42.89239" lon="0.24938">
        <ele>2328.432652396</ele>
        <time>2014-04-12T10:43:41Z</time>
      </trkpt>
      <trkpt lat="42.89242" lon="0.24936">
        <ele>2328.432652396</ele>
        <time>2014-04-12T10:43:46Z</time>
      </trkpt>
      <trkpt lat="42.89245" lon="0.24936">
        <ele>2331.4651487085</ele>
        <time>2014-04-12T10:43:51Z</time>
      </trkpt>
      <trkpt lat="42.89246" lon="0.24936">
        <ele>2331.4651487085</ele>
        <time>2014-04-12T10:43:56Z</time>
      </trkpt>
      <trkpt lat="42.8925" lon="0.24934">
        <ele>2331.4651487085</ele>
        <time>2014-04-12T10:44:06Z</time>
      </trkpt>
      <trkpt lat="42.89251" lon="0.24933">
        <ele>2331.4651487085</ele>
        <time>2014-04-12T10:44:11Z</time>
      </trkpt>
      <trkpt lat="42.89254" lon="0.24932">
        <ele>2334.1662146343</ele>
        <time>2014-04-12T10:44:16Z</time>
      </trkpt>
      <trkpt lat="42.89255" lon="0.2493">
        <ele>2334.1662146343</ele>
        <time>2014-04-12T10:44:21Z</time>
      </trkpt>
      <trkpt lat="42.89256" lon="0.2493">
        <ele>2334.1662146343</ele>
        <time>2014-04-12T10:44:26Z</time>
      </trkpt>
      <trkpt lat="42.8926" lon="0.2493">
        <ele>2334.1662146343</ele>
        <time>2014-04-12T10:44:32Z</time>
      </trkpt>
      <trkpt lat="42.89262" lon="0.2493">
        <ele>2334.1662146343</ele>
        <time>2014-04-12T10:44:36Z</time>
      </trkpt>
      <trkpt lat="42.89263" lon="0.2493">
        <ele>2336.6757669526</ele>
        <time>2014-04-12T10:44:41Z</time>
      </trkpt>
      <trkpt lat="42.89265" lon="0.2493">
        <ele>2336.6757669526</ele>
        <time>2014-04-12T10:44:46Z</time>
      </trkpt>
      <trkpt lat="42.89266" lon="0.24929">
        <ele>2336.6757669526</ele>
        <time>2014-04-12T10:44:52Z</time>
      </trkpt>
      <trkpt lat="42.89266" lon="0.24929">
        <ele>2336.6757669526</ele>
        <time>2014-04-12T10:44:56Z</time>
      </trkpt>
      <trkpt lat="42.89269" lon="0.24931">
        <ele>2336.6757669526</ele>
        <time>2014-04-12T10:45:21Z</time>
      </trkpt>
      <trkpt lat="42.89269" lon="0.24931">
        <ele>2336.6757669526</ele>
        <time>2014-04-12T10:45:26Z</time>
      </trkpt>
      <trkpt lat="42.89273" lon="0.24928">
        <ele>2339.5276135221</ele>
        <time>2014-04-12T10:45:41Z</time>
      </trkpt>
      <trkpt lat="42.89274" lon="0.24928">
        <ele>2339.5276135221</ele>
        <time>2014-04-12T10:45:46Z</time>
      </trkpt>
      <trkpt lat="42.89271" lon="0.2493">
        <ele>2339.5276135221</ele>
        <time>2014-04-12T10:46:16Z</time>
      </trkpt>
      <trkpt lat="42.89268" lon="0.24928">
        <ele>2339.5276135221</ele>
        <time>2014-04-12T10:46:20Z</time>
      </trkpt>
      <trkpt lat="42.89269" lon="0.24921">
        <ele>2342.3652437083</ele>
        <time>2014-04-12T10:46:26Z</time>
      </trkpt>
      <trkpt lat="42.89269" lon="0.24915">
        <ele>2342.3652437083</ele>
        <time>2014-04-12T10:46:32Z</time>
      </trkpt>
      <trkpt lat="42.89269" lon="0.24915">
        <ele>2342.3652437083</ele>
        <time>2014-04-12T10:46:36Z</time>
      </trkpt>
      <trkpt lat="42.89267" lon="0.24913">
        <ele>2342.3652437083</ele>
        <time>2014-04-12T10:46:41Z</time>
      </trkpt>
      <trkpt lat="42.89265" lon="0.24913">
        <ele>2345.0025878201</ele>
        <time>2014-04-12T10:46:46Z</time>
      </trkpt>
      <trkpt lat="42.89265" lon="0.24913">
        <ele>2345.0025878201</ele>
        <time>2014-04-12T10:46:52Z</time>
      </trkpt>
      <trkpt lat="42.89266" lon="0.24906">
        <ele>2345.0025878201</ele>
        <time>2014-04-12T10:46:56Z</time>
      </trkpt>
      <trkpt lat="42.89265" lon="0.24902">
        <ele>2345.0025878201</ele>
        <time>2014-04-12T10:47:00Z</time>
      </trkpt>
      <trkpt lat="42.89264" lon="0.24898">
        <ele>2347.426419923</ele>
        <time>2014-04-12T10:47:06Z</time>
      </trkpt>
      <trkpt lat="42.89263" lon="0.24897">
        <ele>2347.426419923</ele>
        <time>2014-04-12T10:47:11Z</time>
      </trkpt>
      <trkpt lat="42.89263" lon="0.24891">
        <ele>2347.426419923</ele>
        <time>2014-04-12T10:47:17Z</time>
      </trkpt>
      <trkpt lat="42.89262" lon="0.24889">
        <ele>2347.426419923</ele>
        <time>2014-04-12T10:47:21Z</time>
      </trkpt>
      <trkpt lat="42.89259" lon="0.24888">
        <ele>2349.6828102512</ele>
        <time>2014-04-12T10:47:26Z</time>
      </trkpt>
      <trkpt lat="42.89258" lon="0.24883">
        <ele>2349.6828102512</ele>
        <time>2014-04-12T10:48:06Z</time>
      </trkpt>
      <trkpt lat="42.89263" lon="0.24884">
        <ele>2349.6828102512</ele>
        <time>2014-04-12T10:48:11Z</time>
      </trkpt>
      <trkpt lat="42.89264" lon="0.24882">
        <ele>2351.9302741072</ele>
        <time>2014-04-12T10:48:17Z</time>
      </trkpt>
      <trkpt lat="42.89265" lon="0.24884">
        <ele>2351.9302741072</ele>
        <time>2014-04-12T10:48:21Z</time>
      </trkpt>
      <trkpt lat="42.89267" lon="0.24883">
        <ele>2351.9302741072</ele>
        <time>2014-04-12T10:48:32Z</time>
      </trkpt>
      <trkpt lat="42.89269" lon="0.24882">
        <ele>2351.9302741072</ele>
        <time>2014-04-12T10:48:41Z</time>
      </trkpt>
      <trkpt lat="42.89268" lon="0.24882">
        <ele>2351.9302741072</ele>
        <time>2014-04-12T10:48:46Z</time>
      </trkpt>
      <trkpt lat="42.8927" lon="0.24873">
        <ele>2354.5319345284</ele>
        <time>2014-04-12T10:49:06Z</time>
      </trkpt>
      <trkpt lat="42.89269" lon="0.24871">
        <ele>2354.5319345284</ele>
        <time>2014-04-12T10:49:11Z</time>
      </trkpt>
      <trkpt lat="42.89269" lon="0.2487">
        <ele>2354.5319345284</ele>
        <time>2014-04-12T10:49:16Z</time>
      </trkpt>
      <trkpt lat="42.89267" lon="0.24868">
        <ele>2354.5319345284</ele>
        <time>2014-04-12T10:49:21Z</time>
      </trkpt>
      <trkpt lat="42.89265" lon="0.24866">
        <ele>2354.5319345284</ele>
        <time>2014-04-12T10:49:26Z</time>
      </trkpt>
      <trkpt lat="42.89261" lon="0.24867">
        <ele>2357.0883295973</ele>
        <time>2014-04-12T10:49:32Z</time>
      </trkpt>
      <trkpt lat="42.89256" lon="0.24863">
        <ele>2357.0883295973</ele>
        <time>2014-04-12T10:50:06Z</time>
      </trkpt>
      <trkpt lat="42.89256" lon="0.24864">
        <ele>2357.0883295973</ele>
        <time>2014-04-12T10:50:11Z</time>
      </trkpt>
      <trkpt lat="42.89253" lon="0.24862">
        <ele>2359.8203661984</ele>
        <time>2014-04-12T10:50:16Z</time>
      </trkpt>
      <trkpt lat="42.89252" lon="0.24862">
        <ele>2359.8203661984</ele>
        <time>2014-04-12T10:50:21Z</time>
      </trkpt>
      <trkpt lat="42.89256" lon="0.24861">
        <ele>2359.8203661984</ele>
        <time>2014-04-12T10:50:32Z</time>
      </trkpt>
      <trkpt lat="42.89258" lon="0.24861">
        <ele>2359.8203661984</ele>
        <time>2014-04-12T10:50:38Z</time>
      </trkpt>
      <trkpt lat="42.89259" lon="0.24862">
        <ele>2359.8203661984</ele>
        <time>2014-04-12T10:50:40Z</time>
      </trkpt>
      <trkpt lat="42.89259" lon="0.24861">
        <ele>2359.8203661984</ele>
        <time>2014-04-12T10:50:47Z</time>
      </trkpt>
      <trkpt lat="42.89262" lon="0.24859">
        <ele>2362.5719874594</ele>
        <time>2014-04-12T10:51:01Z</time>
      </trkpt>
      <trkpt lat="42.89264" lon="0.2486">
        <ele>2362.5719874594</ele>
        <time>2014-04-12T10:51:06Z</time>
      </trkpt>
      <trkpt lat="42.89264" lon="0.2486">
        <ele>2362.5719874594</ele>
        <time>2014-04-12T10:51:11Z</time>
      </trkpt>
      <trkpt lat="42.8926" lon="0.2486">
        <ele>2362.5719874594</ele>
        <time>2014-04-12T10:51:46Z</time>
      </trkpt>
      <trkpt lat="42.89257" lon="0.24858">
        <ele>2362.5719874594</ele>
        <time>2014-04-12T10:51:51Z</time>
      </trkpt>
      <trkpt lat="42.89256" lon="0.24855">
        <ele>2365.5012077485</ele>
        <time>2014-04-12T10:51:56Z</time>
      </trkpt>
      <trkpt lat="42.89254" lon="0.24853">
        <ele>2365.5012077485</ele>
        <time>2014-04-12T10:52:01Z</time>
      </trkpt>
      <trkpt lat="42.89254" lon="0.24853">
        <ele>2365.5012077485</ele>
        <time>2014-04-12T10:52:06Z</time>
      </trkpt>
      <trkpt lat="42.89248" lon="0.24844">
        <ele>2368.8980716623</ele>
        <time>2014-04-12T10:52:57Z</time>
      </trkpt>
      <trkpt lat="42.89248" lon="0.24844">
        <ele>2368.8980716623</ele>
        <time>2014-04-12T10:53:00Z</time>
      </trkpt>
      <trkpt lat="42.89254" lon="0.24841">
        <ele>2368.8980716623</ele>
        <time>2014-04-12T10:53:21Z</time>
      </trkpt>
      <trkpt lat="42.89254" lon="0.2484">
        <ele>2368.8980716623</ele>
        <time>2014-04-12T10:53:26Z</time>
      </trkpt>
      <trkpt lat="42.89257" lon="0.2484">
        <ele>2372.0933049366</ele>
        <time>2014-04-12T10:53:31Z</time>
      </trkpt>
      <trkpt lat="42.89261" lon="0.2484">
        <ele>2372.0933049366</ele>
        <time>2014-04-12T10:53:37Z</time>
      </trkpt>
      <trkpt lat="42.89264" lon="0.24841">
        <ele>2372.0933049366</ele>
        <time>2014-04-12T10:53:40Z</time>
      </trkpt>
      <trkpt lat="42.89269" lon="0.24841">
        <ele>2375.0005947587</ele>
        <time>2014-04-12T10:53:46Z</time>
      </trkpt>
      <trkpt lat="42.8927" lon="0.24841">
        <ele>2375.0005947587</ele>
        <time>2014-04-12T10:53:52Z</time>
      </trkpt>
      <trkpt lat="42.8927" lon="0.24842">
        <ele>2375.0005947587</ele>
        <time>2014-04-12T10:53:56Z</time>
      </trkpt>
      <trkpt lat="42.89273" lon="0.24845">
        <ele>2375.0005947587</ele>
        <time>2014-04-12T10:54:21Z</time>
      </trkpt>
      <trkpt lat="42.89276" lon="0.24845">
        <ele>2375.0005947587</ele>
        <time>2014-04-12T10:54:26Z</time>
      </trkpt>
      <trkpt lat="42.89277" lon="0.24846">
        <ele>2378.0163619913</ele>
        <time>2014-04-12T10:54:32Z</time>
      </trkpt>
      <trkpt lat="42.89275" lon="0.24848">
        <ele>2378.0163619913</ele>
        <time>2014-04-12T10:55:01Z</time>
      </trkpt>
      <trkpt lat="42.89275" lon="0.24845">
        <ele>2378.0163619913</ele>
        <time>2014-04-12T10:55:06Z</time>
      </trkpt>
      <trkpt lat="42.89273" lon="0.24842">
        <ele>2378.0163619913</ele>
        <time>2014-04-12T10:55:12Z</time>
      </trkpt>
      <trkpt lat="42.89273" lon="0.24839">
        <ele>2381.1473416002</ele>
        <time>2014-04-12T10:55:16Z</time>
      </trkpt>
      <trkpt lat="42.89273" lon="0.24839">
        <ele>2381.1473416002</ele>
        <time>2014-04-12T10:55:21Z</time>
      </trkpt>
      <trkpt lat="42.89266" lon="0.24834">
        <ele>2381.1473416002</ele>
        <time>2014-04-12T10:56:01Z</time>
      </trkpt>
      <trkpt lat="42.89263" lon="0.24831">
        <ele>2384.3129993223</ele>
        <time>2014-04-12T10:56:06Z</time>
      </trkpt>
      <trkpt lat="42.89262" lon="0.2483">
        <ele>2384.3129993223</ele>
        <time>2014-04-12T10:56:11Z</time>
      </trkpt>
      <trkpt lat="42.8926" lon="0.24824">
        <ele>2384.3129993223</ele>
        <time>2014-04-12T10:56:17Z</time>
      </trkpt>
      <trkpt lat="42.89259" lon="0.24822">
        <ele>2384.3129993223</ele>
        <time>2014-04-12T10:56:21Z</time>
      </trkpt>
      <trkpt lat="42.89258" lon="0.24818">
        <ele>2387.3377554155</ele>
        <time>2014-04-12T10:56:26Z</time>
      </trkpt>
      <trkpt lat="42.89258" lon="0.24815">
        <ele>2387.3377554155</ele>
        <time>2014-04-12T10:56:31Z</time>
      </trkpt>
      <trkpt lat="42.89254" lon="0.24816">
        <ele>2387.3377554155</ele>
        <time>2014-04-12T10:56:52Z</time>
      </trkpt>
      <trkpt lat="42.89253" lon="0.24813">
        <ele>2387.3377554155</ele>
        <time>2014-04-12T10:56:56Z</time>
      </trkpt>
      <trkpt lat="42.89251" lon="0.24812">
        <ele>2390.47725815</ele>
        <time>2014-04-12T10:57:01Z</time>
      </trkpt>
      <trkpt lat="42.8925" lon="0.24812">
        <ele>2390.47725815</ele>
        <time>2014-04-12T10:57:06Z</time>
      </trkpt>
      <trkpt lat="42.8925" lon="0.24811">
        <ele>2390.47725815</ele>
        <time>2014-04-12T10:57:12Z</time>
      </trkpt>
      <trkpt lat="42.89253" lon="0.2481">
        <ele>2390.47725815</ele>
        <time>2014-04-12T10:57:16Z</time>
      </trkpt>
      <trkpt lat="42.89254" lon="0.2481">
        <ele>2390.47725815</ele>
        <time>2014-04-12T10:57:21Z</time>
      </trkpt>
      <trkpt lat="42.89256" lon="0.2481">
        <ele>2390.47725815</ele>
        <time>2014-04-12T10:57:26Z</time>
      </trkpt>
      <trkpt lat="42.8926" lon="0.24809">
        <ele>2393.5501429023</ele>
        <time>2014-04-12T10:57:32Z</time>
      </trkpt>
      <trkpt lat="42.89262" lon="0.24808">
        <ele>2393.5501429023</ele>
        <time>2014-04-12T10:57:36Z</time>
      </trkpt>
      <trkpt lat="42.89265" lon="0.24807">
        <ele>2393.5501429023</ele>
        <time>2014-04-12T10:57:41Z</time>
      </trkpt>
      <trkpt lat="42.89266" lon="0.24807">
        <ele>2393.5501429023</ele>
        <time>2014-04-12T10:57:46Z</time>
      </trkpt>
      <trkpt lat="42.89266" lon="0.24807">
        <ele>2393.5501429023</ele>
        <time>2014-04-12T10:57:52Z</time>
      </trkpt>
      <trkpt lat="42.89273" lon="0.24806">
        <ele>2397.0082434719</ele>
        <time>2014-04-12T10:58:37Z</time>
      </trkpt>
      <trkpt lat="42.8927" lon="0.24808">
        <ele>2397.0082434719</ele>
        <time>2014-04-12T10:59:21Z</time>
      </trkpt>
      <trkpt lat="42.89269" lon="0.24804">
        <ele>2397.0082434719</ele>
        <time>2014-04-12T10:59:26Z</time>
      </trkpt>
      <trkpt lat="42.89268" lon="0.248">
        <ele>2400.6062208871</ele>
        <time>2014-04-12T10:59:31Z</time>
      </trkpt>
      <trkpt lat="42.89266" lon="0.24799">
        <ele>2400.6062208871</ele>
        <time>2014-04-12T10:59:37Z</time>
      </trkpt>
      <trkpt lat="42.89266" lon="0.24798">
        <ele>2400.6062208871</ele>
        <time>2014-04-12T10:59:41Z</time>
      </trkpt>
      <trkpt lat="42.8926" lon="0.24794">
        <ele>2400.6062208871</ele>
        <time>2014-04-12T11:00:11Z</time>
      </trkpt>
      <trkpt lat="42.89257" lon="0.24793">
        <ele>2404.0731444049</ele>
        <time>2014-04-12T11:00:17Z</time>
      </trkpt>
      <trkpt lat="42.89255" lon="0.24791">
        <ele>2404.0731444049</ele>
        <time>2014-04-12T11:00:21Z</time>
      </trkpt>
      <trkpt lat="42.89253" lon="0.24789">
        <ele>2404.0731444049</ele>
        <time>2014-04-12T11:00:26Z</time>
      </trkpt>
      <trkpt lat="42.89251" lon="0.24787">
        <ele>2404.0731444049</ele>
        <time>2014-04-12T11:00:31Z</time>
      </trkpt>
      <trkpt lat="42.89247" lon="0.24787">
        <ele>2407.4754108372</ele>
        <time>2014-04-12T11:00:51Z</time>
      </trkpt>
      <trkpt lat="42.89246" lon="0.24789">
        <ele>2407.4754108372</ele>
        <time>2014-04-12T11:00:57Z</time>
      </trkpt>
      <trkpt lat="42.89254" lon="0.24778">
        <ele>2410.7018018435</ele>
        <time>2014-04-12T11:01:06Z</time>
      </trkpt>
      <trkpt lat="42.89258" lon="0.24776">
        <ele>2410.7018018435</ele>
        <time>2014-04-12T11:01:12Z</time>
      </trkpt>
      <trkpt lat="42.89262" lon="0.24774">
        <ele>2410.7018018435</ele>
        <time>2014-04-12T11:01:16Z</time>
      </trkpt>
      <trkpt lat="42.89265" lon="0.24773">
        <ele>2413.7074217334</ele>
        <time>2014-04-12T11:01:21Z</time>
      </trkpt>
      <trkpt lat="42.89267" lon="0.24772">
        <ele>2413.7074217334</ele>
        <time>2014-04-12T11:01:26Z</time>
      </trkpt>
      <trkpt lat="42.89269" lon="0.24771">
        <ele>2413.7074217334</ele>
        <time>2014-04-12T11:01:32Z</time>
      </trkpt>
      <trkpt lat="42.8927" lon="0.2477">
        <ele>2413.7074217334</ele>
        <time>2014-04-12T11:01:36Z</time>
      </trkpt>
      <trkpt lat="42.89271" lon="0.24768">
        <ele>2413.7074217334</ele>
        <time>2014-04-12T11:01:41Z</time>
      </trkpt>
      <trkpt lat="42.89272" lon="0.24768">
        <ele>2413.7074217334</ele>
        <time>2014-04-12T11:01:46Z</time>
      </trkpt>
      <trkpt lat="42.89275" lon="0.24763">
        <ele>2416.4801281393</ele>
        <time>2014-04-12T11:01:56Z</time>
      </trkpt>
      <trkpt lat="42.89274" lon="0.24766">
        <ele>2416.4801281393</ele>
        <time>2014-04-12T11:02:01Z</time>
      </trkpt>
      <trkpt lat="42.89274" lon="0.24768">
        <ele>2416.4801281393</ele>
        <time>2014-04-12T11:02:06Z</time>
      </trkpt>
      <trkpt lat="42.89275" lon="0.24772">
        <ele>2416.4801281393</ele>
        <time>2014-04-12T11:02:11Z</time>
      </trkpt>
      <trkpt lat="42.89277" lon="0.24774">
        <ele>2419.0237463393</ele>
        <time>2014-04-12T11:02:17Z</time>
      </trkpt>
      <trkpt lat="42.89279" lon="0.24778">
        <ele>2419.0237463393</ele>
        <time>2014-04-12T11:02:21Z</time>
      </trkpt>
      <trkpt lat="42.8928" lon="0.24779">
        <ele>2419.0237463393</ele>
        <time>2014-04-12T11:02:26Z</time>
      </trkpt>
      <trkpt lat="42.89282" lon="0.24779">
        <ele>2419.0237463393</ele>
        <time>2014-04-12T11:02:32Z</time>
      </trkpt>
      <trkpt lat="42.89283" lon="0.24781">
        <ele>2419.0237463393</ele>
        <time>2014-04-12T11:02:45Z</time>
      </trkpt>
      <trkpt lat="42.89282" lon="0.24781">
        <ele>2421.5154038587</ele>
        <time>2014-04-12T11:02:50Z</time>
      </trkpt>
      <trkpt lat="42.89285" lon="0.24788">
        <ele>2421.5154038587</ele>
        <time>2014-04-12T11:03:05Z</time>
      </trkpt>
      <trkpt lat="42.89288" lon="0.24795">
        <ele>2423.6293858708</ele>
        <time>2014-04-12T11:03:10Z</time>
      </trkpt>
      <trkpt lat="42.89284" lon="0.24793">
        <ele>2423.6293858708</ele>
        <time>2014-04-12T11:03:15Z</time>
      </trkpt>
      <trkpt lat="42.89282" lon="0.24789">
        <ele>2423.6293858708</ele>
        <time>2014-04-12T11:03:20Z</time>
      </trkpt>
      <trkpt lat="42.89285" lon="0.24773">
        <ele>2425.3964138559</ele>
        <time>2014-04-12T11:04:05Z</time>
      </trkpt>
      <trkpt lat="42.89285" lon="0.24774">
        <ele>2425.3964138559</ele>
        <time>2014-04-12T11:04:10Z</time>
      </trkpt>
      <trkpt lat="42.89294" lon="0.24764">
        <ele>2426.8315001306</ele>
        <time>2014-04-12T11:04:15Z</time>
      </trkpt>
      <trkpt lat="42.89295" lon="0.24765">
        <ele>2426.8315001306</ele>
        <time>2014-04-12T11:04:20Z</time>
      </trkpt>
      <trkpt lat="42.89296" lon="0.24776">
        <ele>2426.8315001306</ele>
        <time>2014-04-12T11:04:30Z</time>
      </trkpt>
      <trkpt lat="42.89298" lon="0.24777">
        <ele>2427.9494601372</ele>
        <time>2014-04-12T11:04:35Z</time>
      </trkpt>
      <trkpt lat="42.89304" lon="0.24776">
        <ele>2427.9494601372</ele>
        <time>2014-04-12T11:04:40Z</time>
      </trkpt>
      <trkpt lat="42.89309" lon="0.24775">
        <ele>2428.7936949826</ele>
        <time>2014-04-12T11:04:45Z</time>
      </trkpt>
      <trkpt lat="42.89312" lon="0.24777">
        <ele>2428.7936949826</ele>
        <time>2014-04-12T11:04:50Z</time>
      </trkpt>
      <trkpt lat="42.89309" lon="0.24776">
        <ele>2428.7936949826</ele>
        <time>2014-04-12T11:04:55Z</time>
      </trkpt>
      <trkpt lat="42.89308" lon="0.24776">
        <ele>2428.7936949826</ele>
        <time>2014-04-12T11:05:00Z</time>
      </trkpt>
      <trkpt lat="42.89307" lon="0.2479">
        <ele>2429.3619000625</ele>
        <time>2014-04-12T11:05:10Z</time>
      </trkpt>
      <trkpt lat="42.89309" lon="0.24804">
        <ele>2429.6958804013</ele>
        <time>2014-04-12T11:05:15Z</time>
      </trkpt>
      <trkpt lat="42.8931" lon="0.24813">
        <ele>2429.6958804013</ele>
        <time>2014-04-12T11:05:20Z</time>
      </trkpt>
      <trkpt lat="42.89309" lon="0.24822">
        <ele>2429.8205324537</ele>
        <time>2014-04-12T11:05:25Z</time>
      </trkpt>
      <trkpt lat="42.89308" lon="0.24829">
        <ele>2429.8205324537</ele>
        <time>2014-04-12T11:05:30Z</time>
      </trkpt>
      <trkpt lat="42.89309" lon="0.24827">
        <ele>2429.8205324537</ele>
        <time>2014-04-12T11:05:35Z</time>
      </trkpt>
      <trkpt lat="42.89305" lon="0.24836">
        <ele>2429.7594107632</ele>
        <time>2014-04-12T11:05:40Z</time>
      </trkpt>
      <trkpt lat="42.89306" lon="0.24841">
        <ele>2429.7594107632</ele>
        <time>2014-04-12T11:05:45Z</time>
      </trkpt>
      <trkpt lat="42.89312" lon="0.24847">
        <ele>2429.5491546647</ele>
        <time>2014-04-12T11:05:50Z</time>
      </trkpt>
      <trkpt lat="42.89313" lon="0.24849">
        <ele>2429.5491546647</ele>
        <time>2014-04-12T11:05:55Z</time>
      </trkpt>
      <trkpt lat="42.89325" lon="0.24838">
        <ele>2429.2095852547</ele>
        <time>2014-04-12T11:06:00Z</time>
      </trkpt>
      <trkpt lat="42.89334" lon="0.24819">
        <ele>2428.7448687688</ele>
        <time>2014-04-12T11:06:05Z</time>
      </trkpt>
      <trkpt lat="42.89338" lon="0.24816">
        <ele>2428.7448687688</ele>
        <time>2014-04-12T11:06:10Z</time>
      </trkpt>
      <trkpt lat="42.89341" lon="0.24813">
        <ele>2428.7448687688</ele>
        <time>2014-04-12T11:06:15Z</time>
      </trkpt>
      <trkpt lat="42.89346" lon="0.24815">
        <ele>2428.1878723322</ele>
        <time>2014-04-12T11:06:20Z</time>
      </trkpt>
      <trkpt lat="42.89352" lon="0.24821">
        <ele>2428.1878723322</ele>
        <time>2014-04-12T11:06:25Z</time>
      </trkpt>
      <trkpt lat="42.89355" lon="0.24825">
        <ele>2427.5403037495</ele>
        <time>2014-04-12T11:06:30Z</time>
      </trkpt>
      <trkpt lat="42.89358" lon="0.24829">
        <ele>2427.5403037495</ele>
        <time>2014-04-12T11:06:35Z</time>
      </trkpt>
      <trkpt lat="42.89363" lon="0.24832">
        <ele>2426.8182146596</ele>
        <time>2014-04-12T11:06:40Z</time>
      </trkpt>
      <trkpt lat="42.89368" lon="0.24836">
        <ele>2426.8182146596</ele>
        <time>2014-04-12T11:06:45Z</time>
      </trkpt>
      <trkpt lat="42.89372" lon="0.24838">
        <ele>2426.0508884351</ele>
        <time>2014-04-12T11:06:50Z</time>
      </trkpt>
      <trkpt lat="42.89376" lon="0.24842">
        <ele>2426.0508884351</ele>
        <time>2014-04-12T11:06:55Z</time>
      </trkpt>
      <trkpt lat="42.8938" lon="0.24846">
        <ele>2425.2941849263</ele>
        <time>2014-04-12T11:07:00Z</time>
      </trkpt>
      <trkpt lat="42.89384" lon="0.24849">
        <ele>2425.2941849263</ele>
        <time>2014-04-12T11:07:05Z</time>
      </trkpt>
      <trkpt lat="42.89388" lon="0.24854">
        <ele>2424.614009505</ele>
        <time>2014-04-12T11:07:11Z</time>
      </trkpt>
      <trkpt lat="42.89393" lon="0.24858">
        <ele>2424.614009505</ele>
        <time>2014-04-12T11:07:15Z</time>
      </trkpt>
      <trkpt lat="42.89397" lon="0.24862">
        <ele>2423.9556808504</ele>
        <time>2014-04-12T11:07:20Z</time>
      </trkpt>
      <trkpt lat="42.89401" lon="0.24866">
        <ele>2423.9556808504</ele>
        <time>2014-04-12T11:07:26Z</time>
      </trkpt>
      <trkpt lat="42.89403" lon="0.24869">
        <ele>2423.9556808504</ele>
        <time>2014-04-12T11:07:31Z</time>
      </trkpt>
      <trkpt lat="42.89409" lon="0.24872">
        <ele>2423.3402794129</ele>
        <time>2014-04-12T11:07:36Z</time>
      </trkpt>
      <trkpt lat="42.89412" lon="0.24876">
        <ele>2423.3402794129</ele>
        <time>2014-04-12T11:07:41Z</time>
      </trkpt>
      <trkpt lat="42.89416" lon="0.24879">
        <ele>2423.3402794129</ele>
        <time>2014-04-12T11:07:45Z</time>
      </trkpt>
      <trkpt lat="42.89421" lon="0.24883">
        <ele>2422.8590170272</ele>
        <time>2014-04-12T11:07:51Z</time>
      </trkpt>
      <trkpt lat="42.89425" lon="0.24885">
        <ele>2422.8590170272</ele>
        <time>2014-04-12T11:07:56Z</time>
      </trkpt>
      <trkpt lat="42.89429" lon="0.24885">
        <ele>2422.8590170272</ele>
        <time>2014-04-12T11:08:00Z</time>
      </trkpt>
      <trkpt lat="42.89434" lon="0.24888">
        <ele>2422.4516584035</ele>
        <time>2014-04-12T11:08:06Z</time>
      </trkpt>
      <trkpt lat="42.89437" lon="0.24888">
        <ele>2422.4516584035</ele>
        <time>2014-04-12T11:08:11Z</time>
      </trkpt>
      <trkpt lat="42.89441" lon="0.24891">
        <ele>2422.4516584035</ele>
        <time>2014-04-12T11:08:16Z</time>
      </trkpt>
      <trkpt lat="42.89441" lon="0.24892">
        <ele>2422.4516584035</ele>
        <time>2014-04-12T11:08:21Z</time>
      </trkpt>
      <trkpt lat="42.89447" lon="0.24892">
        <ele>2422.8977702507</ele>
        <time>2014-04-12T11:09:10Z</time>
      </trkpt>
      <trkpt lat="42.89449" lon="0.24894">
        <ele>2422.8977702507</ele>
        <time>2014-04-12T11:09:17Z</time>
      </trkpt>
      <trkpt lat="42.89452" lon="0.24896">
        <ele>2422.8977702507</ele>
        <time>2014-04-12T11:09:20Z</time>
      </trkpt>
      <trkpt lat="42.89455" lon="0.24898">
        <ele>2423.2885434406</ele>
        <time>2014-04-12T11:09:26Z</time>
      </trkpt>
      <trkpt lat="42.8946" lon="0.249">
        <ele>2423.2885434406</ele>
        <time>2014-04-12T11:09:31Z</time>
      </trkpt>
      <trkpt lat="42.89464" lon="0.24905">
        <ele>2423.5888522144</ele>
        <time>2014-04-12T11:09:36Z</time>
      </trkpt>
      <trkpt lat="42.89467" lon="0.24907">
        <ele>2423.5888522144</ele>
        <time>2014-04-12T11:09:41Z</time>
      </trkpt>
      <trkpt lat="42.89471" lon="0.24909">
        <ele>2423.5888522144</ele>
        <time>2014-04-12T11:09:46Z</time>
      </trkpt>
      <trkpt lat="42.89476" lon="0.2491">
        <ele>2423.8670336587</ele>
        <time>2014-04-12T11:09:51Z</time>
      </trkpt>
      <trkpt lat="42.8948" lon="0.24909">
        <ele>2423.8670336587</ele>
        <time>2014-04-12T11:09:57Z</time>
      </trkpt>
      <trkpt lat="42.8948" lon="0.24909">
        <ele>2423.8670336587</ele>
        <time>2014-04-12T11:10:01Z</time>
      </trkpt>
      <trkpt lat="42.89483" lon="0.24913">
        <ele>2424.44562554</ele>
        <time>2014-04-12T11:10:26Z</time>
      </trkpt>
      <trkpt lat="42.89486" lon="0.24914">
        <ele>2424.44562554</ele>
        <time>2014-04-12T11:10:30Z</time>
      </trkpt>
      <trkpt lat="42.8949" lon="0.24914">
        <ele>2424.44562554</ele>
        <time>2014-04-12T11:10:37Z</time>
      </trkpt>
      <trkpt lat="42.89494" lon="0.24913">
        <ele>2425.0171288798</ele>
        <time>2014-04-12T11:10:41Z</time>
      </trkpt>
      <trkpt lat="42.89499" lon="0.24914">
        <ele>2425.0171288798</ele>
        <time>2014-04-12T11:10:46Z</time>
      </trkpt>
      <trkpt lat="42.89503" lon="0.24915">
        <ele>2425.6567060157</ele>
        <time>2014-04-12T11:10:51Z</time>
      </trkpt>
      <trkpt lat="42.89506" lon="0.24914">
        <ele>2425.6567060157</ele>
        <time>2014-04-12T11:10:56Z</time>
      </trkpt>
      <trkpt lat="42.89506" lon="0.24914">
        <ele>2425.6567060157</ele>
        <time>2014-04-12T11:11:01Z</time>
      </trkpt>
      <trkpt lat="42.89509" lon="0.24914">
        <ele>2425.6567060157</ele>
        <time>2014-04-12T11:11:17Z</time>
      </trkpt>
      <trkpt lat="42.89512" lon="0.24915">
        <ele>2426.7362251417</ele>
        <time>2014-04-12T11:11:21Z</time>
      </trkpt>
      <trkpt lat="42.89517" lon="0.24916">
        <ele>2426.7362251417</ele>
        <time>2014-04-12T11:11:26Z</time>
      </trkpt>
      <trkpt lat="42.89521" lon="0.24917">
        <ele>2427.8494207672</ele>
        <time>2014-04-12T11:11:31Z</time>
      </trkpt>
      <trkpt lat="42.89524" lon="0.24918">
        <ele>2427.8494207672</ele>
        <time>2014-04-12T11:11:36Z</time>
      </trkpt>
      <trkpt lat="42.89527" lon="0.24918">
        <ele>2427.8494207672</ele>
        <time>2014-04-12T11:11:41Z</time>
      </trkpt>
      <trkpt lat="42.89529" lon="0.24918">
        <ele>2427.8494207672</ele>
        <time>2014-04-12T11:11:46Z</time>
      </trkpt>
      <trkpt lat="42.89534" lon="0.24918">
        <ele>2429.3113187923</ele>
        <time>2014-04-12T11:12:01Z</time>
      </trkpt>
      <trkpt lat="42.89535" lon="0.24919">
        <ele>2429.3113187923</ele>
        <time>2014-04-12T11:12:06Z</time>
      </trkpt>
      <trkpt lat="42.89535" lon="0.24919">
        <ele>2429.3113187923</ele>
        <time>2014-04-12T11:12:10Z</time>
      </trkpt>
      <trkpt lat="42.89535" lon="0.24911">
        <ele>2429.3113187923</ele>
        <time>2014-04-12T11:13:35Z</time>
      </trkpt>
      <trkpt lat="42.89534" lon="0.24909">
        <ele>2431.2108922627</ele>
        <time>2014-04-12T11:13:40Z</time>
      </trkpt>
      <trkpt lat="42.89537" lon="0.24907">
        <ele>2431.2108922627</ele>
        <time>2014-04-12T11:13:45Z</time>
      </trkpt>
    </trkseg>
  </trk>
</gpx>